[[{"header":{"parameterUnit":"m.s-1","parameterCategory":1,"la1":30.6,"la2":28.766,"lo1":-90.7593,"lo2":-88.6598,"dy":0.0162,"dx":0.0183,"nx":116,"ny":114,"refTime":"2024-05-30T12:00:00:Z","depth":0,"parameterNumber":2,"parameterNumberName":"U-component_of_WINDS"},"data":[0.0,0.0,0.0,0.0,0.0,0.0,0.0,0.0,0.0,0.0,0.0,0.0,0.0,0.0,0.0,0.0,0.0,0.0,0.0,0.0,0.0,0.0,0.0,0.0,0.0,0.0,0.0,0.0,0.0,0.0,0.0,0.0,0.0,0.0,0.0,0.0,0.0,0.0,0.0,0.0,0.0,0.0,0.0,0.0,0.0,0.0,0.0,0.0,0.0,0.0,0.0,0.0,0.0,0.0,0.0,0.0,0.0,0.0,0.0,0.0,0.0,0.0,0.0,0.0,0.0,0.0,0.0,0.0,0.0,0.0,0.0,0.0,0.0,0.0,0.0,0.0,0.0,0.0,0.0,0.0,0.0,0.0,0.0,0.0,0.0,0.0,0.0,0.0,0.0,0.0,0.0,0.0,0.0,0.0,0.0,0.0,0.0,0.0,0.0,0.0,0.0,0.0,0.0,0.0,0.0,0.0,0.0,0.0,0.0,0.0,0.0,0.0,0.0,0.0,0.0,0.0,0.0,0.0,0.0,0.0,0.0,0.0,0.0,0.0,0.0,0.0,0.0,0.0,0.0,0.0,0.0,0.0,0.0,0.0,0.0,0.0,0.0,0.0,0.0,0.0,0.0,0.0,0.0,0.0,0.0,0.0,0.0,0.0,0.0,0.0,0.0,0.0,0.0,0.0,0.0,0.0,0.0,0.0,0.0,0.0,0.0,0.0,0.0,0.0,0.0,0.0,0.0,0.0,0.0,0.0,0.0,0.0,0.0,0.0,0.0,0.0,0.0,0.0,0.0,0.0,0.0,0.0,0.0,0.0,0.0,0.0,0.0,0.0,0.0,0.0,0.0,0.0,0.0,0.0,0.0,0.0,0.0,0.0,0.0,0.0,0.0,0.0,0.0,0.0,0.0,0.0,0.0,0.0,0.0,0.0,0.0,0.0,0.0,0.0,0.0,0.0,0.0,0.0,0.0,0.0,0.0,0.0,0.0,0.0,0.0,0.0,0.0,0.0,0.0,0.0,0.0,0.0,0.0,0.0,0.0,0.0,0.0,0.0,0.0,0.0,0.0,0.0,0.0,0.0,0.0,0.0,0.0,0.0,0.0,0.0,0.0,0.0,0.0,0.0,0.0,0.0,0.0,0.0,0.0,0.0,0.0,0.0,0.0,0.0,0.0,0.0,0.0,0.0,0.0,0.0,0.0,0.0,0.0,0.0,0.0,0.0,0.0,0.0,0.0,0.0,0.0,0.0,0.0,0.0,0.0,0.0,0.0,0.0,0.0,0.0,0.0,0.0,0.0,0.0,0.0,0.0,0.0,0.0,0.0,0.0,0.0,0.0,0.0,0.0,0.0,0.0,0.0,0.0,0.0,0.0,0.0,0.0,0.0,0.0,0.0,0.0,0.0,0.0,0.0,0.0,0.0,0.0,0.0,0.0,0.0,0.0,0.0,0.0,0.0,0.0,0.0,0.0,0.0,0.0,0.0,0.0,0.0,0.0,0.0,0.0,0.0,0.0,0.0,0.0,0.0,0.0,0.0,0.0,0.0,0.0,0.0,0.0,0.0,0.0,0.0,0.0,0.0,0.0,0.0,0.0,0.0,0.0,0.0,0.0,0.0,0.0,0.0,0.0,0.0,0.0,0.0,0.0,0.0,0.0,0.0,0.0,0.0,0.0,0.0,0.0,0.0,0.0,0.0,0.0,0.0,0.0,0.0,0.0,0.0,0.0,0.0,0.0,0.0,0.0,0.0,0.0,0.0,0.0,0.0,0.0,0.0,0.0,0.0,0.0,0.0,0.0,0.0,0.0,0.0,0.0,0.0,0.0,0.0,0.0,0.0,0.0,0.0,0.0,0.0,0.0,0.0,0.0,0.0,0.0,0.0,0.0,0.0,0.0,0.0,0.0,0.0,0.0,0.0,0.0,0.0,0.0,0.0,0.0,0.0,0.0,0.0,0.0,0.0,0.0,0.0,0.0,0.0,0.0,0.0,0.0,0.0,0.0,0.0,0.0,0.0,0.0,0.0,0.0,0.0,0.0,0.0,0.0,0.0,0.0,0.0,0.0,0.0,0.0,0.0,0.0,0.0,0.0,0.0,0.0,0.0,0.0,0.0,0.0,0.0,0.0,0.0,0.0,0.0,0.0,0.0,0.0,0.0,0.0,0.0,0.0,0.0,0.0,0.0,0.0,0.0,0.0,0.0,0.0,0.0,0.0,0.0,0.0,0.0,0.0,0.0,0.0,0.0,0.0,0.0,0.0,0.0,0.0,0.0,0.0,0.0,0.0,0.0,0.0,0.0,0.0,0.0,0.0,0.0,0.0,0.0,0.0,0.0,0.0,0.0,0.0,0.0,0.0,0.0,0.0,0.0,0.0,0.0,0.0,0.0,0.0,0.0,0.0,0.0,0.0,0.0,0.0,0.0,0.0,0.0,0.0,0.0,0.0,0.0,0.0,0.0,0.0,0.0,0.0,0.0,0.0,0.0,0.0,0.0,0.0,0.0,0.0,0.0,0.0,0.0,0.0,0.0,0.0,0.0,0.0,0.0,0.0,0.0,0.0,0.0,0.0,0.0,0.0,0.0,0.0,0.0,0.0,0.0,0.0,0.0,0.0,0.0,0.0,0.0,0.0,0.0,0.0,0.0,0.0,0.0,0.0,0.0,0.0,0.0,0.0,0.0,0.0,0.0,0.0,0.0,0.0,0.0,0.0,0.0,0.0,0.0,0.0,0.0,0.0,0.0,0.0,0.0,0.0,0.0,0.0,0.0,0.0,0.0,0.0,0.0,0.0,0.0,0.0,0.0,0.0,0.0,0.0,0.0,0.0,0.0,0.0,0.0,0.0,0.0,0.0,0.0,0.0,0.0,0.0,0.0,0.0,0.0,0.0,0.0,0.0,0.0,0.0,0.0,0.0,0.0,0.0,0.0,0.0,0.0,0.0,0.0,0.0,0.0,0.0,0.0,0.0,0.0,0.0,0.0,0.0,0.0,0.0,0.0,0.0,0.0,0.0,0.0,0.0,0.0,0.0,0.0,0.0,0.0,0.0,0.0,0.0,0.0,0.0,0.0,0.0,0.0,0.0,0.0,0.0,0.0,0.0,0.0,0.0,0.0,0.0,0.0,0.0,0.0,0.0,0.0,0.0,0.0,0.0,0.0,0.0,0.0,0.0,0.0,0.0,0.0,0.0,0.0,0.0,0.0,0.0,0.0,0.0,0.0,0.0,0.0,0.0,0.0,0.0,0.0,0.0,0.0,0.0,0.0,0.0,0.0,0.0,0.0,0.0,0.0,0.0,0.0,0.0,0.0,0.0,0.0,0.0,0.0,0.0,0.0,0.0,0.0,0.0,0.0,0.0,0.0,0.0,0.0,0.0,0.0,0.0,0.0,0.0,0.0,0.0,0.0,0.0,0.0,0.0,0.0,0.0,0.0,0.0,0.0,0.0,0.0,0.0,0.0,0.0,0.0,0.0,0.0,0.0,0.0,0.0,0.0,0.0,0.0,0.0,0.0,0.0,0.0,0.0,0.0,0.0,0.0,0.0,0.0,0.0,0.0,0.0,0.0,0.0,0.0,0.0,0.0,0.0,0.0,0.0,0.0,0.0,0.0,0.0,0.0,0.0,0.0,0.0,0.0,0.0,0.0,0.0,0.0,0.0,0.0,0.0,0.0,0.0,0.0,0.0,0.0,0.0,0.0,0.0,0.0,0.0,0.0,0.0,0.0,0.0,0.0,0.0,0.0,0.0,0.0,0.0,0.0,0.0,0.0,0.0,0.0,0.0,0.0,0.0,0.0,0.0,0.0,0.0,0.0,0.0,0.0,0.0,0.0,0.0,0.0,0.0,0.0,0.0,0.0,0.0,0.0,0.0,0.0,0.0,0.0,0.0,0.0,0.0,0.0,0.0,0.0,0.0,0.0,0.0,0.0,0.0,0.0,0.0,0.0,0.0,0.0,0.0,0.0,0.0,0.0,0.0,0.0,0.0,0.0,0.0,0.0,0.0,0.0,0.0,0.0,0.0,0.0,0.0,0.0,0.0,0.0,0.0,0.0,0.0,0.0,0.0,0.0,0.0,0.0,0.0,0.0,0.0,0.0,0.0,0.0,0.0,0.0,0.0,0.0,0.0,0.0,0.0,0.0,0.0,0.0,0.0,0.0,0.0,0.0,0.0,0.0,0.0,0.0,0.0,0.0,0.0,0.0,0.0,0.0,0.0,0.0,0.0,0.0,0.0,0.0,0.0,0.0,0.0,0.0,0.0,0.0,0.0,0.0,0.0,0.0,0.0,0.0,0.0,0.0,0.0,0.0,0.0,0.0,0.0,0.0,0.0,0.0,0.0,0.0,0.0,0.0,0.0,0.0,0.0,0.0,0.0,0.0,0.0,0.0,0.0,0.0,0.0,0.0,0.0,0.0,0.0,0.0,0.0,0.0,0.0,0.0,0.0,0.0,0.0,0.0,0.0,0.0,0.0,0.0,0.0,0.0,0.0,0.0,0.0,0.0,0.0,0.0,0.0,0.0,0.0,0.0,0.0,0.0,0.0,0.0,0.0,0.0,0.0,0.0,0.0,0.0,0.0,0.0,0.0,0.0,0.0,0.0,0.0,0.0,0.0,0.0,0.0,0.0,0.0,0.0,0.0,0.0,0.0,0.0,0.0,0.0,0.0,0.0,0.0,0.0,0.0,0.0,0.0,0.0,0.0,0.0,0.0,0.0,0.0,0.0,0.0,0.0,0.0,0.0,0.0,0.0,0.0,0.0,0.0,0.0,0.0,0.0,0.0,0.0,0.0,0.0,0.0,0.0,0.0,0.0,0.0,0.0,0.0,0.0,0.0,0.0,0.0,0.0,0.0,0.0,0.0,0.0,0.0,0.0,0.0,0.0,0.0,0.0,0.0,0.0,0.0,0.0,0.0,0.0,0.0,0.0,0.0,0.0,0.0,0.0,0.0,0.0,0.0,0.0,0.0,0.0,0.0,0.0,0.0,0.0,0.0,0.0,0.0,0.0,0.0,0.0,0.0,0.0,0.0,0.0,0.0,0.0,0.0,0.0,0.0,0.0,0.0,0.0,0.0,0.0,0.0,0.0,0.0,0.0,0.0,0.0,0.0,0.0,0.0,0.0,0.0,0.0,0.0,0.0,0.0,0.0,0.0,0.0,0.0,0.0,0.0,0.0,0.0,0.0,0.0,0.0,0.0,0.0,0.0,0.0,0.0,0.0,0.0,0.0,0.0,0.0,0.0,0.0,0.0,0.0,0.0,0.0,0.0,0.0,0.0,0.0,0.0,0.0,0.0,0.0,0.0,0.0,0.0,0.0,0.0,0.0,0.0,0.0,0.0,0.0,0.0,0.0,0.0,0.0,0.0,0.0,0.0,0.0,0.0,0.0,0.0,0.0,0.0,0.0,0.0,0.0,0.0,0.0,0.0,0.0,0.0,0.0,0.0,0.0,0.0,0.0,0.0,0.0,0.0,0.0,0.0,0.0,0.0,0.0,0.0,0.0,0.0,0.0,0.0,0.0,0.0,0.0,0.0,0.0,0.0,0.0,0.0,0.0,0.0,0.0,0.0,0.0,0.0,0.0,0.0,0.0,0.0,0.0,0.0,0.0,0.0,0.0,0.0,0.0,0.0,0.0,0.0,0.0,0.0,0.0,0.0,0.0,0.0,0.0,0.0,0.0,0.0,0.0,0.0,0.0,0.0,0.0,0.0,0.0,0.0,0.0,0.0,0.0,0.0,0.0,0.0,0.0,0.0,0.0,0.0,0.0,0.0,0.0,0.0,0.0,0.0,0.0,0.0,0.0,0.0,0.0,0.0,0.0,0.0,0.0,0.0,0.0,0.0,0.0,0.0,0.0,0.0,0.0,0.0,0.0,0.0,0.0,0.0,0.0,0.0,0.0,0.0,0.0,0.0,0.0,0.0,0.0,0.0,0.0,0.0,0.0,0.0,0.0,0.0,0.0,0.0,0.0,0.0,0.0,0.0,0.0,0.0,0.0,0.0,0.0,0.0,0.0,0.0,0.0,0.0,0.0,0.0,0.0,0.0,0.0,0.0,0.0,0.0,0.0,0.0,0.0,0.0,0.0,0.0,0.0,0.0,0.0,0.0,-0.8031,0.0,0.0,0.0,0.0,0.0,0.0,0.0,0.0,0.0,0.0,0.0,0.0,0.0,0.0,0.0,0.0,0.0,0.0,0.0,0.0,0.0,0.0,0.0,0.0,-0.8665,-0.8768,-0.8768,-0.8637,-0.8603,-0.8658,0.0,0.0,0.0,0.0,0.0,-0.9317,-0.9402,-1.0149,-1.1637,-1.1637,-1.2415,-1.387,-1.249,-1.1375,-1.0477,0.0,0.0,0.0,0.0,0.0,0.0,0.0,0.0,0.0,0.0,0.0,0.0,0.0,0.0,0.0,0.0,0.0,0.0,0.0,0.0,0.0,0.0,0.0,0.0,0.0,0.0,0.0,0.0,0.0,0.0,0.0,0.0,0.0,0.0,0.0,0.0,0.0,0.0,0.0,0.0,0.0,0.0,0.0,0.0,0.0,0.0,0.0,0.0,0.0,0.0,0.0,0.0,0.0,0.0,0.0,0.0,0.0,0.0,0.0,0.0,0.0,0.0,0.0,0.0,0.0,0.0,0.0,0.0,0.0,0.0,0.0,-0.9844,0.0,0.0,0.0,0.0,0.0,0.0,0.0,0.0,0.0,0.0,0.0,0.0,0.0,0.0,0.0,0.0,0.0,0.0,0.0,0.0,0.0,-0.8791,-0.8923,-0.9317,-0.9658,-0.9931,-0.9698,-0.9628,-0.9873,-0.893,0.0,0.0,0.0,-0.9271,-1.017,-1.0345,-1.1468,-1.3574,-1.4251,-1.5155,-1.6373,-1.6644,-1.6031,-1.4651,-1.3249,0.0,0.0,0.0,0.0,0.0,0.0,0.0,0.0,0.0,0.0,0.0,0.0,0.0,0.0,0.0,0.0,0.0,0.0,0.0,0.0,0.0,0.0,0.0,0.0,0.0,0.0,0.0,0.0,0.0,0.0,0.0,0.0,0.0,0.0,0.0,0.0,0.0,0.0,0.0,0.0,0.0,0.0,0.0,0.0,0.0,0.0,0.0,0.0,0.0,0.0,0.0,0.0,0.0,0.0,0.0,0.0,0.0,0.0,0.0,0.0,0.0,0.0,0.0,-2.0727,-2.0851,-2.054,-2.0433,-2.0218,-1.9791,-1.7049,-1.5268,-1.4153,0.0,0.0,0.0,0.0,0.0,0.0,0.0,0.0,0.0,0.0,0.0,0.0,0.0,0.0,0.0,0.0,0.0,0.0,0.0,0.0,-0.9117,-0.9773,-0.9806,-1.0293,-1.1561,-1.092,-1.072,-1.1359,-1.0672,0.0,0.0,-1.0579,-1.0684,-1.0961,-1.1637,-1.2787,-1.4368,-1.7546,-1.9237,-1.9439,-2.0792,-2.1299,-2.0901,-1.6916,-1.4996,-1.4675,0.0,0.0,0.0,0.0,0.0,0.0,0.0,0.0,0.0,0.0,0.0,0.0,0.0,0.0,0.0,0.0,0.0,0.0,0.0,0.0,0.0,0.0,0.0,0.0,0.0,0.0,0.0,0.0,0.0,0.0,0.0,0.0,0.0,0.0,0.0,0.0,0.0,0.0,0.0,0.0,0.0,-0.7333,-0.7402,0.0,0.0,0.0,0.0,0.0,0.0,0.0,0.0,0.0,0.0,0.0,0.0,0.0,-2.0263,-2.1333,-2.3103,-2.4301,-2.4918,-2.5854,-2.655,-2.7046,-2.6462,-2.6182,-2.606,-2.4928,0.0,-1.6919,-1.5806,0.0,0.0,0.0,0.0,0.0,0.0,0.0,0.0,0.0,0.0,0.0,0.0,0.0,0.0,0.0,0.0,0.0,0.0,0.0,0.0,0.0,-1.1809,-1.2924,-1.4153,-1.3996,-1.3696,-1.3314,-1.241,-1.1646,-1.1023,-1.095,-1.1388,-1.2355,-1.3126,-1.5088,-1.8268,-2.1109,-2.253,-2.253,-2.3207,-2.356,-2.3458,-2.1495,-1.9617,-1.777,-1.5351,0.0,0.0,0.0,0.0,0.0,0.0,0.0,0.0,0.0,0.0,0.0,0.0,0.0,0.0,0.0,0.0,0.0,0.0,0.0,0.0,0.0,0.0,0.0,0.0,0.0,0.0,0.0,0.0,0.0,0.0,0.0,0.0,0.0,0.0,0.0,0.0,0.0,0.0,0.0,-0.9884,-1.1254,-1.1296,-1.2347,-1.273,0.0,0.0,0.0,0.0,0.0,0.0,0.0,0.0,0.0,-2.3948,-2.4722,-2.5825,-2.731,-2.8196,-2.8937,-2.955,-3.0017,-3.0328,-3.05,-3.0185,-2.9823,-2.9355,-2.8643,-2.692,-2.4282,-2.045,-1.7817,-1.6002,0.0,0.0,0.0,0.0,-1.4165,-1.4373,0.0,0.0,0.0,0.0,0.0,0.0,0.0,0.0,0.0,0.0,0.0,0.0,-1.2134,-1.376,-1.5309,-1.6649,-1.6733,-1.645,-1.5687,-1.4365,-1.3187,-1.2272,-1.1969,-1.2506,-1.3946,-1.5426,-1.7929,-2.1495,-2.3898,-2.5049,-2.5083,-2.5455,-2.5557,-2.5354,-2.5151,-2.3613,-2.0948,-1.8039,-1.6362,-1.5482,0.0,0.0,0.0,0.0,0.0,0.0,0.0,0.0,0.0,0.0,0.0,0.0,0.0,0.0,0.0,0.0,0.0,0.0,0.0,0.0,0.0,0.0,0.0,0.0,0.0,0.0,0.0,0.0,0.0,0.0,0.0,0.0,0.0,0.0,0.0,0.0,0.0,-1.2951,-1.4688,-1.4498,-1.6533,-1.7397,0.0,0.0,0.0,0.0,0.0,0.0,-2.4304,-2.5466,-2.7041,-2.9091,-2.9641,-3.0654,-3.2228,-3.2258,-3.2587,-3.3275,-3.3095,-3.2939,-3.2786,-3.2611,-3.2205,-3.1626,-3.0918,-3.0656,-3.0247,-2.4958,-2.202,-2.0692,-1.9257,-1.8258,-1.7638,-1.8069,-1.8363,-1.8709,0.0,0.0,0.0,0.0,0.0,0.0,0.0,0.0,0.0,0.0,0.0,-1.1881,-1.4116,-1.5054,-1.6417,-1.8562,-1.8132,-1.7986,-1.864,-1.6667,-1.545,-1.5392,-1.4706,-1.4706,-1.546,-1.9024,-2.1326,-2.2245,-2.5169,-2.6606,-2.6623,-2.8096,-2.8383,-2.7587,-2.6894,-2.5726,-2.4135,-2.1867,-2.0467,-1.9529,-1.6352,0.0,0.0,0.0,0.0,0.0,0.0,0.0,0.0,0.0,0.0,0.0,0.0,0.0,0.0,0.0,0.0,0.0,0.0,0.0,0.0,0.0,0.0,0.0,0.0,0.0,0.0,0.0,0.0,0.0,0.0,0.0,0.0,0.0,0.0,0.0,0.0,0.0,0.0,-1.5637,-1.9891,0.0,0.0,0.0,0.0,-2.5317,-2.6678,-2.8354,-3.0344,-3.1108,-3.2084,-3.3336,-3.3429,-3.3713,-3.4354,-3.4354,-3.4681,-3.534,-3.4681,-3.4382,-3.4381,-3.3722,-3.3392,-3.3331,-3.2492,-3.2083,-3.1875,-2.9077,-2.7299,-2.6217,-2.5494,-2.4544,-2.3601,-2.3903,-2.4501,-2.5163,0.0,0.0,0.0,0.0,0.0,-0.8511,-0.8794,-0.888,-0.9179,-0.9906,-1.1502,-1.331,-1.5244,-1.7258,-1.9015,-2.0458,-2.0637,-2.0386,-1.9676,-1.7986,-1.7016,-1.7016,-1.5866,-1.6475,-1.9159,-2.1461,-2.3444,-2.5135,-2.6657,-2.7672,-2.8197,-2.8739,-2.884,-2.8552,-2.8299,-2.7893,-2.7182,-2.4,-2.1935,-2.0602,-1.848,-1.6458,0.0,0.0,0.0,0.0,0.0,0.0,0.0,0.0,0.0,0.0,0.0,0.0,0.0,0.0,0.0,0.0,0.0,0.0,0.0,0.0,0.0,0.0,0.0,0.0,0.0,0.0,0.0,0.0,0.0,0.0,0.0,0.0,0.0,0.0,0.0,0.0,0.0,-2.4759,-2.6451,0.0,-2.6686,-2.8416,-2.9708,-2.9955,-3.2125,-3.3721,-3.4348,-3.589,-3.6878,-3.7109,-3.6994,-3.7033,-3.721,-3.6625,-3.6477,-3.6716,-3.6477,-3.6357,-3.6357,-3.6118,-3.5998,-3.5965,-3.5284,-3.4945,-3.4827,-3.304,-3.0958,-2.8867,-2.8614,-2.8088,-2.7418,-2.7508,-2.7765,-2.7915,0.0,0.0,0.0,0.0,-0.8253,-0.8396,-0.8673,-0.88,-0.9289,-1.0609,-1.2517,-1.4594,-1.6748,-1.9028,-2.0768,-2.1678,-2.2085,-2.1874,-2.0846,-1.9372,-1.856,-1.856,-1.7862,-1.8888,-2.1867,-2.3613,-2.5338,-2.7063,-2.806,-2.8838,-2.9382,-2.9653,-2.9619,-2.9364,-2.9364,-2.9247,-2.884,-2.6336,-2.444,-2.2883,-2.0839,-1.9181,-1.7648,0.0,0.0,0.0,0.0,0.0,0.0,0.0,0.0,0.0,0.0,0.0,0.0,0.0,0.0,0.0,0.0,0.0,0.0,0.0,0.0,0.0,0.0,0.0,0.0,0.0,0.0,0.0,0.0,0.0,0.0,0.0,0.0,0.0,0.0,0.0,-2.9025,-3.0644,-3.2295,-3.3104,-3.2682,-3.3925,-3.4934,-3.5295,-3.7061,-3.8202,-3.8322,-3.9655,-4.025,-3.9758,-3.9615,-3.9503,-3.947,-3.8919,-3.8455,-3.8182,-3.8182,-3.7892,-3.7404,-3.7404,-3.7404,-3.7375,-3.6985,-3.6806,-3.6716,-3.5818,-3.4192,-3.2201,-3.1511,-3.1028,-3.0685,-3.0375,-3.0438,-3.0599,0.0,0.0,0.0,-0.7891,-0.8009,-0.8156,-0.839,-0.8573,-0.9579,-1.1994,-1.3591,-1.5653,-1.8572,-2.031,-2.1529,-2.2245,-2.2313,-2.2313,-2.2313,-2.0859,-2.0002,-2.0035,-2.0839,-2.1969,-2.3477,-2.5609,-2.7097,-2.7858,-2.9379,-3.0089,-3.0156,-3.0852,-3.0818,-3.0123,-3.0123,-2.9736,-2.9077,-2.9044,-2.8163,-2.6556,-2.3613,-2.2415,-2.2043,0.0,0.0,0.0,0.0,0.0,0.0,0.0,0.0,0.0,0.0,0.0,0.0,0.0,0.0,0.0,0.0,0.0,0.0,0.0,0.0,0.0,0.0,0.0,0.0,0.0,0.0,0.0,0.0,0.0,0.0,0.0,0.0,0.0,-2.7182,-3.0784,-3.3322,-3.2666,-3.7077,-3.9343,-3.7202,-3.8903,-4.0468,-4.117,-4.1271,-4.1576,-4.2286,-4.2354,-4.2024,-4.1328,-4.13,-4.119,-4.1051,-4.1052,-4.061,-3.9765,-3.9732,-3.8956,-3.7499,-3.7464,-3.7464,-3.7464,-3.7434,-3.7434,-3.7434,-3.7434,-3.7045,-3.6327,-3.4352,-3.3574,-3.3452,-3.2611,-3.2832,-3.3422,0.0,0.0,-0.7768,-0.8009,-0.8061,-0.8202,-0.8567,-0.8652,-0.9579,-1.1994,-1.4039,-1.6204,-1.864,-2.0737,-2.209,-2.2279,-2.2313,-2.2313,-2.2313,-2.0859,-2.0251,-2.0839,-2.209,-2.3748,-2.5744,-2.6387,-2.7604,-2.9447,-2.9886,-3.0378,-3.0886,-3.1089,-3.1089,-3.0886,-3.0886,-3.0784,-3.0567,-3.0006,-2.9567,-2.8958,-2.6488,-2.4831,-2.3695,0.0,0.0,0.0,0.0,0.0,0.0,0.0,0.0,0.0,0.0,0.0,0.0,0.0,0.0,0.0,0.0,0.0,0.0,0.0,0.0,0.0,0.0,0.0,0.0,0.0,0.0,0.0,0.0,0.0,0.0,0.0,0.0,-3.3457,-3.2476,-3.5284,-3.7787,-3.8633,-4.0493,-4.1441,-4.0832,-4.1339,-4.1779,-4.1982,-4.2489,-4.2868,-4.3098,-4.3639,-4.3861,-4.3659,-4.3053,-4.2706,-4.2692,-4.2042,-4.1598,-4.134,-4.0747,-4.0217,-3.976,-3.9159,-3.8871,-3.8805,-3.8332,-3.8123,-3.8093,-3.7614,-3.7315,-3.7045,-3.6058,-3.537,-3.4919,-3.4664,-3.4431,-3.4203,0.0,-0.7576,-0.779,-0.7975,-0.8016,-0.814,-0.8517,-0.8573,-0.9567,-1.2392,-1.442,-1.6576,-1.908,-2.113,-2.2313,-2.2313,-2.2313,-2.2178,-2.1854,-2.1299,-2.1299,-2.2104,-2.3831,-2.5541,-2.7131,-2.7807,-2.8924,-3.0548,-3.0548,-3.0784,-3.119,-3.119,-3.119,-3.119,-3.119,-3.119,-3.1157,-3.0751,-3.0548,-3.0412,-2.8789,-2.7435,-2.6234,-2.4729,-2.3579,-2.2651,-2.1617,-2.0719,-1.9819,-1.8397,0.0,0.0,0.0,0.0,0.0,0.0,0.0,0.0,0.0,0.0,0.0,0.0,0.0,0.0,0.0,0.0,0.0,0.0,0.0,0.0,0.0,0.0,0.0,0.0,-3.4687,-3.7652,-3.8159,-3.9478,-4.0832,-4.1982,-4.2794,-4.3369,-4.3673,-4.3707,-4.3842,-4.4147,-4.4587,-4.4823,-4.4823,-4.5263,-4.5529,-4.5529,-4.5031,-4.476,-4.476,-4.424,-4.3617,-4.2877,-4.238,-4.1576,-4.0562,-4.0052,-3.9679,0.0,-3.899,-3.8811,-3.8781,-3.8422,-3.8063,0.0,0.0,0.0,0.0,0.0,-3.525,-3.4921,0.0,-0.7613,-0.7914,-0.7914,-0.7914,-0.8005,-0.8357,-0.8409,-0.959,-1.2966,-1.4623,-1.661,-1.9529,-2.1164,-2.2076,-2.2178,-2.2192,-2.1989,-2.1495,-2.2057,-2.2835,-2.3714,-2.5642,-2.7131,-2.8027,-2.9379,-3.048,-3.119,-3.119,-3.119,-3.119,-3.119,-3.119,-3.119,-3.1292,-3.1326,-3.1326,-3.1326,-3.1326,-3.1258,-3.0514,-2.977,-2.8976,-2.752,-2.6945,-2.6707,-2.5433,-2.4498,-2.3532,-2.1413,0.0,0.0,0.0,0.0,0.0,0.0,0.0,0.0,0.0,0.0,0.0,0.0,0.0,0.0,0.0,0.0,0.0,0.0,0.0,0.0,0.0,0.0,0.0,0.0,-3.8633,-4.1365,-4.3504,-4.3234,-4.3031,-4.3578,-4.435,-4.5122,-4.5771,-4.5838,-4.6109,-4.6752,-4.6786,-4.6786,-4.6786,0.0,0.0,0.0,0.0,-4.6786,-4.6786,-4.6786,-4.5996,-4.4394,-4.4226,-4.2953,-4.0818,-4.0628,-4.0187,-3.9649,-3.9559,-3.9493,-3.9493,-3.9439,-3.905,-3.8422,-3.7704,-3.7075,-3.6507,-3.5938,-3.5669,-3.5609,0.0,-0.7834,-0.7914,-0.7914,-0.7914,-0.8005,-0.8357,-0.8409,-0.959,-1.2966,-1.4174,-1.5822,-1.8775,-1.9913,-2.069,-2.136,-2.1427,-2.1867,-2.2917,-2.3105,-2.4052,-2.5997,-2.6454,-2.7638,-2.9616,-2.9973,-3.048,-3.119,-3.119,-3.119,-3.119,-3.119,-3.119,-3.1224,-3.1819,-3.209,-3.209,-3.209,-3.209,-3.2022,-3.1292,-3.0548,-2.9803,-2.8908,-2.8408,-2.8089,-2.7829,-2.7257,-2.6457,-2.5432,-2.4428,-2.3376,-2.1832,0.0,0.0,0.0,0.0,0.0,0.0,0.0,0.0,0.0,0.0,0.0,0.0,0.0,0.0,0.0,0.0,0.0,0.0,0.0,0.0,-3.8792,-4.1771,-4.431,-4.5906,-4.6007,-4.5771,-4.5331,-4.5906,-4.6413,-4.6583,-4.6583,-4.665,-4.6786,-4.6786,-4.6786,-4.6786,-4.6786,-4.6786,-4.6786,-4.6786,-4.6786,-4.6786,-4.6786,-4.6604,-4.624,0.0,0.0,-4.3324,-4.1858,-4.1115,-4.0965,-4.0427,-4.0217,-4.0157,-3.9649,-3.9313,-3.911,-3.7883,-3.7345,-3.7225,-3.7075,-3.6716,-3.6297,-0.7827,-0.7914,-0.7914,-0.7914,-0.7914,-0.8005,-0.8357,-0.8409,-0.9486,-1.2451,-1.3498,-1.4919,-1.7534,-1.8471,-1.9068,-1.9452,-1.9836,-2.0852,-2.2733,-2.3207,-2.4391,-2.659,-2.7453,-2.8552,-3.0074,-3.048,-3.0818,-3.119,-3.119,-3.119,-3.119,-3.119,-3.119,-3.1224,-3.1582,-3.1752,-3.1752,-3.1752,-3.1752,-3.1718,-3.1326,-3.0987,-3.0635,-3.0457,-3.0075,-2.9588,-2.9416,-2.8755,-2.7763,-2.6651,-2.5727,-2.4864,-2.3748,-2.2632,-2.14,0.0,0.0,0.0,0.0,0.0,0.0,0.0,0.0,0.0,0.0,0.0,0.0,0.0,0.0,-3.2462,0.0,0.0,-3.9851,-4.2489,-4.4451,-4.5969,-4.6684,-4.7124,-4.709,-4.6346,-4.6583,-4.6921,-4.7327,-4.7361,-4.7496,-4.7868,-4.7902,-4.7902,-4.7902,-4.7902,-4.7902,-4.7902,-4.7902,-4.7902,-4.7902,-4.7902,-4.7656,-4.7156,-4.5795,-4.4957,-4.4603,-4.2744,-4.1957,-4.2041,-4.125,-4.0876,-4.0846,-4.0187,-3.9709,-3.9313,-3.8661,-3.8212,-3.7853,-3.7524,-3.7225,-3.6956,-0.7848,-0.7914,-0.7914,-0.7914,-0.7914,-0.8005,-0.8357,-0.8409,-0.9277,-1.1735,-1.2728,-1.398,-1.6045,-1.6915,-1.7479,-1.7783,-1.8606,-2.0094,-2.2347,-2.3207,-2.4594,-2.6826,-2.8265,-2.9348,-3.0055,-3.0818,-3.119,-3.119,-3.119,-3.119,-3.119,-3.119,-3.119,-3.119,-3.1326,-3.1393,-3.1393,-3.1393,-3.1393,-3.1393,-3.1258,-3.119,-3.1269,-3.1751,-3.1464,-3.0801,-3.0627,-2.9662,-2.8297,-2.7138,-2.6301,-2.5569,-2.4929,-2.4305,-2.3511,-2.1901,-2.182,0.0,0.0,0.0,0.0,0.0,0.0,0.0,0.0,0.0,-3.0664,-3.3085,-3.5115,-3.7246,-3.9817,-4.1271,-4.2963,-4.5703,-4.6616,-4.7056,-4.7192,-4.7733,-4.7902,-4.7293,-4.7225,-4.7462,-4.8071,-4.8108,-4.8376,-4.8951,-4.9018,-4.9018,-4.9018,-4.9018,-4.9018,-4.9018,-4.9018,-4.9018,-4.9018,-4.9018,-4.8608,-4.7868,-4.6902,-4.6198,-4.5617,-4.3907,-4.3179,-4.3138,-4.2084,-4.1542,-4.1354,-4.0816,-4.0217,-3.9582,-3.9582,-3.92,-3.8512,-3.8003,-3.7704,-3.7584,0.0,-0.7914,-0.7914,-0.7914,-0.7914,-0.8005,-0.8357,-0.8409,-0.9075,-1.0993,-1.1942,-1.3024,-1.4571,-1.5392,-1.6373,-1.7681,-1.9068,-2.0859,-2.3139,-2.3966,-2.5372,-2.7587,-2.8518,-2.9348,-3.0055,-3.0818,-3.119,-3.119,-3.119,-3.119,-3.119,-3.119,-3.119,-3.1224,-3.1887,-3.2192,-3.2192,-3.2192,-3.2192,-3.2124,-3.1481,-3.119,-3.1308,-3.2127,-3.1941,-3.1283,-3.1682,-3.0326,-2.8448,-2.8706,-2.7557,-2.5998,-2.5603,-2.5439,-2.4932,-2.2801,0.0,-2.2076,-2.1089,-2.3038,-2.5981,-2.8484,-2.977,-3.2002,0.0,0.0,-3.8565,-4.1414,-4.2794,-4.3741,-4.4756,-4.5094,-4.5737,-4.7365,-4.7703,-4.8037,-4.8646,-4.8815,-4.8849,-4.8748,-4.8748,-4.8781,-4.8883,-4.8883,-4.8917,-4.8984,-4.9018,-4.9018,-4.9018,-4.9018,-4.9018,-4.9018,-4.9018,-4.9018,-4.9018,-4.9018,-4.8956,-4.8829,-4.7901,-4.7407,-4.7308,-4.622,-4.5331,-4.4496,-4.2924,-4.1961,-4.1384,-4.1294,-4.0876,-4.0277,-4.0277,-3.9888,-3.929,-3.9194,-3.8811,-3.8272,0.0,-0.7914,-0.792,-0.7996,-0.8016,-0.8099,-0.837,-0.8498,-0.9021,-1.0285,-1.0751,-1.1528,-1.305,-1.3879,-1.4928,-1.6407,-1.7884,-1.9688,-2.1969,-2.3594,-2.532,-2.7097,-2.8333,-2.9348,-3.0055,-3.0818,-3.119,-3.119,-3.119,-3.119,-3.119,-3.119,-3.119,-3.119,-3.1529,-3.1684,-3.1684,-3.1684,-3.1684,-3.163,-3.1326,-3.119,-3.122,-3.141,-3.071,-2.969,-3.0421,-2.9692,0.0,0.0,-2.6464,-2.5687,-2.5375,-2.5255,-2.4951,-2.3401,-2.4139,0.0,-2.8315,-2.9533,-3.0751,0.0,-3.5182,-3.711,-3.9893,-4.0764,-4.1644,-4.4215,-4.5703,-4.6616,-4.6921,-4.7327,-4.7834,0.0,-4.8545,-4.8646,-4.8951,-4.8646,-4.8376,-4.8376,-4.8376,-4.8545,-4.8951,-4.9018,-4.9018,-4.9018,-4.9018,-4.9018,-4.9018,-4.9018,-4.9018,-4.9018,-4.9018,-4.9018,-4.9018,-4.9018,-4.9018,-4.9018,-4.8064,-4.7868,-4.8353,-4.6867,-4.5706,-4.4743,-4.4082,-4.3099,-4.1991,-4.1991,-4.1354,-4.0397,-4.0397,-4.0008,-3.9373,-3.9373,-3.923,-3.899,0.0,-0.7914,-0.7927,-0.803,-0.8133,-0.8253,-0.846,-0.8598,-0.8935,-0.9617,-0.9872,-1.0582,-1.2145,-1.2965,-1.3912,-1.5189,-1.6644,-1.8471,-2.0703,-2.2781,-2.4628,-2.6319,-2.7638,-2.8687,-2.9447,-3.0412,-3.0886,-3.0886,-3.1089,-3.119,-3.119,-3.119,-3.119,-3.119,-3.119,-3.119,-3.119,-3.119,-3.119,-3.119,-3.119,-3.1089,-3.0842,-3.0506,-2.9417,-2.8214,-2.8969,-2.8396,0.0,0.0,-2.5103,-2.4993,-2.4767,-2.4764,-2.4751,-2.4177,-2.5676,-2.8297,-3.1968,-3.3491,0.0,-3.6863,-3.9546,-4.1617,-4.1617,-4.2794,-4.4248,-4.5703,-4.7022,-4.7838,-4.7631,-4.8206,-4.8714,-4.8714,-4.8883,-4.9018,-4.9018,-4.8376,-4.7906,-4.7906,-4.7703,-4.7902,-4.8646,-4.8883,-4.9018,-4.9018,-4.9018,-4.9018,-4.9018,-4.9018,-4.9018,-4.9018,-4.9018,-4.9018,-4.9018,-4.9018,-4.9018,-4.8984,-4.8289,-4.8225,-4.8545,-4.6694,-4.5597,-4.5153,-4.4624,-4.3884,-4.3037,-4.2767,-4.2144,-4.1314,-4.1048,-4.0427,-3.9679,-3.9679,-3.9589,-3.9373,0.0,0.0,-0.7914,-0.7891,-0.8178,-0.8467,-0.8646,-0.8683,-0.8742,-0.8925,-0.954,-1.0582,-1.2145,-1.2965,-1.3709,-1.447,-1.5876,-1.7659,-1.99,-2.1502,-2.3327,-2.5541,-2.6353,-2.7131,-2.7858,-2.9345,-3.0123,-3.0123,-3.0852,-3.119,-3.119,-3.119,-3.119,-3.119,-3.119,-3.119,-3.119,-3.119,-3.119,-3.119,-3.119,-3.0784,-3.0097,-2.9748,-2.8687,-2.7415,-2.789,0.0,0.0,-2.439,-2.416,-2.3929,-2.3846,-2.4135,0.0,-2.5338,-2.6116,-2.7114,-2.8739,-3.2273,-3.6073,-3.8362,-4.2252,-4.5534,-4.5534,-4.6655,-4.7564,-4.6887,-4.7361,-4.7699,-4.6955,-4.7428,-4.7906,-4.7906,-4.8545,-4.9018,-4.9018,-4.8376,-4.7906,-4.7906,-4.7259,-4.7124,0.0,-4.8578,-4.9018,-4.9018,-4.9018,-4.9018,-4.9018,-4.9018,-4.9018,-4.9018,-4.9018,-4.9018,-4.9018,-4.9018,-4.9018,-4.9018,-4.8954,-4.8513,-4.7572,-4.5706,-4.5306,-4.6032,-4.4136,-4.3858,-4.4668,-4.3663,-4.3433,-4.3623,-4.2674,-4.1504,-4.0367,-4.0367,-3.9978,-3.9373,0.0,0.0,0.0,-0.8218,-0.8441,-0.8652,-0.8812,-0.884,-0.8858,-0.8908,-0.9952,0.0,0.0,0.0,0.0,0.0,-1.5842,-1.723,-1.8459,-2.0893,-2.2617,-2.3361,-2.5067,-2.6319,-2.7063,-2.806,-2.8856,-2.9364,-2.9619,-2.9754,-2.9754,-2.9754,-2.9754,-2.9754,-2.9754,-2.9754,-2.9754,-2.9754,-3.0006,-3.0446,-2.9958,-2.9871,-2.9973,-2.8832,-2.7469,-2.6052,0.0,0.0,-2.4622,-2.3815,-2.3673,-2.372,-2.348,0.0,0.0,-2.513,-2.686,-2.9111,-3.3106,0.0,-4.0121,-4.3369,-4.5669,-4.7293,-4.78,-4.7902,-4.7804,-4.7597,-4.6114,-4.4829,-4.4587,-4.4728,-4.5094,-4.5602,-4.7158,-4.8443,-4.8951,-4.8376,-4.7906,-4.7906,-4.7699,0.0,0.0,0.0,0.0,-4.8951,-4.9018,-4.9018,-4.9018,-4.9018,-4.9018,-4.9018,-4.9018,-4.9018,-4.9018,-4.9018,-4.9018,-4.9018,-4.9018,-4.8829,-4.8482,-4.7239,-4.6521,-4.6138,-4.4856,-4.4472,-4.4737,-4.3693,-4.3502,-4.3722,-4.2773,-4.1602,-4.0397,-4.0397,-3.9978,-3.9373,0.0,0.0,0.0,0.0,0.0,0.0,0.0,0.0,0.0,0.0,0.0,0.0,0.0,0.0,0.0,0.0,0.0,-1.6191,-1.7199,-1.9328,-2.1049,-2.2245,-2.341,-2.4492,-2.5507,-2.5981,-2.6623,-2.7385,-2.7656,-2.7927,-2.8197,-2.8197,-2.8197,-2.8197,-2.8197,-2.8315,-2.8552,-2.8299,-2.8586,-2.921,-2.8502,-2.8281,-2.8383,-2.7097,-2.5879,0.0,0.0,0.0,-2.391,-2.2623,-2.2528,-2.2972,-2.3153,-2.3906,-2.5054,-2.674,-2.8991,-3.2056,-3.7009,-4.0121,-4.2828,-4.6312,-4.7767,-4.8376,-4.8578,-4.821,-4.7699,-4.6887,-4.4553,-4.2557,-4.2286,-4.2016,-4.2185,-4.32,-4.5026,-4.6722,-4.8037,-4.7597,-4.7297,-4.7838,-4.7665,-4.7631,0.0,0.0,0.0,-4.8951,-4.9018,-4.9018,-4.9018,-4.9018,-4.9018,-4.9018,-4.9018,-4.9018,-4.9018,-4.9018,-4.9018,-4.9018,-4.8639,-4.8671,-4.8954,-4.7704,-4.6936,-4.6627,-4.5706,-4.53,-4.5227,-4.4243,-4.396,-4.4056,-4.3098,-4.2043,-4.1085,-4.0846,-4.0337,-3.9738,0.0,0.0,0.0,0.0,0.0,0.0,0.0,0.0,0.0,0.0,0.0,0.0,0.0,0.0,0.0,0.0,0.0,0.0,-1.6089,-1.6895,-1.8756,-2.1913,-2.1387,-2.1725,-2.3197,-2.3245,-2.3632,-2.4425,-2.5135,-2.5879,-2.6606,-2.6606,-2.6606,-2.6606,-2.6606,-2.6996,-2.7587,-2.6894,-2.6996,-2.7621,-2.6894,-2.6184,-2.5541,-2.4747,0.0,0.0,0.0,0.0,-2.2392,-2.1041,-2.1193,0.0,0.0,-2.5953,-2.8868,-3.0036,-3.251,-3.5791,-4.0121,-4.2489,-4.4356,-4.7229,-4.8477,-4.8781,-4.8041,-4.777,-4.7056,-4.4852,-4.2455,-4.0561,0.0,0.0,-3.9309,-4.0798,-4.2455,-4.4384,-4.6583,-4.6312,-4.6413,0.0,0.0,0.0,0.0,0.0,0.0,-4.8951,0.0,-4.9018,-4.9018,-4.9018,-4.9018,-4.9018,-4.9018,-4.9018,-4.9018,-4.9018,-4.9018,-4.9018,-4.8064,-4.8096,-4.8861,-4.7036,-4.6662,-4.7406,-4.6523,-4.6138,-4.6032,-4.5116,-4.4737,-4.4699,-4.3732,-4.298,-4.2321,-4.173,-4.107,-4.0307,0.0,0.0,0.0,0.0,0.0,0.0,0.0,0.0,0.0,0.0,0.0,0.0,0.0,0.0,0.0,0.0,0.0,0.0,-1.4645,-1.5671,-1.6973,-1.8502,-1.8746,-1.9492,-2.0904,-2.1205,-2.1982,-2.3294,-2.3744,-2.4323,-2.5049,-2.5049,-2.5049,-2.5049,-2.5049,-2.5185,-2.532,-2.5151,-2.5473,-2.61,0.0,-2.527,-2.5509,0.0,0.0,0.0,0.0,0.0,0.0,0.0,0.0,0.0,0.0,-3.0732,-3.2276,-3.376,0.0,-3.9986,-4.2252,-4.5162,-4.7767,-4.8545,-4.8477,-4.8108,-4.7939,-4.6148,-4.3944,-4.1704,-3.8125,-3.4844,0.0,0.0,0.0,-3.8497,-4.2794,0.0,-4.8206,-4.8274,0.0,-4.868,0.0,-4.8511,-4.8714,-4.8714,0.0,0.0,-4.9018,-4.9018,-4.9018,-4.9018,-4.9018,-4.9018,-4.9018,-4.9018,-4.9018,-4.9018,-4.9018,-4.9018,-4.8064,-4.7737,-4.7901,-4.673,-4.5957,-4.5488,-4.5264,-4.5153,-4.5079,-4.409,-4.409,-4.4774,-4.451,-4.3609,-4.2458,-4.3013,-4.1997,-4.0367,0.0,0.0,0.0,0.0,0.0,0.0,0.0,0.0,0.0,0.0,0.0,0.0,0.0,0.0,0.0,0.0,0.0,0.0,0.0,-1.4389,-1.5324,-1.6619,-1.6929,-1.7552,-1.8667,-1.9149,-1.9815,-2.0719,-2.134,-2.1864,-2.231,-2.2473,-2.253,-2.253,-2.253,-2.2714,-2.3018,-2.2665,0.0,0.0,0.0,0.0,0.0,0.0,0.0,0.0,0.0,0.0,0.0,0.0,0.0,-3.2046,-3.3634,-3.5419,-3.7295,-3.9034,0.0,-4.3978,-4.5466,-4.7631,-4.939,-4.9086,-4.8477,-4.7365,-4.5432,-4.3375,-4.0967,-3.7405,-3.3918,0.0,-2.9837,-3.1833,0.0,0.0,0.0,0.0,-4.7259,-4.7834,-4.8274,0.0,-4.9018,0.0,-4.9018,-4.9018,-4.9018,0.0,-4.9018,-4.9018,-4.9018,-4.9018,-4.9018,-4.9018,-4.9018,-4.9018,-4.9018,-4.9018,-4.9018,-4.8984,-4.8482,-4.8225,-4.8193,-4.7671,-4.7138,-4.6625,0.0,-4.5814,-4.5342,-4.4358,-4.4282,-4.4774,-4.4282,-4.4113,-4.3976,-4.34,-4.2663,-4.1748,0.0,0.0,0.0,0.0,0.0,0.0,0.0,0.0,0.0,0.0,0.0,0.0,0.0,0.0,0.0,0.0,0.0,0.0,0.0,0.0,0.0,-1.5613,-1.5583,-1.5918,-1.6728,-1.7313,-1.7677,-1.7823,0.0,0.0,-1.9505,0.0,0.0,0.0,0.0,0.0,0.0,0.0,0.0,0.0,0.0,0.0,0.0,0.0,0.0,0.0,0.0,0.0,0.0,0.0,-3.3582,-3.5901,-3.7353,-3.9961,-4.2821,-4.4531,-4.6075,-4.753,-4.8781,-4.9695,-5.0033,-4.9221,-4.8308,-4.6452,-4.2185,-4.0299,-3.8,-3.2801,0.0,-2.8468,-2.8163,-2.9653,-3.1698,-3.41,0.0,-4.232,-4.5534,-4.6549,-4.7462,-4.8849,-4.9018,-4.9018,-4.9018,-4.9018,-4.9018,-4.9018,-4.9018,-4.9018,-4.9018,-4.9018,-4.9018,-4.9018,-4.9018,-4.9018,-4.9018,-4.9018,-4.9018,-4.9018,-4.8861,-4.8829,-4.8829,-4.8829,-4.8767,-4.8576,0.0,0.0,-4.5925,-4.5005,-4.4662,-4.4737,-4.3974,-4.4713,-4.5968,-4.387,-4.3482,-4.3718,0.0,0.0,0.0,0.0,0.0,0.0,0.0,0.0,0.0,0.0,-1.2025,-1.1415,0.0,0.0,0.0,0.0,0.0,0.0,0.0,0.0,0.0,-1.442,-1.4271,-1.4723,-1.5952,-1.637,-1.686,0.0,0.0,0.0,0.0,0.0,0.0,0.0,0.0,0.0,0.0,0.0,0.0,0.0,0.0,0.0,0.0,0.0,0.0,0.0,0.0,0.0,0.0,0.0,-3.5098,-3.9329,-4.1394,-4.413,-4.6664,-4.7158,-4.8376,-4.956,-4.983,-5.0439,-5.071,-4.9357,-4.753,-4.5229,-4.1948,-3.87,0.0,0.0,-2.73,-2.5642,-2.3816,-2.6708,-3.0499,-3.3931,-3.8261,-4.2692,-4.6891,-4.7631,-4.8037,0.0,0.0,0.0,0.0,0.0,0.0,0.0,0.0,-4.9018,-4.9018,-4.9018,-4.9018,-4.9018,-4.9018,-4.9018,-4.9018,-4.9018,-4.9018,-4.8984,-4.8225,-4.7836,-4.7836,-4.7836,-4.7406,-4.6662,-4.6523,0.0,-4.4968,-4.3966,-4.4043,-4.4849,-4.5488,-4.5889,-4.6244,-4.6567,-4.5941,-4.4814,0.0,0.0,0.0,0.0,0.0,0.0,0.0,-1.1489,-1.23,-1.4542,-1.4479,-1.3818,-1.2764,-1.2393,-1.2086,0.0,0.0,0.0,0.0,0.0,0.0,0.0,0.0,-1.4274,-1.5245,0.0,0.0,0.0,0.0,0.0,0.0,0.0,0.0,0.0,0.0,0.0,0.0,0.0,0.0,0.0,0.0,0.0,0.0,0.0,0.0,0.0,0.0,0.0,0.0,0.0,-3.3554,-3.8919,-4.3013,-4.6135,-4.8363,-4.8877,-4.956,-5.0101,-5.0101,-5.0338,-5.027,-4.8815,-4.7056,-4.4316,-3.8937,0.0,0.0,0.0,-2.4375,-2.3564,-2.2482,-2.5304,0.0,-3.121,-3.5746,-4.0324,-4.4418,-4.6007,0.0,0.0,0.0,0.0,0.0,0.0,0.0,0.0,0.0,-4.9018,-4.9018,-4.9018,-4.9018,-4.9018,-4.9018,-4.9018,-4.9018,-4.9018,-4.9018,-4.8984,-4.8545,-4.8321,-4.8321,-4.8321,-4.8096,-4.7572,-4.6627,0.0,-4.5416,-4.3897,-4.4205,-4.5525,-4.5488,-4.6381,-4.7572,-4.707,-4.6707,-4.6218,0.0,0.0,0.0,0.0,0.0,0.0,0.0,-1.2828,-1.3813,-1.6317,-1.6789,-1.6197,-1.4461,-1.3326,-1.2425,0.0,0.0,0.0,0.0,0.0,0.0,0.0,0.0,0.0,0.0,0.0,0.0,0.0,0.0,0.0,0.0,0.0,0.0,0.0,0.0,0.0,0.0,0.0,0.0,0.0,0.0,0.0,0.0,0.0,0.0,0.0,0.0,0.0,0.0,0.0,-3.0791,-3.5734,-4.0929,-4.4837,-4.7603,-4.8243,-4.8748,-4.9255,-4.9729,-4.9965,-4.9729,-4.8274,-4.6684,-4.3538,-3.6163,-3.3241,0.0,0.0,-2.2313,-2.2313,-2.2313,-2.4323,-2.6657,0.0,-3.2699,-3.7168,-4.1644,-4.3978,0.0,0.0,0.0,0.0,0.0,0.0,0.0,0.0,0.0,0.0,-4.9018,-4.9018,-4.9018,-4.9018,-4.9018,-4.8987,-4.8956,-4.8956,-4.8956,-4.8892,-4.8892,-4.8892,-4.8892,-4.8829,-4.8798,-4.8673,-4.69,0.0,0.0,-4.4167,-4.4479,-4.6028,-4.5374,-4.6625,-4.8673,-4.7205,-4.7172,-4.7506,0.0,0.0,0.0,0.0,0.0,0.0,0.0,-1.3509,-1.5124,-1.8302,-1.7968,-1.7095,-1.6256,-1.4971,-1.3543,0.0,0.0,0.0,0.0,0.0,0.0,0.0,0.0,0.0,0.0,0.0,0.0,0.0,0.0,0.0,0.0,0.0,0.0,0.0,0.0,0.0,0.0,0.0,0.0,0.0,0.0,0.0,0.0,0.0,0.0,0.0,0.0,0.0,0.0,0.0,0.0,-2.9184,-3.2476,-3.7828,-4.293,-4.3,0.0,0.0,-4.8545,-4.9593,-4.9729,-4.8274,-4.6278,-4.2922,-3.6062,0.0,0.0,-2.353,-2.2313,-2.2313,-2.2313,-2.3071,-2.488,-2.8434,0.0,-3.4167,-4.1305,-4.3064,0.0,0.0,0.0,0.0,0.0,0.0,0.0,0.0,0.0,0.0,-4.9018,-4.9018,-4.9018,-4.9018,-4.9018,-4.8956,-4.8801,-4.8801,-4.8738,-4.8547,-4.8547,-4.8547,-4.8547,-4.8356,-4.8162,-4.7934,-4.662,0.0,0.0,-4.4381,-4.4655,-4.5769,-4.5989,-4.6967,-4.8292,-4.8258,-4.8322,-4.8186,0.0,0.0,0.0,0.0,0.0,0.0,-1.2566,-1.3538,-1.5045,-1.7832,-1.8137,-1.7708,-1.6693,-1.5967,-1.4514,-1.2016,0.0,0.0,0.0,0.0,0.0,0.0,0.0,0.0,0.0,0.0,0.0,0.0,0.0,0.0,0.0,0.0,0.0,0.0,0.0,0.0,0.0,0.0,0.0,0.0,0.0,0.0,0.0,0.0,0.0,0.0,0.0,0.0,0.0,0.0,0.0,0.0,-2.6826,-2.9992,0.0,0.0,-4.188,-4.4248,-4.6921,-4.8545,-4.9086,-4.7597,-4.4891,-4.1035,-3.5182,0.0,-2.7858,-2.326,-2.2313,-2.2313,-2.2313,-2.255,-2.3376,-2.5304,-2.686,-2.9634,-3.4878,-3.7821,0.0,0.0,0.0,0.0,0.0,0.0,0.0,0.0,0.0,0.0,-4.9018,-4.9018,-4.9018,-4.9018,-4.8925,-4.8863,-4.8801,-4.8675,-4.8515,-4.8324,-4.8324,-4.8227,-4.8033,-4.7935,-4.7704,-4.7338,-4.6269,0.0,0.0,-4.4343,-4.4579,-4.5551,-4.5805,-4.6724,-4.7902,-4.8,-4.8098,-4.7995,0.0,0.0,0.0,0.0,0.0,-1.0414,-1.256,-1.3531,-1.4952,-1.7486,-1.8021,-1.7842,-1.692,-1.6135,-1.4767,-1.2539,-1.2344,0.0,0.0,0.0,0.0,0.0,0.0,0.0,0.0,0.0,0.0,0.0,0.0,0.0,0.0,0.0,0.0,0.0,0.0,0.0,0.0,0.0,0.0,0.0,0.0,0.0,0.0,0.0,0.0,0.0,0.0,0.0,0.0,0.0,0.0,0.0,0.0,0.0,0.0,0.0,-3.8227,-4.1035,-4.4248,-4.6549,-4.7733,-4.6447,-4.347,-3.9512,0.0,-3.0326,-2.6742,-2.3057,-2.2313,-2.2313,-2.2313,-2.2313,-2.255,-2.3274,-2.4628,-2.6996,-3.0987,-3.4167,0.0,0.0,0.0,0.0,0.0,0.0,0.0,0.0,0.0,0.0,0.0,-4.9018,-4.8987,-4.8956,-4.8832,-4.8707,-4.8549,-4.842,-4.8195,-4.7902,-4.7902,-4.7737,-4.737,-4.7236,-4.6997,-4.655,0.0,0.0,0.0,-4.4189,-4.4458,-4.5216,-4.5442,-4.6234,-4.727,-4.7337,-4.7406,-4.7243,0.0,0.0,0.0,0.0,0.0,0.0,-1.2495,-1.357,-1.5056,-1.773,-1.7768,-1.74,-1.712,-1.531,-1.3999,-1.3725,-1.3011,0.0,0.0,0.0,0.0,0.0,0.0,0.0,0.0,0.0,0.0,-1.7909,0.0,0.0,0.0,0.0,0.0,0.0,0.0,0.0,0.0,0.0,0.0,0.0,0.0,0.0,0.0,0.0,0.0,0.0,0.0,0.0,0.0,0.0,0.0,0.0,0.0,0.0,0.0,0.0,-3.2793,-3.6479,-4.0257,-4.347,-4.5568,-4.4818,-4.2347,-3.8759,-3.3512,-2.9973,-2.6742,-2.3057,-2.2313,-2.2313,-2.2313,-2.2313,-2.255,-2.3274,-2.4628,-2.7148,-3.1678,-3.3592,0.0,0.0,0.0,0.0,0.0,0.0,0.0,0.0,0.0,0.0,0.0,-4.9018,-4.8956,-4.8801,-4.8801,-4.8549,-4.8001,-4.8001,-4.7737,-4.7201,-4.7201,-4.6996,-4.6582,-4.6198,-4.5805,0.0,0.0,0.0,0.0,-4.3988,-4.4258,-4.4648,-4.4993,-4.5588,-4.6337,-4.6547,-4.6405,-4.5994,0.0,0.0,0.0,0.0,0.0,0.0,0.0,-1.2727,-1.3935,-1.6007,-1.5969,-1.5928,-1.6307,-1.5176,-1.4274,-1.4009,-1.3305,0.0,0.0,0.0,0.0,0.0,0.0,0.0,0.0,0.0,-1.8351,-1.8587,-1.9174,-1.9563,0.0,0.0,0.0,0.0,0.0,0.0,0.0,0.0,0.0,0.0,0.0,0.0,0.0,0.0,0.0,0.0,0.0,0.0,0.0,0.0,0.0,0.0,0.0,0.0,0.0,-2.4966,-2.889,0.0,-3.5284,-3.7686,-3.9309,-3.8014,-3.5453,-3.2577,-2.9837,-2.6928,-2.4323,-2.2651,-2.2313,-2.2313,-2.2313,-2.2313,-2.2854,-2.4628,-2.5304,0.0,0.0,0.0,0.0,0.0,0.0,0.0,0.0,0.0,0.0,0.0,0.0,0.0,0.0,-4.9018,-4.8956,-4.8801,-4.8675,-4.8388,-4.8001,-4.7737,-4.7303,-4.6789,-4.6512,-4.6124,-4.5619,-4.5295,0.0,0.0,0.0,0.0,0.0,-4.3069,-4.3366,-4.3579,-4.4273,-4.4955,-4.5546,-4.5619,-4.55,-4.525,0.0,0.0,0.0,0.0,0.0,0.0,0.0,-1.1594,-1.2537,-1.4219,-1.4261,-1.45,-1.5454,-1.4666,-1.4084,-1.4093,-1.3766,0.0,0.0,0.0,0.0,0.0,0.0,0.0,0.0,-1.8272,-1.9101,-1.9301,-2.0459,-2.0941,-2.0781,-2.0376,-1.9765,0.0,0.0,0.0,0.0,0.0,0.0,0.0,0.0,0.0,0.0,0.0,0.0,0.0,0.0,0.0,0.0,0.0,0.0,0.0,0.0,0.0,0.0,0.0,-2.5473,-2.8755,0.0,-3.341,-3.4866,-3.3918,-3.1664,-2.9296,-2.774,-2.5304,-2.3207,-2.2448,-2.2313,-2.2313,-2.2313,-2.2313,-2.2753,-2.4139,-2.4831,0.0,0.0,0.0,0.0,0.0,0.0,0.0,0.0,0.0,0.0,0.0,0.0,0.0,0.0,-4.9018,-4.8925,-4.8707,-4.8483,-4.8163,-4.7704,-4.727,-4.6791,-4.6159,-4.5873,-4.54,-4.4836,-4.4617,0.0,0.0,0.0,0.0,0.0,-4.2176,-4.244,-4.2576,-4.3085,-4.3768,-4.4471,-4.4266,-4.4257,-4.4176,0.0,0.0,0.0,0.0,0.0,0.0,0.0,-1.0401,-1.1038,-1.2574,-1.2741,-1.3201,-1.4546,-1.3931,-1.3598,-1.4013,0.0,0.0,0.0,0.0,0.0,0.0,0.0,0.0,0.0,-1.9224,-2.0002,-2.0002,-2.1853,-2.2383,-2.168,-2.1638,-2.0867,-1.9525,0.0,0.0,0.0,0.0,0.0,0.0,0.0,0.0,0.0,0.0,0.0,0.0,0.0,0.0,0.0,0.0,0.0,0.0,0.0,0.0,0.0,0.0,0.0,0.0,0.0,-3.0059,-3.165,-3.1616,-3.0025,-2.8163,-2.6691,-2.4797,0.0,-2.2448,-2.2313,-2.2313,-2.2462,-2.2381,-2.2415,-2.2719,-2.3883,0.0,0.0,0.0,0.0,0.0,0.0,0.0,0.0,0.0,0.0,0.0,0.0,0.0,0.0,-4.9018,-4.8829,-4.8515,-4.8292,-4.7869,-4.7233,-4.6756,-4.6195,-4.5468,-4.5247,-4.4799,-4.4258,-4.4065,0.0,0.0,0.0,0.0,0.0,-4.1294,-4.1445,-4.1595,-4.1656,-4.2311,-4.3135,-4.2738,-4.2788,-4.2922,0.0,0.0,0.0,0.0,0.0,0.0,0.0,0.0,0.0,0.0,-1.2661,-1.2948,-1.3649,-1.354,-1.3455,0.0,0.0,0.0,0.0,0.0,0.0,0.0,0.0,0.0,0.0,-1.9114,-2.0002,-2.0002,-2.2161,-2.2957,-2.2435,-2.2646,-2.2086,-2.094,-1.9909,-1.8822,0.0,0.0,0.0,0.0,0.0,0.0,0.0,0.0,0.0,0.0,0.0,-2.1461,0.0,0.0,0.0,0.0,0.0,0.0,0.0,0.0,-2.2415,-2.2767,-2.3632,0.0,-2.5354,-2.4797,-2.4255,-2.3782,0.0,-2.2922,-2.253,-2.2347,-2.2313,-2.2617,-2.3763,-2.3071,-2.3429,-2.6877,0.0,0.0,0.0,0.0,0.0,0.0,0.0,0.0,0.0,0.0,0.0,0.0,0.0,0.0,0.0,-4.9018,-4.8829,-4.8515,-4.8228,-4.777,-4.7233,-4.6512,-4.5837,-4.5247,-4.461,-4.4143,-4.3832,-4.3596,0.0,0.0,0.0,0.0,-3.9918,-4.0427,-4.0673,-4.074,-4.125,-4.1739,-4.2145,-4.2546,-4.2365,-4.1939,0.0,0.0,0.0,0.0,0.0,0.0,0.0,0.0,0.0,0.0,0.0,-1.2798,-1.3336,-1.3413,0.0,0.0,0.0,0.0,0.0,0.0,0.0,0.0,0.0,0.0,-1.8033,-1.9319,-2.0183,-2.0555,-2.2801,-2.3609,-2.3027,-2.3325,-2.2872,-2.1708,-2.032,-1.9301,0.0,0.0,0.0,0.0,0.0,0.0,0.0,0.0,0.0,0.0,-2.1055,-2.119,0.0,-2.2057,-2.2313,-2.2313,0.0,0.0,0.0,0.0,-2.2313,-2.2313,-2.2313,-2.2835,-2.3308,-2.2902,-2.2801,-2.2801,-2.2801,-2.255,-2.2313,-2.2313,-2.2313,-2.2665,-2.3797,-2.4154,-2.5,0.0,-2.9093,0.0,0.0,0.0,0.0,0.0,0.0,0.0,0.0,0.0,0.0,0.0,0.0,0.0,0.0,-4.9018,-4.8829,-4.8515,-4.8065,-4.7538,-4.6927,-4.6159,-4.5437,-4.4761,-4.4181,-4.3754,-4.3518,-4.3369,-4.2791,0.0,0.0,0.0,-3.9858,-3.9918,-3.9948,-3.9978,-4.0337,-4.074,-4.1122,-4.1257,-4.1418,-4.1553,0.0,0.0,0.0,0.0,0.0,0.0,0.0,0.0,0.0,0.0,0.0,0.0,0.0,0.0,0.0,0.0,0.0,0.0,0.0,0.0,0.0,0.0,0.0,-1.8166,-1.8877,-1.9608,-2.0386,-2.119,-2.3526,-2.4305,-2.3579,-2.4115,-2.3586,-2.2075,-2.0439,-1.9708,0.0,0.0,0.0,0.0,0.0,0.0,0.0,0.0,0.0,0.0,0.0,0.0,0.0,-2.1854,-2.2124,-2.2144,-2.2245,0.0,0.0,0.0,0.0,0.0,-2.255,-2.3342,-2.3951,-2.3376,-2.3308,-2.3376,-2.3241,-2.2767,-2.2313,-2.2313,-2.2381,-2.2801,0.0,-2.5507,0.0,0.0,0.0,0.0,0.0,0.0,0.0,0.0,0.0,0.0,0.0,0.0,0.0,0.0,0.0,0.0,0.0,-4.9018,-4.8829,-4.8515,-4.7968,-4.7303,-4.6512,-4.5697,-4.4993,-4.4266,-4.3832,-4.3518,-4.329,-4.329,-4.297,0.0,0.0,0.0,-4.0367,-3.9798,-3.9499,-3.9373,-3.9373,-3.9768,-4.0187,-3.992,-4.0474,-4.1271,0.0,0.0,0.0,0.0,0.0,0.0,0.0,0.0,0.0,0.0,0.0,0.0,0.0,0.0,0.0,0.0,0.0,0.0,0.0,0.0,0.0,0.0,-1.7783,-1.8166,-1.8877,-1.9608,-2.0386,-2.119,-2.4052,-2.5033,-2.4357,-2.5893,-2.5102,-2.2256,-2.0491,-1.9708,-1.9708,0.0,0.0,0.0,0.0,0.0,0.0,0.0,0.0,0.0,0.0,0.0,0.0,-2.0886,-2.136,-2.1495,-2.209,0.0,0.0,0.0,0.0,0.0,-2.3831,-2.5609,-2.637,-2.326,-2.2936,-2.3241,-2.2632,-2.2381,-2.2313,0.0,0.0,0.0,0.0,-2.6894,-2.7909,0.0,0.0,0.0,0.0,0.0,0.0,0.0,0.0,0.0,0.0,0.0,0.0,0.0,0.0,0.0,0.0,-4.9018,-4.8829,-4.8515,-4.7968,-4.7168,-4.6092,-4.5295,-4.4692,-4.4266,-4.3645,-4.3329,-4.329,-4.329,-4.297,0.0,0.0,-4.1534,-4.0397,-4.0277,-3.9918,-3.9373,-3.9373,-3.9433,-3.9619,-4.0104,-4.0154,-4.0004,0.0,0.0,0.0,0.0,0.0,0.0,0.0,0.0,0.0,0.0,0.0,0.0,0.0,0.0,0.0,0.0,0.0,0.0,0.0,0.0,0.0,-1.8369,-1.8563,-1.8905,-1.9486,-2.0657,-2.1806,-2.2984,-2.5135,-2.6015,-2.5676,-2.5478,-2.4372,-2.2482,-2.1038,-2.0244,-2.0019,-2.0019,0.0,0.0,0.0,0.0,0.0,0.0,0.0,0.0,0.0,0.0,0.0,0.0,-2.0839,-2.1258,-2.1597,0.0,0.0,0.0,0.0,0.0,-2.3139,-2.4357,-2.5304,-2.4797,-2.6454,-2.8028,-2.7266,-2.7097,-2.6894,0.0,0.0,0.0,0.0,0.0,-3.278,-3.8497,0.0,0.0,0.0,0.0,0.0,0.0,0.0,0.0,0.0,0.0,0.0,0.0,0.0,0.0,0.0,0.0,-4.8798,-4.8356,-4.7836,-4.6997,-4.5841,-4.5104,-4.4458,-4.3988,-4.3527,-4.329,-4.329,-4.329,-4.314,-4.288,0.0,-4.2051,-4.1414,-4.0696,-4.0217,-3.9918,-3.9559,-3.9373,-3.9499,-4.0157,-4.0014,-3.9673,0.0,0.0,0.0,0.0,0.0,0.0,0.0,0.0,0.0,0.0,0.0,0.0,0.0,0.0,0.0,0.0,0.0,0.0,0.0,0.0,-1.7365,-1.8855,-1.9395,-1.9958,-2.0641,-2.182,-2.3215,-2.4899,-2.6114,-2.6793,-2.6911,-2.488,-2.3572,-2.2913,-2.1585,-2.0797,-2.0482,-2.0333,-2.0124,0.0,0.0,0.0,0.0,0.0,0.0,0.0,0.0,0.0,0.0,0.0,0.0,0.0,0.0,0.0,0.0,-2.2313,-2.2313,-2.2381,-2.2733,-2.3477,-2.4628,-2.6488,-2.8604,-3.0431,-3.1278,-3.1055,-3.0635,-3.033,0.0,0.0,0.0,-3.3829,0.0,-4.3159,0.0,0.0,0.0,0.0,0.0,0.0,0.0,0.0,0.0,0.0,0.0,0.0,0.0,0.0,0.0,0.0,-4.8736,-4.8227,-4.7671,-4.6828,-4.5624,-4.4918,-4.4297,-4.3675,-4.3438,-4.329,-4.329,-4.329,-4.329,-4.326,-4.2791,-4.253,-4.2321,-4.1265,-4.0666,-4.0337,-3.9858,-3.9559,-3.9433,-3.9978,-3.9948,-3.9798,0.0,0.0,0.0,0.0,0.0,0.0,0.0,0.0,0.0,0.0,0.0,0.0,0.0,0.0,0.0,0.0,0.0,0.0,0.0,0.0,-1.7365,-1.8855,-1.9889,-2.1114,-2.2551,-2.266,-2.3777,-2.6061,-2.6498,-2.7063,-2.7671,-2.5113,-2.3869,-2.372,-2.1827,-2.0975,-2.0926,-2.0467,-2.0265,-2.0278,0.0,0.0,0.0,0.0,0.0,0.0,0.0,0.0,0.0,0.0,0.0,0.0,0.0,0.0,-2.2313,-2.2313,-2.2313,-2.2598,-2.3966,-2.5388,-2.6657,-2.7519,-2.5879,-2.5489,-3.0973,-3.0635,-3.0093,-3.3444,-3.4641,0.0,0.0,-3.7662,-4.0299,0.0,0.0,0.0,0.0,0.0,0.0,0.0,0.0,0.0,0.0,0.0,0.0,0.0,0.0,0.0,0.0,0.0,0.0,-4.8227,-4.7671,-4.6759,-4.5442,-4.488,-4.4297,-4.3675,-4.3438,-4.329,-4.329,-4.329,-4.329,-4.329,-4.323,-4.291,-4.2381,-4.2291,-4.1542,-4.0397,-4.0337,-3.9948,-3.9439,-3.9433,-3.9858,-4.0337,0.0,0.0,0.0,0.0,0.0,0.0,0.0,0.0,0.0,0.0,0.0,0.0,0.0,0.0,0.0,0.0,0.0,0.0,0.0,0.0,-1.6891,-1.8821,-1.9923,-2.1104,-2.233,-2.3736,-2.5254,-2.6903,-2.6736,-2.6707,-2.6698,-2.456,-2.343,-2.3109,-2.2213,-2.1645,-2.1353,-2.0926,-2.0747,-2.0698,-2.0141,0.0,0.0,0.0,0.0,0.0,0.0,0.0,0.0,0.0,-1.9237,-2.0002,-2.0162,-2.1177,-2.2212,-2.1752,-2.163,-2.1833,-2.2868,-2.4864,-2.686,-2.7621,-2.7689,-2.889,-3.3952,-3.517,-3.5723,-3.7618,-3.8937,0.0,0.0,0.0,0.0,0.0,0.0,0.0,0.0,0.0,0.0,0.0,0.0,0.0,0.0,0.0,0.0,0.0,0.0,0.0,0.0,0.0,0.0,-4.8099,-4.7638,-4.6689,-4.5221,-4.4403,-4.3617,-4.2887,-4.3189,-4.329,-4.329,-4.329,-4.329,-4.329,-4.329,-4.314,-4.294,-4.256,-4.2111,-4.1572,-4.0726,-4.0008,-3.9373,-3.9373,-3.9589,-3.9858,0.0,0.0,0.0,0.0,0.0,0.0,0.0,0.0,0.0,0.0,0.0,0.0,0.0,0.0,0.0,0.0,0.0,0.0,-1.5221,-1.5516,-1.6576,-1.8821,-1.9694,-2.0893,-2.2431,-2.41,-2.5641,-2.7093,-2.6819,-2.632,-2.5563,-2.4099,-2.3343,-2.3232,-2.2584,-2.2238,-2.2141,-2.1466,-2.1181,-2.1118,-2.0227,-1.9687,0.0,0.0,0.0,0.0,0.0,0.0,0.0,0.0,-1.8831,-1.9642,-1.9621,-2.0703,-2.1887,-2.163,-2.2023,-2.2699,-2.3207,-2.4831,-2.6691,-2.8162,-2.9142,-3.1157,-3.6626,-3.8285,-3.9343,-4.1745,-4.2658,-4.2719,-4.1704,0.0,0.0,0.0,0.0,0.0,0.0,0.0,0.0,0.0,0.0,0.0,0.0,0.0,0.0,0.0,0.0,0.0,0.0,0.0,0.0,0.0,-4.7605,-4.6655,-4.511,-4.4304,-4.3396,-4.241,-4.2821,-4.291,-4.2701,-4.2701,-4.2701,-4.2701,-4.2701,-4.2701,-4.2671,-4.2222,-4.1961,-4.1662,-4.0516,-3.9798,-3.9373,-3.9373,-3.9373,-3.9529,0.0,0.0,0.0,0.0,0.0,0.0,0.0,0.0,0.0,0.0,0.0,0.0,0.0,0.0,0.0,0.0,0.0,0.0,-1.4713,-1.5311,-1.6576,-1.8775,-1.9223,-2.0611,-2.3211,-2.361,-2.4717,-2.6577,-2.6642,-2.5929,-2.4474,-2.3748,-2.3797,-2.4406,-2.297,-2.2699,-2.3313,-2.2107,-2.1597,-2.1521,-2.065,-1.9943,0.0,0.0,0.0,0.0,0.0,0.0,0.0,0.0,-1.8877,-1.9159,-2.0716,-2.119,-2.136,-2.209,-2.3834,-2.5575,-2.5575,-2.5592,-2.6336,-2.9364,-2.96,-3.1041,-3.842,-3.8971,-3.9648,-4.5602,-4.5635,-4.4615,-4.4615,-4.4615,0.0,0.0,0.0,0.0,0.0,0.0,0.0,0.0,0.0,0.0,0.0,0.0,0.0,0.0,0.0,0.0,0.0,0.0,0.0,0.0,-4.7605,-4.6655,-4.511,-4.4768,-4.3854,-4.2381,-4.2381,-4.2051,-4.1422,-4.1422,-4.1422,-4.1422,-4.1422,-4.1422,-4.1422,-4.1422,-4.0995,-4.0337,-3.9679,-3.9439,-3.9373,-3.9373,-3.9373,-3.9463,0.0,0.0,0.0,0.0,0.0,0.0,0.0,0.0,0.0,0.0,0.0,0.0,0.0,0.0,0.0,0.0,0.0,0.0,-1.5241,-1.5526,-1.6373,-1.8065,-1.9209,-2.0154,-2.0834,-2.2465,-2.4135,-2.5826,-2.5365,-2.4503,-2.325,-2.3358,-2.3059,-2.247,-2.2887,-2.2902,-2.2569,-2.1908,-2.1794,-2.1988,-2.0781,-2.0572,0.0,0.0,0.0,0.0,0.0,0.0,0.0,0.0,0.0,0.0,-1.943,-2.067,-2.1921,-2.163,-2.2361,-2.326,-2.326,-2.5964,-2.8856,-2.9228,-3.3106,-3.754,-4.0257,-4.0933,0.0,0.0,-4.6752,-4.5365,-4.5365,0.0,0.0,0.0,0.0,0.0,0.0,0.0,0.0,0.0,0.0,0.0,0.0,0.0,0.0,0.0,0.0,0.0,0.0,0.0,0.0,0.0,-4.7638,-4.6793,-4.5551,-4.4452,-4.3227,-4.1919,-4.128,-4.1115,-4.1422,-4.1422,-4.1422,-4.1422,-4.1422,-4.1422,-4.1422,-4.1422,-4.0995,-4.0367,-4.0187,-3.9828,-3.9373,-3.9373,-3.9373,-3.9439,0.0,0.0,0.0,0.0,0.0,0.0,0.0,0.0,0.0,0.0,0.0,0.0,0.0,0.0,0.0,0.0,0.0,0.0,0.0,-1.5775,-1.655,-1.8155,-1.9101,-1.9934,-2.0707,-2.2588,-2.3919,-2.4605,-2.4245,-2.3542,-2.2563,-2.3137,-2.3156,-2.2763,-2.3523,-2.3594,-2.3124,-2.2553,-2.2314,-2.2209,-2.1228,-2.1023,-2.1144,0.0,0.0,0.0,0.0,0.0,0.0,0.0,0.0,0.0,-1.8773,-1.9824,-2.1177,-2.2206,-2.3038,-2.4071,-2.6133,-2.8789,-3.136,-3.3004,-3.6795,-4.0756,-4.3301,0.0,0.0,0.0,-4.7733,-4.6684,-4.6955,0.0,0.0,0.0,0.0,0.0,0.0,0.0,0.0,0.0,0.0,0.0,0.0,0.0,0.0,0.0,0.0,0.0,0.0,0.0,0.0,0.0,-4.777,-4.6931,-4.5697,-4.4625,-4.3278,-4.1693,-4.1078,-4.0726,-4.0606,-4.0606,-4.0606,-4.0606,-4.0606,-4.0606,-4.0606,-4.0606,-4.0367,-4.0008,-4.0008,-3.9768,-3.9373,-3.9373,-3.9373,-3.9373,0.0,0.0,0.0,0.0,0.0,0.0,0.0,0.0,0.0,0.0,0.0,0.0,0.0,0.0,0.0,0.0,0.0,0.0,0.0,0.0,-1.6996,-1.8831,-1.9048,-2.0084,-2.2115,-2.3507,-2.3848,-2.3153,-2.335,-2.3033,-2.2313,-2.3105,-2.3831,-2.4406,-2.4474,-2.4474,-2.4338,-2.3613,-2.2873,-2.2194,-2.1779,-2.1384,-2.0894,-1.9452,0.0,0.0,0.0,0.0,0.0,0.0,0.0,0.0,-1.8557,-1.8944,-1.9701,-2.3187,-2.4864,-2.664,-3.1495,-3.2645,-3.3715,-3.8759,-4.0417,0.0,-4.6921,-4.7973,-4.8176,-4.8849,0.0,-4.821,-4.8883,0.0,0.0,0.0,0.0,0.0,0.0,0.0,0.0,0.0,0.0,0.0,0.0,0.0,0.0,0.0,0.0,0.0,0.0,0.0,0.0,-4.8227,-4.7902,-4.71,-4.5805,-4.5085,-4.3765,0.0,-4.1505,-4.0703,-3.9499,-3.9439,-3.9373,-3.9373,-3.9373,-3.9373,-3.9373,-3.9373,-3.9373,-3.9373,-3.9373,-3.9373,-3.9373,-3.9373,-3.9373,-3.9373,0.0,0.0,0.0,0.0,0.0,0.0,0.0,0.0,0.0,0.0,0.0,0.0,0.0,0.0,0.0,0.0,0.0,0.0,0.0,0.0,-1.6996,-1.8831,-2.0264,-2.1505,-2.2531,-2.3128,-2.3233,-2.281,-2.3473,-2.3288,-2.2313,-2.3661,-2.4034,-2.3661,-2.4237,-2.4169,-2.3594,-2.2868,-2.2243,-2.1749,-2.1627,-2.1536,-2.1266,-1.9555,-1.9191,0.0,0.0,0.0,0.0,0.0,0.0,0.0,-1.8628,-1.9316,-2.0048,-2.1495,-2.3646,-2.5981,-2.7672,-3.1021,-3.4866,-3.8362,-4.276,-4.6684,-4.8376,-4.8781,-4.8815,-4.8984,-4.8883,-4.8815,0.0,0.0,0.0,0.0,0.0,0.0,0.0,0.0,0.0,0.0,0.0,0.0,0.0,0.0,0.0,0.0,0.0,0.0,0.0,0.0,0.0,-4.8452,-4.7968,-4.727,-4.6407,-4.498,-4.3809,0.0,-4.1533,-4.0604,-4.0157,-3.9649,-3.9373,-3.9373,-3.9373,-3.9373,-3.9373,-3.9373,-3.9373,-3.9373,-3.9373,-3.9373,-3.9373,-3.9373,-3.9373,-3.9373,0.0,0.0,0.0,0.0,0.0,0.0,0.0,0.0,0.0,0.0,0.0,0.0,0.0,0.0,0.0,0.0,0.0,0.0,0.0,0.0,-1.7117,-1.9115,-2.0616,-2.1707,-2.2338,-2.2553,-2.2553,-2.235,-2.2793,-2.292,-2.2868,-2.3966,-2.4474,-2.4458,-2.4864,-2.4609,-2.3898,-2.3139,-2.2469,-2.1945,-2.1945,-2.1507,-2.0734,-1.9783,-1.9023,-1.8322,-1.758,0.0,0.0,0.0,0.0,0.0,0.0,0.0,-1.9304,-2.1177,-2.2564,-2.4357,-2.8333,-3.1887,0.0,-4.1339,0.0,-4.7665,-4.8748,-4.9018,-4.9018,-4.9018,-4.9018,0.0,0.0,0.0,0.0,0.0,0.0,0.0,0.0,0.0,0.0,0.0,0.0,0.0,0.0,0.0,0.0,0.0,0.0,0.0,0.0,-4.9018,-4.8695,-4.8013,-4.7568,-4.6749,-4.5584,-4.4369,-4.3314,-4.242,-4.1576,-4.0882,-4.0367,-3.9709,-3.9373,-3.9373,-3.9373,-3.9373,-3.9373,-3.9373,-3.9373,-3.9373,-3.9373,-3.9373,-3.9373,-3.9373,-3.9373,-3.9373,0.0,0.0,0.0,0.0,0.0,0.0,0.0,0.0,0.0,0.0,0.0,0.0,0.0,0.0,0.0,0.0,0.0,0.0,0.0,-1.6312,-1.753,-1.9234,-2.0377,-2.1199,-2.1639,-2.1697,-2.1767,-2.185,-2.1965,-2.2693,-2.3985,-2.4338,-2.488,-2.5592,-2.5473,-2.5067,-2.444,-2.3458,-2.2637,-2.1992,-2.1858,-2.1036,-1.9857,-1.9717,-1.8529,-1.7011,-1.7216,-1.6914,-1.6503,-1.7163,0.0,0.0,0.0,0.0,-1.8324,-2.0927,-2.1651,-2.2951,-2.9247,-3.3004,-3.6874,-4.435,-4.6583,0.0,-4.8545,-4.8917,-4.9018,-4.9018,0.0,0.0,0.0,0.0,0.0,0.0,0.0,0.0,0.0,0.0,0.0,0.0,0.0,0.0,0.0,0.0,0.0,0.0,0.0,0.0,-4.9018,-4.9018,-4.8526,-4.7445,-4.7098,-4.6158,-4.4589,-4.3685,-4.2743,-4.1709,-4.162,-4.1122,-4.0367,-3.9709,-3.9373,-3.9373,-3.9373,-3.9373,-3.9373,-3.9373,-3.9373,-3.9373,-3.9373,-3.9373,-3.9373,-3.9373,-3.9373,-3.9373,0.0,0.0,0.0,0.0,0.0,0.0,0.0,0.0,0.0,0.0,-1.3787,-1.3989,-1.3851,-1.3753,0.0,0.0,0.0,0.0,-1.6408,0.0,0.0,-1.8541,-1.958,-2.0187,-2.0275,-2.0545,-2.0903,-2.1322,-2.1849,-2.3519,-2.6218,-2.5049,-2.488,-2.5575,-2.4948,-2.4575,-2.4372,-2.2341,-2.1203,-2.0695,-2.0108,-1.9728,-1.9399,-1.85,-1.8175,-1.8104,-1.7511,-1.7064,-1.6857,-1.7519,-1.7521,0.0,0.0,0.0,0.0,-1.9046,-2.1143,-2.3444,-2.5083,0.0,-3.8497,0.0,-4.5809,-4.7804,0.0,0.0,-4.9018,0.0,0.0,0.0,0.0,0.0,0.0,0.0,0.0,0.0,0.0,0.0,0.0,0.0,0.0,0.0,0.0,0.0,0.0,0.0,0.0,0.0,-4.9018,-4.9018,-4.8526,-4.7445,-4.7098,-4.6223,-4.4754,-4.3446,-4.2768,-4.2602,-4.1389,-4.0708,-4.0367,-3.9709,-3.9373,-3.9373,-3.9373,-3.9373,-3.9373,-3.9373,-3.9373,-3.9373,-3.9373,-3.9373,-3.9373,-3.9373,-3.9373,-3.9373,0.0,0.0,0.0,0.0,0.0,0.0,0.0,0.0,0.0,0.0,0.0,-1.4356,-1.3971,-1.4261,0.0,0.0,0.0,0.0,-1.6675,-1.7367,0.0,0.0,-1.9043,-1.9457,-1.9612,-1.974,-2.0119,-2.0741,-2.0616,-2.2423,-2.6082,-2.5406,-2.6184,-2.8044,-2.6454,-2.5523,-2.4932,-2.2307,-2.1063,-2.0846,-2.0077,-2.0669,-2.169,-1.9151,-1.907,-2.0006,-1.7798,-1.6914,-1.685,-1.7356,-1.7811,-1.816,-1.7884,0.0,0.0,0.0,-1.9519,-2.1867,-2.642,-3.1732,-3.7178,0.0,-4.439,-4.5708,-4.6989,0.0,0.0,0.0,0.0,0.0,0.0,0.0,0.0,0.0,0.0,0.0,0.0,0.0,0.0,0.0,0.0,0.0,0.0,0.0,0.0,0.0,0.0,-4.9018,-4.9018,-4.9018,-4.8324,-4.6809,-4.6466,-4.5432,-4.3589,-4.2586,-4.2006,-4.1884,-4.1176,-4.0764,-4.0551,-4.0134,-3.9768,-3.9373,-3.9373,-3.9373,-3.9373,-3.9373,-3.9373,-3.9373,-3.9373,-3.9373,-3.9373,-3.9373,-3.9373,-3.9373,0.0,0.0,0.0,0.0,0.0,0.0,0.0,0.0,0.0,0.0,0.0,0.0,-1.4325,0.0,0.0,0.0,0.0,0.0,-1.6625,0.0,0.0,0.0,0.0,-1.8711,-1.8925,-1.8936,-1.9269,-2.0025,-1.9728,-2.1751,-2.5879,-2.6164,-2.7962,-3.0852,-2.8383,-2.6759,-2.571,-2.2951,-2.1867,-2.1969,-2.1285,-2.2281,-2.3896,-2.187,-2.2085,-2.3082,-2.0016,-1.8727,-1.8455,0.0,-1.8334,0.0,0.0,0.0,0.0,0.0,0.0,-2.0094,0.0,0.0,-3.366,-3.9648,-4.1711,-4.2929,0.0,0.0,0.0,0.0,0.0,0.0,0.0,0.0,0.0,0.0,0.0,0.0,0.0,0.0,0.0,0.0,0.0,0.0,0.0,0.0,0.0,0.0,0.0,-4.9018,-4.9018,-4.9018,-4.8155,-4.6371,-4.5965,-4.4774,-4.2618,-4.1851,-4.1398,-4.1245,-4.0908,-4.0813,-4.0932,-4.0381,-3.9978,-3.9612,-3.9463,-3.9373,-3.9373,-3.9373,-3.9373,-3.9373,-3.9373,-3.9373,-3.9373,-3.9373,-3.9373,-3.9373,0.0,0.0,0.0,0.0,0.0,0.0,0.0,0.0,0.0,0.0,0.0,0.0,-1.5654,-1.5418,-1.5093,-1.4589,0.0,0.0,0.0,0.0,0.0,0.0,0.0,0.0,-1.7873,-1.7873,-1.8257,-1.8968,-1.9981,-2.2567,-2.6674,-2.7672,-2.9981,-3.3119,-3.0194,-2.8062,-2.6505,-2.4222,-2.3695,-2.4289,-2.3944,-2.4058,-2.4752,-2.7434,-2.8286,-2.775,-2.5493,-2.4033,0.0,0.0,0.0,0.0,0.0,-1.8403,-1.785,0.0,0.0,0.0,0.0,-2.5406,0.0,-3.3457,-3.711,0.0,0.0,0.0,0.0,0.0,0.0,0.0,0.0,0.0,0.0,0.0,0.0,0.0,0.0,0.0,0.0,0.0,0.0,0.0,0.0,0.0,0.0,0.0,0.0,-4.9018,-4.9018,-4.9018,-4.8155,-4.6371,-4.5965,-4.4774,-4.2619,-4.162,-4.1224,-4.1454,-4.0522,-4.0601,-4.1625,-4.0111,-3.9798,-4.0307,-3.9679,-3.9373,-3.9373,-3.9373,-3.9373,-3.9373,-3.9373,-3.9373,-3.9373,-3.9373,-3.9373,-3.9373,0.0,0.0,0.0,0.0,0.0,0.0,0.0,0.0,0.0,0.0,0.0,0.0,0.0,-1.5862,-1.5783,-1.539,-1.54,0.0,0.0,0.0,0.0,0.0,0.0,0.0,0.0,-1.7783,-1.8155,-1.891,-1.8802,-2.0878,-2.4908,-2.5077,-2.6428,-2.8716,-2.8387,-2.8213,-2.7893,-2.3763,-2.268,-2.3816,-2.4181,-2.6404,-2.9345,-2.7792,-2.9809,-3.2795,-2.8158,0.0,0.0,0.0,0.0,0.0,-1.9178,-1.9034,-1.9034,-1.8087,-1.8459,0.0,0.0,0.0,0.0,-3.0548,-3.3897,-3.6772,0.0,0.0,0.0,0.0,0.0,0.0,0.0,0.0,0.0,0.0,0.0,0.0,0.0,0.0,0.0,0.0,0.0,0.0,0.0,0.0,0.0,0.0,0.0,0.0,-4.8342,-4.8308,-4.7417,-4.5517,-4.5147,-4.3939,-4.1785,-4.1321,-4.1007,-4.0843,-4.0705,-4.0643,-4.0631,-4.0664,-4.0576,-4.0397,-4.0157,-3.9798,-3.9373,-3.9373,-3.9373,-3.9373,-3.9373,-3.9373,-3.9373,-3.9373,-3.9373,-3.9373,0.0,0.0,0.0,0.0,0.0,0.0,0.0,0.0,0.0,-1.4796,0.0,0.0,0.0,0.0,-1.6574,-1.6158,-1.6231,-1.6476,-1.6926,0.0,0.0,0.0,0.0,0.0,0.0,-1.7783,-1.802,-1.8538,-1.8302,-1.9811,-2.2993,-2.3255,-2.446,-2.6299,-2.6316,-2.7165,-2.8383,-2.4898,-2.3985,-2.5033,-2.6759,-2.9145,-3.1543,-3.161,-3.3594,-3.5907,0.0,0.0,0.0,0.0,0.0,0.0,-2.136,-2.0094,-1.9068,-1.8087,-1.8662,0.0,-2.0873,0.0,0.0,0.0,0.0,-3.2577,0.0,0.0,0.0,0.0,0.0,0.0,0.0,0.0,0.0,0.0,0.0,0.0,0.0,0.0,0.0,0.0,0.0,0.0,0.0,0.0,0.0,0.0,0.0,0.0,-4.7167,-4.7069,-4.6288,-4.4445,-4.3902,-4.2912,-4.1423,-4.112,-4.0848,-4.0608,-4.0649,-4.0557,-4.0345,-4.0611,-4.0606,-4.0397,-4.0397,-4.0157,-3.9738,-3.9499,-3.9373,-3.9373,-3.9373,-3.9373,-3.9373,-3.9373,-3.9373,-3.9373,0.0,0.0,0.0,0.0,0.0,0.0,0.0,0.0,-1.4899,-1.4886,0.0,0.0,0.0,0.0,0.0,-1.6771,-1.7059,-1.703,-1.6377,-1.6926,0.0,0.0,0.0,0.0,-1.7783,-1.7783,-1.7783,-1.7783,-1.8504,-1.9633,-2.1183,-2.2612,-2.444,-2.6437,-2.4338,-2.5,-2.7689,-2.7621,-2.7689,-2.8128,-3.1813,-3.2138,-3.1224,-3.914,-4.0054,0.0,-3.7787,-3.7019,0.0,-3.3275,0.0,0.0,0.0,-2.1414,-1.785,-1.785,-1.8403,0.0,0.0,0.0,0.0,0.0,0.0,0.0,0.0,0.0,0.0,0.0,0.0,0.0,0.0,0.0,0.0,0.0,0.0,0.0,0.0,0.0,0.0,0.0,0.0,0.0,0.0,0.0,0.0,0.0,0.0,-4.7164,-4.5588,-4.5459,-4.472,-4.3232,-4.233,-4.1784,-4.1588,-4.1055,-4.0814,-4.0749,-4.0261,-4.0345,-4.0952,-3.992,-3.9798,-4.0397,-4.0397,-4.0397,-4.0337,-3.9738,-3.9433,-3.9433,-3.9433,-3.9433,-3.9433,-3.9469,-3.9439,-3.9439,0.0,0.0,0.0,0.0,0.0,-1.6749,-1.6893,-1.7197,-1.7287,0.0,0.0,0.0,-1.7413,-1.7593,-1.7639,-1.7443,-1.7059,-1.7012,-1.7367,-1.71,-1.715,-1.7647,-1.7738,-1.7783,-1.7783,-1.7783,-1.7783,-1.7783,-1.7986,-1.8711,-1.9912,-2.0062,-2.1152,-2.3007,-2.3289,-2.3849,-2.456,-2.3477,-2.4864,-2.7993,-3.0156,-3.322,0.0,0.0,0.0,0.0,0.0,-3.9783,-3.8058,0.0,-3.3402,-2.7215,0.0,0.0,-1.9393,-1.9393,-1.9959,0.0,-1.9845,0.0,0.0,0.0,0.0,0.0,0.0,0.0,0.0,0.0,0.0,0.0,0.0,0.0,0.0,0.0,0.0,0.0,0.0,0.0,0.0,0.0,0.0,0.0,0.0,0.0,0.0,0.0,-4.709,-4.6697,-4.5715,-4.4547,-4.3384,-4.2236,-4.1848,-4.1554,-4.1221,-4.095,-4.0677,-4.0436,-4.0152,-4.0031,-4.0039,-4.0087,-4.0217,-4.0397,-4.0397,-4.0397,-4.0427,-4.0726,-4.0846,-4.0846,-4.0846,-4.0846,-4.0786,-4.0307,-4.0127,-4.0068,0.0,0.0,0.0,-1.7008,-1.7502,-1.785,-1.7974,-1.8361,-1.8573,0.0,0.0,0.0,-1.8794,-1.9135,-1.9014,-1.8177,-1.7758,-1.7483,-1.7338,-1.7255,-1.7274,-1.7377,-1.796,-1.8268,-1.8268,-1.856,-1.856,-1.8268,-1.8268,-1.8416,-1.8742,-1.8847,-1.9471,-2.0506,-2.1215,-2.1887,-2.2409,-2.1211,-2.3091,-2.7215,-3.1258,0.0,0.0,-4.002,-4.2523,0.0,0.0,0.0,-4.1441,-4.2185,-3.6952,0.0,0.0,0.0,0.0,-2.0204,-2.0792,0.0,0.0,0.0,0.0,0.0,0.0,0.0,0.0,-2.8789,0.0,0.0,0.0,0.0,0.0,0.0,0.0,0.0,0.0,0.0,0.0,0.0,0.0,0.0,0.0,0.0,0.0,0.0,0.0,-4.6346,-4.6346,-4.5862,-4.4767,-4.3493,-4.249,-4.1819,-4.159,-4.1323,-4.1117,-4.0814,-4.0574,-4.0366,-4.0121,-3.994,-3.9833,-3.9907,-3.9978,-4.0008,-4.0277,-4.0397,-4.0457,-4.1115,-4.1055,-4.0576,-4.0576,-4.0576,-4.0546,-4.0427,-4.0397,-4.0397,0.0,0.0,-1.7745,-1.7853,-1.833,-1.8733,-1.8796,-1.9157,-1.942,0.0,-2.0058,-2.0576,-2.0825,-2.1442,-2.1148,-1.9394,-1.8968,-1.829,-1.7178,-1.7533,-1.7572,-1.6985,-1.8215,-1.891,-1.891,-1.9608,-1.9642,-1.891,-1.891,-1.8504,-1.7817,-1.8471,-1.8775,-1.8775,-1.8843,-1.9701,-2.1055,-2.0555,-2.255,-2.659,-3.3343,-3.5284,0.0,0.0,-4.3978,-4.2422,-4.5026,-4.5466,-4.4886,-4.5128,-4.029,0.0,0.0,0.0,0.0,0.0,-2.1637,0.0,0.0,0.0,0.0,0.0,0.0,0.0,-2.7148,-2.7774,0.0,0.0,0.0,0.0,0.0,0.0,0.0,0.0,0.0,0.0,0.0,0.0,0.0,0.0,0.0,0.0,0.0,-4.6549,-4.6278,-4.5635,-4.5568,-4.4917,-4.3386,-4.2647,-4.211,-4.1787,-4.1491,-4.1254,-4.1083,-4.0677,-4.047,-4.0436,-4.0086,-3.9975,-3.994,-3.9553,-3.9373,-3.9403,-4.0038,-4.0277,-4.0337,-4.0935,-4.0546,-3.9649,-3.9649,-3.9649,-3.9709,-4.0217,-4.0397,-4.0457,0.0,-1.7593,-1.7992,-1.8898,-1.9909,-2.0767,-2.131,-2.1729,-2.2066,-2.2343,-2.3018,-2.3694,-2.436,-2.3524,-2.2844,-2.2649,-2.0557,-1.9331,-1.9507,-1.8449,-1.7845,-1.7981,-1.858,-1.891,-1.891,-1.9608,-1.9642,-1.891,-1.891,-1.8504,-1.7783,-1.7952,-1.802,-1.802,-1.864,-1.9384,-2.0352,-2.2009,-2.4898,-2.8536,-3.0581,-3.437,-3.9097,-4.188,-4.4857,-4.7496,-4.7496,-4.6989,-4.5906,-4.3064,-4.0595,-3.7845,0.0,0.0,0.0,-2.4948,-2.5101,-2.6269,-2.4188,0.0,0.0,0.0,0.0,0.0,-2.3018,-2.3966,0.0,0.0,0.0,0.0,0.0,0.0,0.0,0.0,0.0,0.0,0.0,0.0,0.0,0.0,0.0,0.0,0.0,-4.5021,-4.4987,-4.4852,-4.479,-4.4375,-4.3353,-4.3292,-4.2833,-4.1819,-4.1623,-4.1323,-4.0882,-4.0505,-4.0191,-3.9874,-3.9803,-3.9661,-3.9481,-3.9409,-3.9373,-3.9403,-3.9559,-3.9619,-3.9619,-3.9738,-4.0277,-4.0995,-4.0995,-4.0995,-4.0935,-4.0546,-4.0397,-4.0337,-1.8207,-1.8463,-1.9067,-2.0251,-2.1082,-2.1908,-2.285,-2.3356,-2.3912,-2.4828,-2.6016,-2.6474,-2.5807,-2.5158,-2.4383,-2.3478,-2.1777,-2.049,-1.9831,-1.9216,-1.8591,-1.8063,-1.9115,-1.9634,-1.9439,-2.0555,-2.0589,-1.9439,-1.9439,-1.8865,-1.7783,-1.7783,-1.8594,-2.0014,-1.9249,-2.0128,-2.226,-2.2307,-2.4034,-2.7182,-3.2036,0.0,-4.1534,-4.4519,-4.7056,-4.8951,-4.8578,-4.8206,-4.7394,-4.4012,-4.1644,0.0,0.0,-3.3761,-3.2104,0.0,-2.8078,-2.8297,-2.532,0.0,0.0,-2.4139,0.0,0.0,0.0,0.0,-2.4575,0.0,0.0,0.0,0.0,0.0,0.0,0.0,0.0,0.0,0.0,0.0,0.0,0.0,0.0,0.0,0.0,-4.3464,-4.3606,-4.3978,-4.435,-4.4412,-4.3977,-4.3889,-4.3323,-4.2205,-4.1884,-4.1325,-4.0509,-4.0261,-4.0051,-3.9839,-3.9768,-3.9661,-3.9553,-3.9445,-3.9373,-3.9373,-3.9373,-3.9373,-3.9373,-3.9373,-3.9798,-4.0397,-4.0397,-4.0397,-4.0397,-4.0397,-4.0397,-4.0397,-1.8899,-1.9459,-2.0268,-2.1245,-2.1977,-2.2801,-2.3835,-2.4406,-2.532,-2.6928,-2.8939,-2.9689,-2.8306,-2.8267,-2.7725,-2.6224,-2.4778,-2.3176,-2.1324,-2.1006,-2.0315,-1.9044,-2.0031,-2.0697,-2.0846,-2.1671,-2.14,-2.0002,-1.9866,-1.9101,-1.7783,-1.7952,-1.9304,-2.1583,-2.0331,-2.1461,-2.4203,-2.268,0.0,-2.7486,0.0,-3.8768,-4.0899,-4.5669,-4.7665,-4.8037,-4.8748,-4.9018,-4.8578,-4.5737,-4.3098,-4.0569,-3.8396,-3.64,0.0,0.0,0.0,0.0,0.0,0.0,0.0,0.0,0.0,-2.4729,0.0,0.0,0.0,-2.6302,0.0,0.0,0.0,0.0,0.0,0.0,0.0,0.0,0.0,0.0,0.0,0.0,0.0,0.0,0.0,-4.1441,-4.1948,-4.3098,-4.3267,-4.3633,-4.4344,-4.392,-4.3307,-4.252,-4.1917,-4.1127,-4.0196,-4.0016,-3.991,-3.9905,-3.9732,-3.9661,-3.9661,-3.9481,-3.9373,-3.9373,-3.9373,-3.9373,-3.9373,-3.9373,-3.9373,-3.9373,-3.9373,-3.9373,-3.9499,-4.0008,-4.0217,-4.0277,-1.9659,-2.0282,-2.0893,-2.1038,-2.2524,-2.3851,-2.435,-2.5052,-2.6251,-2.8468,-3.1759,-3.4339,-3.5476,-3.5599,-3.583,-3.6447,-3.2884,-2.9774,-2.7768,-2.563,-2.405,-2.3243,-2.1869,-2.2029,-2.3932,-2.224,-2.0906,-2.0002,-1.935,-1.8606,-1.7817,-1.8471,-1.8944,-1.9384,-2.182,-2.3139,-2.3579,0.0,-2.9093,0.0,-3.6524,-3.552,0.0,-3.9884,-4.2895,-4.4457,-4.78,-4.9018,-4.8646,0.0,-4.4891,-4.3261,0.0,-3.8464,-3.9106,0.0,0.0,0.0,0.0,0.0,0.0,0.0,-2.7977,0.0,0.0,0.0,-2.4101,-2.3139,0.0,0.0,0.0,0.0,0.0,0.0,0.0,0.0,0.0,0.0,0.0,0.0,0.0,0.0,0.0,0.0,-3.9512,-4.2219,-4.0087,-4.0087,-4.3341,-4.2655,-4.2269,-4.2488,-4.1395,-4.0547,-4.0046,-3.9839,-3.9625,-3.9445,-3.9445,-3.9409,-3.9409,-3.9409,-3.9373,-3.9373,-3.9373,-3.9373,-3.9373,-3.9373,-3.9373,-3.9373,-3.9373,-3.9373,-3.9403,-3.9499,-3.9493,-3.9493,-2.0482,-2.0747,-2.1215,-2.1858,-2.2653,-2.3634,-2.4936,-2.7604,-2.9952,-3.1262,-3.3854,-3.5874,-3.6535,-3.5826,-3.5671,-3.6582,-3.4242,-3.1859,-2.9872,-2.7982,-2.6185,-2.4596,-2.2968,-2.2616,-2.3849,-2.2104,-2.0805,-2.0002,-1.9249,-1.8504,-1.7817,-1.8538,-2.0073,-2.224,-2.4372,-2.6759,-2.9228,0.0,-3.0818,0.0,0.0,0.0,0.0,-4.2151,-4.6109,-4.6853,-4.8443,-4.9018,-4.868,0.0,-4.4621,0.0,0.0,0.0,0.0,0.0,0.0,0.0,0.0,0.0,0.0,0.0,0.0,0.0,-2.456,0.0,-2.3274,0.0,0.0,0.0,0.0,0.0,0.0,0.0,0.0,0.0,0.0,0.0,0.0,0.0,0.0,0.0,0.0,0.0,0.0,0.0,0.0,-3.958,-4.2016,-4.2512,-4.2393,-4.1594,-4.15,-4.0891,-3.9661,-3.9553,-3.9481,-3.9373,-3.9373,-3.9373,-3.9373,-3.9373,-3.9373,-3.9373,-3.9373,-3.9373,-3.9373,-3.9373,-3.9373,-3.9373,-3.9373,-3.9373,-3.9373,-3.9373,-3.9373,-3.9373,-2.1339,-2.137,-2.1562,-2.2288,-2.2676,-2.3628,-2.5864,-2.933,-3.2193,-3.36,-3.5853,-3.7615,-3.8248,-3.8066,-3.816,-3.8894,-3.7821,-3.6116,-3.3874,-3.1592,-2.9769,-2.8581,-2.5495,-2.4344,-2.5507,-2.3086,-2.1312,-2.0318,-1.9587,-1.8944,-1.8425,-1.9181,-2.0987,-2.3695,-2.62,-2.9364,-3.2814,0.0,-3.3525,-3.4235,-3.5926,-3.64,-3.6907,-4.4553,-4.8105,-4.9018,-4.9018,-4.9018,-4.868,-4.6447,-4.4587,0.0,-4.4451,0.0,0.0,0.0,0.0,0.0,-3.3964,0.0,0.0,0.0,0.0,0.0,0.0,0.0,0.0,0.0,0.0,0.0,0.0,0.0,0.0,0.0,0.0,0.0,0.0,0.0,0.0,0.0,0.0,0.0,0.0,0.0,0.0,0.0,0.0,0.0,-4.073,-4.1668,-4.1749,-4.0926,-4.1215,-4.0707,-3.9409,-3.9373,-3.9373,-3.9373,-3.9373,-3.9373,-3.9373,-3.9373,-3.9373,-3.9373,-3.9373,-3.9373,-3.9373,-3.9373,-3.9373,-3.9373,-3.9373,-3.9373,-3.9373,-3.9373,-3.9373,-3.9373,-2.218,-2.2251,-2.2137,-2.169,-2.2605,-2.4375,-2.7283,-2.9108,-3.1423,-3.4881,-3.7866,-4.0539,-4.2743,-4.5494,-4.7236,-4.7492,-4.6819,-4.5094,-4.2117,-3.7797,-3.6005,-3.7425,-3.0461,-2.7943,-3.0886,-2.5947,-2.2612,-2.1156,-2.0352,-1.9934,-1.9934,-2.0737,-2.119,-2.1529,-2.664,-2.9788,-3.1461,-3.4281,-3.8836,-4.4005,-4.2591,-4.4621,-4.8071,0.0,-4.5838,-4.9018,-4.9018,0.0,0.0,-4.6447,-4.5669,0.0,0.0,0.0,0.0,0.0,0.0,0.0,0.0,0.0,0.0,-3.0668,0.0,0.0,0.0,0.0,-2.5085,0.0,0.0,0.0,0.0,0.0,0.0,0.0,0.0,0.0,0.0,0.0,0.0,0.0,0.0,0.0,0.0,0.0,0.0,0.0,0.0,0.0,-3.9808,-3.9388,-3.9544,-4.0863,-4.0094,-3.9596,-3.9409,-3.9373,-3.9373,-3.9373,-3.9373,-3.9373,-3.9373,-3.9373,-3.9373,-3.9373,-3.9373,-3.9373,-3.9373,-3.9373,-3.9373,-3.9373,-3.9373,-3.9373,-3.9373,-3.9373,-3.9373,-3.9373,-2.2931,-2.341,-2.3414,-2.2243,-2.2815,-2.456,-2.8044,-3.1089,-3.4491,-3.8577,-4.078,-4.3033,-4.5797,-4.7021,-4.7881,-4.8568,-4.797,-4.6684,-4.4688,-4.0772,-3.8836,-3.9309,-3.2679,-3.0108,0.0,0.0,0.0,-2.268,-2.1414,-2.0534,-2.0002,-2.0805,-2.1461,-2.2158,-2.7402,-3.1664,0.0,0.0,0.0,0.0,0.0,-4.4418,-4.7496,0.0,0.0,-4.9018,-4.9018,-4.9018,0.0,-4.8139,-4.6921,-4.5838,-4.6515,-4.506,-4.32,-4.3978,-4.3673,0.0,0.0,0.0,-4.1813,-3.5047,0.0,0.0,0.0,0.0,0.0,0.0,0.0,0.0,0.0,0.0,0.0,0.0,0.0,0.0,0.0,0.0,0.0,0.0,0.0,0.0,0.0,0.0,0.0,0.0,0.0,0.0,0.0,-3.9017,-3.9583,-3.9396,-4.0072,-4.014,-3.9409,-3.9373,-3.9373,-3.9373,-3.9373,-3.9373,-3.9373,-3.9373,-3.9373,-3.9373,-3.9373,-3.9373,-3.9373,-3.9373,-3.9373,-3.9373,-3.9373,-3.9373,-3.9373,-3.9373,-3.9373,-3.9373,-2.3737,-2.3966,-2.3898,-2.3207,-2.4357,-2.6471,-2.9687,-3.3106,-3.6956,-4.1553,-4.3173,-4.518,-4.8439,-4.9032,-4.9354,0.0,-4.9593,-4.8646,-4.6616,-4.3978,0.0,-4.2083,-3.6907,-3.4709,0.0,0.0,0.0,0.0,0.0,-2.2361,0.0,0.0,0.0,0.0,0.0,-3.1935,-3.6569,-3.9817,-4.2557,0.0,0.0,-4.5838,0.0,0.0,-4.868,-4.8274,0.0,-4.9018,-4.9018,-4.9018,-4.8037,-4.7124,-4.8545,-4.7022,-4.4925,-4.6143,-4.5635,-4.4451,-4.3403,-4.4384,0.0,-3.8294,-3.6783,0.0,-2.8687,0.0,0.0,0.0,0.0,0.0,0.0,0.0,0.0,0.0,0.0,0.0,0.0,0.0,0.0,0.0,0.0,0.0,0.0,0.0,-2.7012,-2.9803,0.0,0.0,0.0,0.0,-3.8692,-3.8282,-3.9438,-3.9767,-3.905,-3.929,-3.9373,-3.9373,-3.9373,-3.9373,-3.9373,-3.9373,-3.9373,-3.9373,-3.9373,-3.9373,-3.9373,-3.9373,-3.9373,-3.9373,-3.9373,-3.9373,-3.9373,-3.9373,-3.9373,-3.9373,-2.4609,-2.4169,-2.4034,-2.4745,-2.7182,-2.9822,-3.2124,-3.5035,-3.8772,-4.3768,-4.5191,-4.7161,-5.0843,-5.1912,-5.2114,-5.1452,-5.2063,-5.1251,-4.8345,-4.7428,0.0,0.0,-4.2997,-4.1339,-4.1441,0.0,0.0,0.0,0.0,0.0,0.0,0.0,0.0,0.0,-2.6133,0.0,-3.5802,-3.9546,-4.4181,-4.9018,-4.9018,-4.8951,-4.8917,-4.8984,-4.8071,-4.6989,-4.8477,-4.9018,-4.9018,-4.9018,-4.9018,-4.9018,-4.9018,-4.9018,-4.8849,-4.8173,-4.8477,-4.8376,-4.5596,-4.5331,-4.4823,-4.0426,0.0,0.0,0.0,0.0,-3.2701,0.0,0.0,0.0,0.0,0.0,0.0,0.0,0.0,0.0,0.0,0.0,0.0,0.0,0.0,0.0,0.0,0.0,-2.3801,-2.7384,-2.845,0.0,0.0,0.0,-3.6953,-3.7665,-3.8372,-3.8655,-3.8502,-3.9152,-3.9445,-3.9445,-3.9409,-3.9373,-3.9373,-3.9373,-3.9373,-3.9373,-3.9373,-3.9373,-3.9373,-3.9373,-3.9373,-3.9373,-3.9373,-3.9373,-3.9373,-3.9373,-3.9373,-3.9373,-2.6132,-2.7774,-2.945,-3.0161,-3.0006,-3.092,-3.4269,-3.729,-4.0917,-4.5558,-4.8759,-5.1597,-5.4226,-5.5165,-5.53,-5.4635,-5.4735,0.0,0.0,0.0,0.0,-4.9796,-4.5302,-4.3369,-4.4519,-3.7956,0.0,-3.2273,0.0,0.0,-2.3932,0.0,0.0,0.0,0.0,0.0,-3.5013,-3.8768,-4.3707,-4.9018,-4.9018,-4.8342,0.0,0.0,-4.8071,-4.6989,-4.8477,-4.9018,-4.9018,-4.9018,-4.9018,-4.9018,-4.9018,-4.9018,-4.8951,-4.8781,-4.8849,-4.8849,-4.8071,-4.8003,-4.7496,-4.4688,-4.2692,-4.0441,0.0,0.0,0.0,0.0,0.0,0.0,0.0,0.0,0.0,0.0,0.0,0.0,0.0,0.0,0.0,0.0,0.0,0.0,0.0,0.0,-2.3748,-2.5236,0.0,0.0,0.0,0.0,0.0,-3.7644,-3.9462,-4.0344,-4.0258,-4.0316,-4.0378,-4.0378,-3.9702,-3.9373,-3.9373,-3.9373,-3.9373,-3.9373,-3.9373,-3.9373,-3.9373,-3.9373,-3.9373,-3.9373,-3.9373,-3.9373,-3.9373,-3.9373,-3.9373,-3.9373,-2.8518,-3.1055,-3.3355,-3.4121,0.0,0.0,-3.8159,-3.9715,0.0,-4.7124,-4.9884,0.0,-5.4465,-5.5996,-5.6611,-5.6225,-5.5919,0.0,-5.3078,0.0,0.0,-5.0777,-4.8511,-4.7394,-4.7631,-4.2219,0.0,-3.4878,0.0,0.0,-2.4,0.0,0.0,0.0,0.0,-2.9247,-3.3952,-3.9986,-4.4654,-4.8071,-4.8748,0.0,0.0,-4.868,-4.8477,-4.7868,-4.8714,-4.9018,-4.9018,-4.9018,-4.9018,-4.9018,-4.9018,-4.9018,-4.9018,-4.9018,-4.9018,-4.9018,-4.9018,-4.9018,-4.8588,-4.694,-4.5577,-4.361,-3.9787,-3.8587,-3.7698,0.0,0.0,0.0,0.0,0.0,0.0,0.0,0.0,0.0,0.0,0.0,0.0,0.0,0.0,0.0,0.0,0.0,0.0,0.0,0.0,0.0,0.0,0.0,0.0,-3.5785,-3.8165,-3.9621,-3.9881,-4.0056,-4.01,-4.013,-3.9631,-3.9373,-3.9373,-3.9373,-3.9373,-3.9373,-3.9373,-3.9373,-3.9373,-3.9373,-3.9373,-3.9373,-3.9373,-3.9373,-3.9373,-3.9373,-3.9373,-3.9373,-3.136,-3.4032,-3.6231,0.0,0.0,0.0,0.0,-4.2794,0.0,-4.8984,0.0,-5.186,-5.3856,-5.5784,-5.6934,-5.6934,0.0,-5.5108,-5.3044,-5.4126,-5.3619,-5.0811,-5.1826,-5.1758,-5.027,-4.7158,-4.276,0.0,0.0,0.0,0.0,0.0,0.0,0.0,0.0,0.0,0.0,-4.1914,-4.6041,-4.7192,-4.8477,-4.9018,-4.9018,-4.9018,-4.9018,-4.9018,-4.9018,-4.9018,-4.9018,-4.9018,-4.9018,-4.9018,-4.9018,-4.9018,-4.9018,-4.9018,-4.9018,-4.9018,-4.9018,-4.8892,-4.8608,-4.7803,-4.7506,-4.6322,-4.2107,-4.1179,-4.0665,-3.9082,-3.6408,-3.549,0.0,0.0,0.0,0.0,0.0,0.0,0.0,0.0,0.0,0.0,0.0,0.0,0.0,0.0,0.0,0.0,0.0,0.0,0.0,0.0,0.0,-3.3496,-3.6334,-3.8121,-3.8773,0.0,-3.9589,-3.9589,-3.9445,-3.9373,-3.9373,-3.9373,-3.9373,-3.9373,-3.9373,-3.9373,-3.9373,-3.9373,-3.9373,-3.9373,-3.9373,-3.9373,-3.9373,-3.9373,-3.9373,-3.9373,-3.3728,-3.6332,-3.8261,0.0,0.0,-4.4857,-4.7428,-4.8748,-5.0236,-5.2435,-5.4938,-5.6664,-5.707,-5.7476,-5.7712,-5.7712,-5.7577,0.0,0.0,0.0,0.0,-5.389,-5.3484,-5.257,-5.1048,-4.6921,-4.276,0.0,0.0,0.0,-2.5169,0.0,0.0,0.0,0.0,0.0,-3.8091,-4.2117,0.0,-4.8646,-4.8917,-4.9018,-4.9018,-4.9018,-4.9018,-4.9018,-4.9018,-4.9018,-4.9018,-4.9018,-4.9018,-4.9018,-4.9018,-4.9018,-4.9018,-4.9018,-4.9018,-4.9018,-4.9018,-4.845,-4.7803,-4.7671,-4.7036,-4.6013,-4.4408,-4.4029,-4.3617,-4.201,-4.0791,-3.9403,-3.7528,0.0,0.0,0.0,0.0,0.0,0.0,0.0,0.0,0.0,0.0,0.0,0.0,0.0,0.0,0.0,0.0,0.0,0.0,0.0,0.0,0.0,-3.7671,0.0,0.0,0.0,-4.0451,-4.0451,-3.9737,-3.9373,-3.9373,-3.9373,-3.9373,-3.9373,-3.9373,-3.9373,-3.9373,-3.9373,-3.9373,-3.9373,-3.9373,-3.9373,-3.9373,-3.9373,-3.9373,-3.9373,-3.7347,0.0,-4.1068,0.0,0.0,0.0,0.0,-5.4397,-5.5277,-5.3721,-5.4735,-5.5615,-5.5615,-5.6968,-5.7881,-5.7881,-5.7881,-5.7746,-5.7374,-5.7002,-5.6494,-5.575,-5.504,-5.3957,-5.2435,-4.9526,-4.5229,-3.9571,0.0,0.0,-2.5559,0.0,0.0,0.0,0.0,-3.2916,0.0,0.0,0.0,-4.8511,-4.9255,-4.956,-4.956,-4.956,-4.9323,-4.9018,-4.9018,-4.9018,-4.9018,-4.9018,-4.9018,-4.9018,-4.9018,-4.9018,-4.9018,-4.9018,-4.9018,-4.9018,-4.9018,-4.8289,-4.7473,-4.7002,-4.617,-4.5227,-4.4243,-4.4043,-4.3797,-4.3028,-4.2073,-4.0277,-3.6656,-3.3275,0.0,0.0,0.0,0.0,0.0,0.0,0.0,0.0,0.0,0.0,0.0,0.0,0.0,0.0,0.0,0.0,0.0,0.0,0.0,0.0,0.0,0.0,0.0,0.0,0.0,-4.069,-3.9844,-3.9373,-3.9373,-3.9373,-3.9373,-3.9373,-3.9373,-3.9373,-3.9373,-3.9373,-3.9373,-3.9373,-3.9373,-3.9373,-3.9373,-3.9373,-3.9373,-3.9373,-4.1407,-4.2591,0.0,0.0,-5.0202,-5.2943,-5.5344,-5.822,-5.8863,-5.5378,-5.4905,-5.4905,-5.4905,-5.6833,-5.8118,-5.8118,-5.7983,-5.7881,-5.7881,-5.734,-5.6968,-5.6799,-5.6258,-5.5175,-5.3551,-5.2334,-4.8206,0.0,0.0,0.0,0.0,0.0,0.0,0.0,0.0,0.0,0.0,0.0,-4.6819,-4.8683,-4.9864,-5.0338,-5.0338,-5.0338,-4.9965,-4.9458,-4.9289,-4.9221,-4.9221,-4.9052,-4.9018,-4.9018,-4.9018,-4.9018,-4.9018,-4.9018,-4.9018,-4.9018,-4.9018,-4.8289,-4.7373,-4.6419,-4.5488,-4.4548,-4.3527,-4.329,-4.326,-4.311,-4.2073,-4.0008,-3.6207,-3.4231,0.0,0.0,0.0,0.0,0.0,0.0,0.0,0.0,0.0,0.0,0.0,0.0,0.0,0.0,0.0,0.0,-2.2752,-2.4463,0.0,0.0,0.0,-3.6607,-3.9353,0.0,-3.9871,-4.0413,-3.9737,-3.9373,-3.9373,-3.9373,-3.9373,-3.9373,-3.9373,-3.9373,-3.9373,-3.9373,-3.9373,-3.9373,-3.9373,-3.9373,-3.9373,-3.9373,-3.9373,-3.9373,0.0,0.0,0.0,0.0,0.0,-5.5343,-5.5647,-5.822,-5.9945,-5.9539,-5.9471,-5.9471,-5.9471,-5.9133,-5.8896,-5.8896,-5.8287,-5.7881,-5.7881,-5.7814,-5.7476,-5.6833,-5.6731,-5.5683,-5.3551,-5.3382,-5.027,0.0,0.0,-3.6265,0.0,0.0,0.0,0.0,0.0,0.0,0.0,-4.5196,-4.7733,-5.0881,-5.1048,-5.1116,-5.1116,-5.1116,-5.1082,-5.0913,-5.0236,-4.9999,-4.9898,-4.9221,-4.9018,-4.9018,-4.9018,-4.9018,-4.9018,-4.9018,-4.9018,-4.9018,-4.9018,-4.8289,-4.7373,-4.6419,-4.5488,-4.4548,-4.3527,-4.329,-4.311,-4.262,-4.1414,-3.9469,-3.6118,-3.7255,-3.7071,0.0,0.0,0.0,0.0,0.0,0.0,0.0,0.0,0.0,0.0,0.0,0.0,0.0,0.0,0.0,-2.3355,-2.4327,-2.6031,-2.8622,0.0,-3.4409,-3.4213,-3.7795,-3.9562,-3.9517,-3.9445,-3.9373,-3.9373,-3.9373,-3.9373,-3.9373,-3.9373,-3.9373,-3.9373,-3.9373,-3.9373,-3.9373,-3.9373,-3.9373,-3.9373,-3.9373,-3.9373,-3.9373,0.0,0.0,0.0,0.0,0.0,0.0,0.0,-6.0723,-6.1467,-6.1467,-6.0655,-6.0114,-6.0114,-5.9844,-5.9674,-5.9674,-5.8998,-5.8558,-5.8558,-5.8152,-5.7746,-5.7476,-5.7442,-5.6833,-5.5513,-5.46,-5.186,0.0,0.0,0.0,0.0,0.0,0.0,0.0,0.0,-4.2591,-4.5432,-4.7936,-5.0135,-5.186,-5.186,-5.186,-5.186,-5.186,-5.1589,-5.1151,-5.0879,-5.0777,-5.0642,-4.9898,-4.9357,-4.9018,-4.9018,-4.9018,-4.9018,-4.9018,-4.9018,-4.9018,-4.9018,-4.8289,-4.7373,-4.6419,-4.5488,-4.4548,-4.3527,-4.329,-4.315,-4.253,-4.1324,-3.9888,-3.8182,-3.7434,-3.6776,0.0,0.0,0.0,0.0,0.0,0.0,0.0,0.0,0.0,0.0,0.0,0.0,0.0,0.0,0.0,0.0,0.0,0.0,-2.7351,0.0,-3.4749,-3.5522,-3.8244,-3.9804,-4.017,-3.9631,-3.9373,-3.9373,-3.9373,-3.9373,-3.9373,-3.9373,-3.9373,-3.9373,-3.9373,-3.9373,-3.9373,-3.9373,-3.9373,-3.9373,-3.9373,-3.9373,-3.9373,-5.4634,0.0,-5.504,0.0,-5.8795,-5.9336,-6.1975,-6.2381,-6.2381,-6.2381,-6.1434,-6.0791,-6.0791,-6.0588,-6.0452,-6.0452,-5.9776,-5.9336,-5.9336,-5.8626,-5.822,-5.822,-5.8017,0.0,-5.6833,-5.5784,-5.3721,-5.0642,-4.6346,0.0,0.0,0.0,0.0,0.0,-4.4045,-4.6346,-4.78,-5.0439,-5.1961,-5.2672,-5.2672,-5.2672,-5.2672,-5.2672,-5.2334,-5.186,-5.1623,-5.1522,-5.142,-5.0676,-5.0067,-4.9593,-4.9154,-4.9018,-4.9018,-4.9018,-4.9018,-4.9018,-4.9018,-4.8289,-4.7373,-4.6419,-4.5488,-4.4548,-4.3527,-4.329,-4.309,-4.2291,-4.1025,-3.9978,-3.9499,-3.7913,-3.6836,-3.7434,0.0,0.0,0.0,0.0,0.0,0.0,0.0,-2.4126,-2.364,0.0,0.0,0.0,0.0,0.0,0.0,0.0,0.0,0.0,0.0,0.0,0.0,-3.837,-3.9838,-4.0309,-3.9702,-3.9373,-3.9373,-3.9373,-3.9373,-3.9373,-3.9373,-3.9373,-3.9373,-3.9373,-3.9373,-3.9373,-3.9373,-3.9373,-3.9373,-3.9373,-3.9373,-3.9373,-5.7273,-5.7814,-5.8761,-6.1806,-6.2313,-6.2347,-6.2381,-6.2381,-6.2381,-6.2381,-6.2381,-6.2347,-6.2347,-6.1704,-6.1298,-6.1298,-6.0554,-6.008,-6.008,-5.9404,-5.8998,0.0,0.0,-5.7543,-5.6833,-5.6799,-5.6055,-5.4532,0.0,0.0,-4.7703,0.0,-4.4519,-4.6718,-4.753,-4.9492,-5.2232,-5.2266,-5.2739,-5.3484,-5.3484,-5.3484,-5.3484,-5.3484,-5.3484,-5.3382,-5.257,-5.23,-5.2164,-5.1454,-5.1151,-5.0947,-4.9458,-4.9018,-4.9018,-4.9018,-4.9018,-4.9018,-4.9018,-4.8289,-4.7373,-4.6419,-4.5488,-4.4548,-4.3527,-4.329,-4.2931,-4.1654,-4.0337,-3.9403,-3.9373,-3.9343,-3.8506,-3.5968,0.0,0.0,0.0,0.0,0.0,0.0,-2.5644,-2.361,-2.361,0.0,0.0,0.0,0.0,0.0,0.0,0.0,0.0,-2.8513,-3.167,0.0,-3.3546,-3.7575,-3.9528,-3.9409,-3.9409,-3.9373,-3.9373,-3.9373,-3.9373,-3.9373,-3.9373,-3.9373,-3.9373,-3.9373,-3.9373,-3.9373,-3.9373,-3.9373,-3.9373,-3.9373,-3.9373,-3.9373,-6.0757,-6.096,-6.1264,-6.2212,-6.2381,-6.2381,-6.2381,-6.2381,-6.2381,-6.2381,-6.2381,-6.2381,-6.2381,-6.2178,-6.2042,0.0,-6.1366,-6.0926,0.0,-6.0182,-5.9742,-5.9742,-5.9032,-5.8558,-5.8321,-5.7306,-5.6562,-5.6089,0.0,0.0,0.0,-4.8646,-4.8883,-5.0574,-5.0811,-5.142,-5.2367,-5.3416,-5.3721,-5.3551,-5.4059,-5.3957,-5.3518,-5.3518,-5.3518,-5.3484,-5.3213,-5.3112,-5.301,-5.2232,-5.1961,-5.1792,-5.0811,-5.0168,-4.9661,-4.9154,-4.9018,-4.9018,-4.9018,-4.8289,-4.7373,-4.6419,-4.5488,-4.4548,-4.3527,-4.3,-4.2432,-4.1602,-4.0696,-3.9948,-3.9463,-3.9373,-3.8805,-3.7075,-3.7135,0.0,0.0,0.0,0.0,0.0,0.0,-2.5644,0.0,-2.5285,0.0,0.0,0.0,0.0,0.0,0.0,0.0,0.0,-3.2788,0.0,-3.4861,-3.7918,-3.942,-3.9373,-3.9373,-3.9373,-3.9373,-3.9373,-3.9373,-3.9373,-3.9373,-3.9373,-3.9373,-3.9373,-3.9373,-3.9373,-3.9373,-3.9373,-3.9373,-3.9373,-3.9373,-3.9373,-6.2381,-6.2381,-6.2381,-6.2381,-6.2381,-6.2381,-6.2381,-6.2381,-6.2381,-6.2381,-6.2381,-6.2381,-6.2381,-6.2381,0.0,-6.2381,-6.1975,-6.1704,-6.1704,-6.0994,-6.0554,-6.0554,-5.981,-5.9438,-5.9438,-5.8254,0.0,-5.7645,-5.5175,-5.3619,-5.2875,-5.2435,-5.2706,-5.3585,-5.3585,-5.3585,-5.3653,-5.46,-5.4769,-5.4363,-5.4837,-5.4735,-5.4296,-5.4025,-5.3923,-5.389,-5.3585,-5.3518,-5.3416,-5.2909,-5.2739,-5.2638,-5.186,-5.1285,-5.071,-4.9695,-4.9424,-4.9357,-4.9086,-4.8064,-4.6902,-4.6349,-4.5196,-4.4082,-4.3448,-4.2821,-4.2291,-4.1871,-4.1025,-4.0277,-3.9858,-3.9553,-3.8955,-3.7644,-3.7225,-3.6148,-3.3514,0.0,0.0,0.0,0.0,0.0,0.0,-2.726,0.0,0.0,0.0,0.0,0.0,0.0,0.0,-3.0161,-3.4273,0.0,-3.6596,-3.8482,-3.9373,-3.9373,-3.9373,-3.9373,-3.9373,-3.9373,-3.9373,-3.9373,-3.9373,-3.9373,-3.9373,-3.9373,-3.9373,-3.9373,-3.9373,-3.9373,-3.9439,-3.9709,-3.9798,-3.9798,-6.2381,-6.2381,-6.2381,0.0,-6.2381,0.0,-6.2381,-6.2381,-6.2381,-6.2381,-6.2381,-6.2381,-6.2381,-6.2381,-6.2381,-6.2381,0.0,0.0,0.0,-6.1772,-6.1366,-6.1366,-6.0622,-6.0182,-6.0182,-5.9471,-5.9066,-5.9032,-5.7577,-5.6528,-5.5852,-5.5818,-5.5784,-5.5749,-5.575,-5.5681,-5.5681,-5.5749,-5.5749,-5.5681,-5.5784,-5.575,-5.5649,-5.4938,-5.4668,-5.4566,-5.389,-5.3619,-5.3585,-5.3585,-5.3551,-5.3382,-5.2638,-5.2367,-5.2097,-5.0608,-5.0135,-4.9932,-4.9255,-4.7737,-4.6279,-4.6208,-4.4713,-4.329,-4.329,-4.288,-4.244,-4.241,-4.1384,-4.0516,-4.0427,-3.9888,-3.902,-3.7644,-3.6896,-3.5549,-3.2826,0.0,0.0,0.0,0.0,0.0,0.0,-2.8783,-3.0342,0.0,0.0,0.0,0.0,0.0,-3.0041,-3.4444,-3.5908,-3.7195,-3.8452,-3.911,-3.9373,-3.9373,-3.9373,-3.9373,-3.9373,-3.9373,-3.9373,-3.9373,-3.9373,-3.9373,-3.9373,-3.9373,-3.9439,-3.9463,-3.9463,-3.9529,-3.9619,-4.0247,-4.0457,-4.0457,0.0,0.0,-6.2381,-6.2381,-6.2381,-6.2381,-6.2381,-6.2381,-6.2381,-6.2381,-6.2381,-6.2381,-6.2381,-6.2381,-6.2381,-6.2381,-6.2381,-6.2381,-6.2381,-6.2245,-6.2144,-6.2144,-6.1434,-6.1028,-6.1028,-6.025,-5.9573,-5.9032,-5.8084,-5.7543,-5.7374,-5.6799,-5.6562,-5.6528,-5.5953,-5.5681,-5.575,-5.6325,-5.6224,-5.5749,-5.6325,-5.6224,-5.5647,-5.5513,-5.5446,-5.5446,-5.5243,-5.4837,-5.4329,-5.4329,-5.3957,-5.3484,-5.3281,-5.3213,-5.2909,-5.1386,-5.0541,-5.0067,-4.9864,-4.856,-4.7104,-4.6384,-4.4713,-4.329,-4.329,-4.317,-4.297,-4.25,-4.2141,-4.1632,-4.0576,-4.0277,-3.9559,-3.7704,-3.6896,-3.537,-3.2198,-3.1899,0.0,0.0,-3.0432,-3.1091,-3.0404,-3.2168,-3.2646,0.0,0.0,0.0,0.0,-3.2317,-3.3066,-3.519,-3.7015,-3.8332,-3.917,-3.9313,-3.9373,-3.9373,-3.9373,-3.9373,-3.9373,-3.9373,-3.9373,-3.9373,-3.9373,-3.9373,-3.9373,-3.9373,-3.9709,-4.0157,-4.0157,-4.0487,-4.0935,-4.1085,-4.1145,-4.1145,-6.2381,-6.2381,-6.2381,-6.2381,-6.2381,-6.2381,-6.2381,-6.2381,-6.2381,-6.2381,-6.2381,-6.2381,-6.2381,-6.2381,-6.2381,-6.2381,-6.2381,-6.2381,-6.2381,-6.2381,-6.2381,-6.2381,-6.2009,-6.1806,-6.1806,-6.1028,-6.0283,-5.9505,-5.8761,-5.8389,-5.8389,-5.7645,-5.7306,-5.7273,-5.69,-5.6697,-5.6731,-5.7137,-5.707,-5.6731,-5.7137,-5.707,-5.6664,-5.6325,-5.6224,-5.6156,-5.5817,-5.5446,-5.504,-5.4702,-5.4329,-5.3923,-5.3619,-5.3518,-5.3348,-5.2503,-5.1725,-5.0947,-5.027,-4.9123,-4.7698,-4.5985,-4.4781,-4.3849,-4.3409,-4.329,-4.32,-4.288,-4.262,-4.2081,-4.1025,-4.0606,-3.9649,-3.7375,-3.6178,-3.4622,-3.1899,-3.154,0.0,-3.0971,-3.2407,-3.3395,-3.3334,-3.4831,-3.51,-3.3365,-3.4173,0.0,-3.4741,-3.537,-3.5938,-3.6357,-3.7674,-3.8721,-3.9373,-3.9373,-3.9373,-3.9373,-3.9373,-3.9373,-3.9373,-3.9373,-3.9373,-3.9373,-3.9373,-3.9373,-3.9403,-3.9738,-4.0068,-4.0427,-4.0726,-4.1055,-4.1452,-4.1752,-4.1871,-4.1871,-6.2381,-6.2381,-6.2381,-6.2381,-6.2381,-6.2381,-6.2381,-6.2381,-6.2381,-6.2381,-6.2381,-6.2381,-6.2381,-6.2381,-6.2381,-6.2381,-6.2381,-6.2381,-6.2381,-6.2381,-6.2381,-6.2381,-6.2381,-6.2381,-6.2381,-6.167,-6.096,-6.0283,-5.9539,-5.9167,-5.9167,-5.8524,-5.8152,-5.8051,-5.8051,-5.7983,-5.7881,-5.7881,-5.7881,-5.7881,-5.7881,-5.7881,-5.7814,-5.7205,-5.6968,-5.69,-5.6258,-5.5987,-5.5784,-5.5141,-5.4871,-5.4634,-5.389,-5.3687,-5.3653,-5.3551,-5.301,-5.2131,-5.0617,-4.9261,-4.7672,-4.5378,-4.4699,-4.4358,-4.3488,-4.329,-4.329,-4.329,-4.288,-4.2351,-4.1692,-4.0995,-3.9649,-3.6926,-3.5462,-3.3873,-3.166,0.0,-3.148,-3.2527,-3.4083,-3.525,-3.5759,-3.6866,-3.7345,-3.6806,-3.7255,-3.7554,-3.7554,-3.8182,-3.8242,-3.7584,-3.8212,-3.8811,-3.9373,-3.9373,-3.9373,-3.9373,-3.9373,-3.9373,-3.9373,-3.9373,-3.9469,-3.9559,-3.9559,-3.9619,-3.9768,-4.0307,-4.0606,-4.0756,-4.1362,-4.1594,-4.1743,-4.2351,-4.256,-4.256,-6.2381,-6.2381,-6.2381,-6.2381,-6.2381,-6.2381,-6.2381,-6.2381,-6.2381,-6.2381,-6.2381,-6.2381,-6.2381,-6.2381,-6.2381,-6.2381,-6.2381,-6.2381,-6.2381,-6.2381,-6.2381,-6.2381,-6.2381,-6.2381,-6.2381,-6.167,-6.1231,-6.1129,-6.0317,-5.9945,-5.9945,-5.981,-5.9438,-5.8829,-5.8829,-5.849,-5.7881,-5.7881,-5.7881,-5.7881,-5.7881,-5.7881,-5.7881,-5.7746,-5.7712,-5.7712,-5.7577,-5.7171,-5.663,-5.6494,-5.6055,-5.5412,-5.4668,-5.4431,-5.4296,-5.3687,-5.3416,-5.2944,-5.1154,-4.849,-4.5928,-4.5042,-4.4128,-4.3488,-4.3329,-4.329,-4.329,-4.329,-4.323,-4.297,-4.2381,-4.1722,-4.0187,-3.7015,-3.5848,-3.4262,-3.112,0.0,-3.3724,-3.3395,-3.5968,-3.7614,-3.7165,-3.7793,-3.8212,-3.8093,-3.8182,-3.8242,-3.8242,-3.8901,-3.896,-3.8272,-3.8901,-3.9284,-3.9373,-3.9373,-3.9373,-3.9373,-3.9373,-3.9373,-3.9373,-3.9373,-3.9738,-4.0247,-4.0247,-4.0576,-4.1085,-4.1175,-4.1602,-4.2111,-4.2201,-4.2551,-4.3021,-4.311,-4.314,-4.314,-6.2381,-6.2381,-6.2381,-6.2381,-6.2381,-6.2381,-6.2381,-6.2381,-6.2381,-6.2381,-6.2381,-6.2381,-6.2381,-6.2381,-6.2381,-6.2381,-6.2381,-6.2381,-6.2381,-6.2381,-6.2381,-6.2381,-6.2381,-6.2381,-6.2381,-6.2076,-6.1873,-6.1873,-6.1129,-6.0757,-6.0757,-6.0317,-5.9911,-5.9607,-5.9607,-5.9404,-5.9066,-5.866,-5.849,-5.8457,-5.8051,-5.7881,-5.7881,-5.7881,-5.7881,-5.7881,-5.7881,-5.7679,-5.734,-5.6934,-5.6562,-5.6156,-5.5446,-5.4905,-5.4532,-5.4194,-5.3518,-5.2539,-5.1179,-4.9082,-4.6989,-4.5597,-4.468,-4.3966,-4.3409,-4.329,-4.329,-4.329,-4.329,-4.315,-4.253,-4.1871,-4.0666,-3.8422,-3.6327,0.0,0.0,-3.3844,-3.4352,-3.5459,-3.7255,-3.8422,-3.8482,-3.8781,-3.8931,-3.8931,-3.8931,-3.8931,-3.8931,-3.926,-3.926,-3.896,-3.926,-3.9373,-3.9373,-3.9373,-3.9373,-3.9373,-3.9768,-3.9948,-3.9948,-4.0307,-4.0636,-4.0935,-4.0935,-4.1085,-4.1452,-4.1811,-4.2141,-4.244,-4.2761,-4.306,-4.329,-4.329,-4.329,-4.329,-6.2381,-6.2381,-6.2381,-6.2381,-6.2381,-6.2381,-6.2381,-6.2381,-6.2381,-6.2381,-6.2381,-6.2381,-6.2381,-6.2381,-6.2381,-6.2381,-6.2381,-6.2381,-6.2381,-6.2381,-6.2381,-6.2381,-6.2381,-6.2381,-6.2381,-6.2381,-6.2381,-6.2381,-6.1839,-6.1569,-6.1535,-6.0926,-6.0554,-6.0385,-6.0385,-6.0283,-6.0047,-5.9505,-5.9268,-5.9235,-5.8626,-5.8287,-5.8152,-5.8152,-5.8051,-5.7881,-5.7881,-5.7881,-5.7814,-5.7239,-5.707,-5.6934,-5.619,-5.5581,-5.504,-5.4702,-5.3653,-5.2303,-5.1148,-4.9695,-4.8042,-4.6216,-4.521,-4.4458,-4.3518,-4.329,-4.329,-4.329,-4.329,-4.314,-4.2671,-4.2081,-4.1115,-3.9649,0.0,0.0,0.0,-3.5549,-3.5609,-3.7644,-3.8601,-3.929,-3.9828,-3.9738,-3.9649,-3.9649,-3.9499,-3.9373,-3.9373,-3.9373,-3.9373,-3.9373,-3.9373,-3.9373,-3.9373,-3.9559,-3.9649,-3.9649,-4.0307,-4.0636,-4.0636,-4.1145,-4.1512,-4.1662,-4.1662,-4.1683,-4.1863,-4.2372,-4.262,-4.2641,-4.315,-4.329,-4.329,-4.329,-4.329,-4.329,-6.2381,-6.2381,-6.2381,-6.2381,-6.2381,-6.2381,-6.2381,-6.2381,-6.2381,-6.2381,-6.2381,-6.2381,-6.2381,-6.2381,-6.2381,-6.2381,-6.2381,-6.2381,-6.2381,-6.2381,-6.2381,-6.2381,-6.2381,-6.2381,-6.2381,-6.2381,-6.2381,-6.2381,-6.2347,-6.2313,-6.2313,-6.2245,-6.1873,-6.1231,-6.1231,-6.0791,-6.0114,-6.0047,-6.0013,-6.0013,-5.9945,-5.9539,-5.893,-5.893,-5.849,-5.7881,-5.7881,-5.7881,-5.7881,-5.7814,-5.7814,-5.7679,-5.6934,-5.6697,-5.6359,-5.5006,-5.4025,-5.3011,-5.1383,-4.94,-4.7551,-4.6229,-4.5074,-4.4158,-4.3479,-4.329,-4.329,-4.329,-4.329,-4.329,-4.323,-4.2731,-4.1692,-3.9738,0.0,0.0,-3.6716,-3.7913,-3.905,-3.9224,-4.0397,-4.1212,-4.1235,-4.0696,-4.0337,-4.0337,-3.9768,-3.9373,-3.9373,-3.9373,-3.9373,-3.9373,-3.9373,-3.9373,-3.9373,-4.0038,-4.0337,-4.0337,-4.0995,-4.1362,-4.1362,-4.1392,-4.1752,-4.2321,-4.2321,-4.2641,-4.314,-4.32,-4.323,-4.323,-4.326,-4.329,-4.329,-4.329,-4.329,-4.329,-6.2381,-6.2381,-6.2381,-6.2381,-6.2381,-6.2381,-6.2381,-6.2381,-6.2381,-6.2381,-6.2381,-6.2381,-6.2381,-6.2381,-6.2381,-6.2381,-6.2381,-6.2381,-6.2381,-6.2381,-6.2381,-6.2381,-6.2381,-6.2381,-6.2381,-6.2381,-6.2381,-6.2381,-6.2381,-6.2381,-6.2381,-6.2381,-6.2245,-6.1975,-6.1975,-6.1806,-6.1501,-6.1028,-6.0858,-6.0791,-6.0317,-5.9945,-5.9674,-5.9674,-5.9235,-5.8592,-5.8592,-5.8287,-5.7881,-5.7881,-5.7881,-5.7848,-5.7577,-5.7171,-5.6528,-5.504,-5.4397,-5.3923,-5.2841,-5.0663,-4.8401,-4.6912,-4.5401,-4.4137,-4.3439,-4.329,-4.329,-4.329,-4.329,-4.329,-4.329,-4.2791,-4.2291,-4.1855,0.0,-3.9589,-4.0104,-3.9709,-3.9738,-4.0546,-4.1085,-4.1422,-4.1422,-4.1145,-4.0995,-4.0995,-4.0786,-4.0636,-4.0636,-4.0636,-4.0636,-4.0636,-4.0636,-4.0427,-4.0038,-4.0277,-4.0606,-4.1025,-4.1722,-4.2021,-4.2051,-4.2402,-4.2731,-4.297,-4.297,-4.312,-4.329,-4.329,-4.329,-4.329,-4.329,-4.329,-4.329,-4.329,-4.329,-4.329,-6.2381,-6.2381,-6.2381,-6.2381,-6.2381,-6.2381,-6.2381,-6.2381,-6.2381,-6.2381,-6.2381,-6.2381,-6.2381,-6.2381,-6.2381,-6.2381,-6.2381,-6.2381,-6.2381,-6.2381,-6.2381,-6.2381,-6.2381,-6.2381,-6.2381,-6.2381,-6.2381,-6.2381,-6.2381,-6.2381,-6.2381,-6.2381,-6.2381,-6.2381,-6.2381,-6.2381,-6.2347,-6.1873,-6.1637,-6.1603,-6.1028,-6.0689,-6.0486,-6.0486,-6.0013,-5.9336,-5.9099,-5.8693,-5.822,-5.7983,-5.7881,-5.7881,-5.7881,-5.7374,-5.6596,-5.5581,-5.4938,-5.4396,-5.3581,-5.1579,-4.9387,-4.804,-4.6168,-4.4436,-4.3738,-4.3439,-4.329,-4.329,-4.329,-4.329,-4.329,-4.297,-4.2821,-4.323,-4.1795,-4.1115,-4.2491,-4.1504,-4.0995,-4.1893,-4.1983,-4.1983,-4.1983,-4.1841,-4.1722,-4.1722,-4.1542,-4.1422,-4.1422,-4.1422,-4.1422,-4.1422,-4.1422,-4.1265,-4.1025,-4.1025,-4.1235,-4.1722,-4.2342,-4.2671,-4.2671,-4.312,-4.329,-4.329,-4.329,-4.329,-4.329,-4.329,-4.329,-4.329,-4.329,-4.329,-4.329,-4.329,-4.329,-4.329,-6.2381,-6.2381,-6.2381,-6.2381,-6.2381,-6.2381,-6.2381,-6.2381,-6.2381,-6.2381,-6.2381,-6.2381,-6.2381,-6.2381,-6.2381,-6.2381,-6.2381,-6.2381,-6.2381,-6.2381,-6.2381,-6.2381,-6.2381,-6.2381,-6.2381,-6.2381,-6.2381,-6.2381,-6.2381,-6.2381,-6.2381,-6.2381,-6.2381,-6.2381,-6.2381,-6.2381,-6.2381,-6.2381,-6.2381,-6.2381,-6.2381,-6.1941,-6.1298,-6.1298,-6.0825,-6.0013,-5.9302,-5.9032,-5.8896,-5.8152,-5.7915,-5.7881,-5.7881,-5.7408,-5.6799,-5.6799,-5.575,-5.4394,-5.3301,-5.1745,-5.0237,-4.9576,-4.7331,-4.5125,-4.4466,-4.3768,-4.329,-4.329,-4.329,-4.329,-4.329,-4.329,-4.329,-4.329,-4.329,-4.329,-4.329,-4.329,-4.329,-4.329,-4.329,-4.329,-4.329,-4.2761,-4.241,-4.241,-4.1811,-4.1384,-4.1384,-4.1384,-4.1384,-4.1384,-4.1384,-4.1752,-4.241,-4.241,-4.241,-4.241,-4.303,-4.329,-4.329,-4.329,-4.329,-4.329,-4.329,-4.329,-4.329,-4.329,-4.329,-4.329,-4.329,-4.329,-4.329,-4.329,-4.329,-4.329,-6.2381,-6.2381,-6.2381,-6.2381,-6.2381,-6.2381,-6.2381,-6.2381,-6.2381,-6.2381,-6.2381,-6.2381,-6.2381,-6.2381,-6.2381,-6.2381,-6.2381,-6.2381,-6.2381,-6.2381,-6.2381,-6.2381,-6.2381,-6.2381,-6.2381,-6.2381,-6.2381,-6.2381,-6.2381,-6.2381,-6.2381,-6.2381,-6.2381,-6.2381,-6.2381,-6.2381,-6.2381,-6.2381,-6.2381,-6.2381,-6.2381,-6.2245,-6.2076,-6.2076,-6.1603,-6.0926,-6.0689,-6.025,-5.9674,-5.893,-5.8693,-5.8592,-5.8051,-5.7746,-5.7476,-5.6934,-5.6494,-5.5673,-5.3566,-5.214,-5.0728,-4.8742,-4.713,-4.5843,-4.5155,-4.4496,-4.4018,-4.4018,-4.3618,-4.329,-4.329,-4.329,-4.329,-4.329,-4.329,-4.329,-4.329,-4.329,-4.329,-4.329,-4.329,-4.329,-4.329,-4.311,-4.303,-4.303,-4.2851,-4.2761,-4.2761,-4.2761,-4.2761,-4.2761,-4.2761,-4.2851,-4.303,-4.262,-4.262,-4.303,-4.32,-4.329,-4.329,-4.329,-4.329,-4.329,-4.329,-4.329,-4.329,-4.329,-4.329,-4.329,-4.329,-4.329,-4.329,-4.329,-4.329,-4.329,-6.2381,-6.2381,-6.2381,-6.2381,-6.2381,-6.2381,-6.2381,-6.2381,-6.2381,-6.2381,-6.2381,-6.2381,-6.2381,-6.2381,-6.2381,-6.2381,-6.2381,-6.2381,-6.2381,-6.2381,-6.2381,-6.2381,-6.2381,-6.2381,-6.2381,-6.2381,-6.2381,-6.2381,-6.2381,-6.2381,-6.2381,-6.2381,-6.2381,-6.2381,-6.2381,-6.2381,-6.2381,-6.2381,-6.2381,-6.2381,-6.2381,-6.2381,-6.2381,-6.2381,-6.211,-6.1704,-6.14,-6.0994,-6.0452,-5.9708,-5.9268,-5.8896,-5.8118,-5.7881,-5.7707,-5.6831,-5.6679,-5.6203,-5.3343,-5.2034,-5.0953,-4.8594,-4.7159,-4.6202,-4.5813,-4.5185,-4.4616,-4.4377,-4.3988,-4.3589,-4.3349,-4.329,-4.329,-4.329,-4.329,-4.329,-4.329,-4.329,-4.329,-4.329,-4.329,-4.329,-4.329,-4.329,-4.329,-4.329,-4.329,-4.329,-4.329,-4.329,-4.329,-4.329,-4.329,-4.329,-4.329,-4.294,-4.294,-4.329,-4.329,-4.329,-4.329,-4.329,-4.329,-4.329,-4.329,-4.329,-4.329,-4.329,-4.329,-4.329,-4.329,-4.329,-4.329,-4.329,-4.329,-4.329,-6.2381,-6.2381,-6.2381,-6.2381,-6.2381,-6.2381,-6.2381,-6.2381,-6.2381,-6.2381,-6.2381,-6.2381,-6.2381,-6.2381,-6.2381,-6.2381,-6.2381,-6.2381,-6.2381,-6.2381,-6.2381,-6.2381,-6.2381,-6.2381,-6.2381,-6.2381,-6.2381,-6.2381,-6.2381,-6.2381,-6.2381,-6.2381,-6.2381,-6.2381,-6.2381,-6.2381,-6.2381,-6.2381,-6.2381,-6.2381,-6.2381,-6.2381,-6.2381,-6.2381,-6.2381,-6.2313,-6.1637,-6.14,-6.1264,-6.0486,-5.9708,-5.8964,-5.822,-5.7983,-5.7766,-5.6547,-5.6458,-5.6033,-5.2744,-5.1706,-5.1023,-4.8836,-4.7399,-4.6429,-4.6369,-4.5873,-4.5214,-4.4616,-4.4407,-4.4137,-4.3499,-4.3319,-4.329,-4.329,-4.329,-4.329,-4.329,-4.329,-4.329,-4.329,-4.329,-4.329,-4.329,-4.329,-4.329,-4.329,-4.329,-4.329,-4.329,-4.329,-4.329,-4.329,-4.329,-4.329,-4.329,-4.329,-4.329,-4.329,-4.329,-4.329,-4.329,-4.329,-4.329,-4.329,-4.329,-4.329,-4.329,-4.329,-4.329,-4.329,-4.329,-4.329,-4.329,-4.329,-4.329,-4.329,-6.2381,-6.2381,-6.2381,-6.2381,-6.2381,-6.2381,-6.2381,-6.2381,-6.2381,-6.2381,-6.2381,-6.2381,-6.2381,-6.2381,-6.2381,-6.2381,-6.2381,-6.2381,-6.2381,-6.2381,-6.2381,-6.2381,-6.2381,-6.2381,-6.2381,-6.2381,-6.2381,-6.2381,-6.2381,-6.2381,-6.2381,-6.2381,-6.2381,-6.2381,-6.2381,-6.2381,-6.2381,-6.2381,-6.2381,-6.2381,-6.2381,-6.2381,-6.2381,-6.2381,-6.2381,-6.2381,-6.2212,-6.2144,-6.2042,-6.1298,-6.052,-5.9742,-5.8998,-5.8761,-5.844,-5.6713,-5.6261,-5.5686,-5.2733,-5.1876,-5.1239,-4.8903,-4.8087,-4.7728,-4.7219,-4.6561,-4.6052,-4.5891,-4.5035,-4.4257,-4.4137,-4.3648,-4.329,-4.329,-4.329,-4.329,-4.329,-4.329,-4.329,-4.329,-4.329,-4.329,-4.329,-4.329,-4.329,-4.329,-4.329,-4.329,-4.329,-4.329,-4.329,-4.329,-4.329,-4.329,-4.329,-4.329,-4.329,-4.329,-4.329,-4.329,-4.329,-4.329,-4.329,-4.329,-4.329,-4.329,-4.329,-4.329,-4.329,-4.329,-4.329,-4.329,-4.329,-4.329,-4.329,-4.329,-6.2381,-6.2381,-6.2381,-6.2381,-6.2381,-6.2381,-6.2381,-6.2381,-6.2381,-6.2381,-6.2381,-6.2381,-6.2381,-6.2381,-6.2381,-6.2381,-6.2381,-6.2381,-6.2381,-6.2381,-6.2381,-6.2381,-6.2381,-6.2381,-6.2381,-6.2381,-6.2381,-6.2381,-6.2381,-6.2381,-6.2381,-6.2381,-6.2381,-6.2381,-6.2381,-6.2381,-6.2381,-6.2381,-6.2381,-6.2381,-6.2381,-6.2381,-6.2381,-6.2381,-6.2381,-6.2381,-6.2381,-6.2381,-6.2279,-6.1535,-6.1028,-6.0486,-5.937,-5.9032,-5.853,-5.6158,-5.581,-5.552,-5.2423,-5.1717,-5.1462,-4.9689,-4.8745,-4.8117,-4.7459,-4.704,-4.6711,-4.6381,-4.5711,-4.5065,-4.4436,-4.3977,-4.3648,-4.3349,-4.329,-4.329,-4.329,-4.329,-4.329,-4.329,-4.329,-4.329,-4.329,-4.329,-4.329,-4.329,-4.329,-4.329,-4.329,-4.329,-4.329,-4.329,-4.329,-4.329,-4.329,-4.329,-4.329,-4.329,-4.329,-4.329,-4.329,-4.329,-4.329,-4.329,-4.329,-4.329,-4.329,-4.329,-4.329,-4.329,-4.329,-4.329,-4.329,-4.329,-4.329,-4.329,-6.2381,-6.2381,-6.2381,-6.2381,-6.2381,-6.2381,-6.2381,-6.2381,-6.2381,-6.2381,-6.2381,-6.2381,-6.2381,-6.2381,-6.2381,-6.2381,-6.2381,-6.2381,-6.2381,-6.2381,-6.2381,-6.2381,-6.2381,-6.2381,-6.2381,-6.2381,-6.2381,-6.2381,-6.2381,-6.2381,-6.2381,-6.2381,-6.2381,-6.2381,-6.2381,-6.2381,-6.2381,-6.2381,-6.2381,-6.2381,-6.2381,-6.2381,-6.2381,-6.2381,-6.2381,-6.2381,-6.2381,-6.2381,-6.2313,-6.167,-6.1501,-6.1231,-5.9844,-5.919,-5.8394,-5.5595,-5.519,-5.5011,-5.2018,-5.1486,-5.1536,-5.0471,-4.9434,-4.8416,-4.7638,-4.7399,-4.716,-4.6621,-4.6411,-4.595,-4.4855,-4.4466,-4.4137,-4.3559,-4.3349,-4.329,-4.329,-4.329,-4.329,-4.329,-4.329,-4.329,-4.329,-4.329,-4.329,-4.329,-4.329,-4.329,-4.329,-4.329,-4.329,-4.329,-4.329,-4.329,-4.329,-4.329,-4.329,-4.329,-4.329,-4.329,-4.329,-4.329,-4.329,-4.329,-4.329,-4.329,-4.329,-4.329,-4.329,-4.329,-4.329,-4.329,-4.329,-4.329,-4.329,-4.329,-6.2381,-6.2381,-6.2381,-6.2381,-6.2381,-6.2381,-6.2381,-6.2381,-6.2381,-6.2381,-6.2381,-6.2381,-6.2381,-6.2381,-6.2381,-6.2381,-6.2381,-6.2381,-6.2381,-6.2381,-6.2381,-6.2381,-6.2381,-6.2381,-6.2381,-6.2381,-6.2381,-6.2381,-6.2381,-6.2381,-6.2381,-6.2381,-6.2381,-6.2381,-6.2381,-6.2381,-6.2381,-6.2381,-6.2381,-6.2381,-6.2381,-6.2381,-6.2381,-6.2381,-6.2381,-6.2381,-6.2381,-6.2381,-6.2381,-6.2279,-6.2245,-6.211,-6.1264,-5.9873,-5.8155,-5.6131,-5.4516,-5.3033,-5.1588,-5.1233,-5.1116,-5.0361,-5.0046,-4.9643,-4.8446,-4.7728,-4.7279,-4.7189,-4.6711,-4.6219,-4.604,-4.5095,-4.4287,-4.4197,-4.3678,-4.329,-4.329,-4.329,-4.329,-4.329,-4.329,-4.329,-4.329,-4.329,-4.329,-4.329,-4.329,-4.329,-4.329,-4.329,-4.329,-4.329,-4.329,-4.329,-4.329,-4.329,-4.329,-4.329,-4.329,-4.329,-4.329,-4.329,-4.329,-4.329,-4.329,-4.329,-4.329,-4.329,-4.329,-4.329,-4.329,-4.329,-4.329,-4.329,-4.329,-4.329,-6.2381,-6.2381,-6.2381,-6.2381,-6.2381,-6.2381,-6.2381,-6.2381,-6.2381,-6.2381,-6.2381,-6.2381,-6.2381,-6.2381,-6.2381,-6.2381,-6.2381,-6.2381,-6.2381,-6.2381,-6.2381,-6.2381,-6.2381,-6.2381,-6.2381,-6.2381,-6.2381,-6.2381,-6.2381,-6.2381,-6.2381,-6.2381,-6.2381,-6.2381,-6.2381,-6.2381,-6.2381,-6.2381,-6.2381,-6.2381,-6.2381,-6.2381,-6.2381,-6.2381,-6.2381,-6.2381,-6.2381,-6.2381,-6.2381,-6.2381,-6.2381,-6.2245,-6.1535,-6.0257,-5.8643,-5.6347,-5.4648,-5.3127,-5.1616,-5.1229,-5.1139,-5.0823,-5.0465,-4.9956,-4.9045,-4.8327,-4.7758,-4.7369,-4.707,-4.677,-4.6339,-4.5843,-4.5185,-4.4436,-4.4077,-4.3708,-4.3349,-4.329,-4.329,-4.329,-4.329,-4.329,-4.329,-4.329,-4.329,-4.329,-4.329,-4.329,-4.329,-4.329,-4.329,-4.329,-4.329,-4.329,-4.329,-4.329,-4.329,-4.329,-4.329,-4.329,-4.329,-4.329,-4.329,-4.329,-4.329,-4.329,-4.329,-4.329,-4.329,-4.329,-4.329,-4.329,-4.329,-4.329,-4.329,-4.329]},{"header":{"parameterUnit":"m.s-1","parameterCategory":1,"la1":30.6,"la2":28.766,"lo1":-90.7593,"lo2":-88.6598,"dy":0.0162,"dx":0.0183,"nx":116,"ny":114,"refTime":"2024-05-30T12:00:00:Z","depth":0,"parameterNumber":3,"parameterNumberName":"V-component_of_WINDS"},"data":[0.0,0.0,0.0,0.0,0.0,0.0,0.0,0.0,0.0,0.0,0.0,0.0,0.0,0.0,0.0,0.0,0.0,0.0,0.0,0.0,0.0,0.0,0.0,0.0,0.0,0.0,0.0,0.0,0.0,0.0,0.0,0.0,0.0,0.0,0.0,0.0,0.0,0.0,0.0,0.0,0.0,0.0,0.0,0.0,0.0,0.0,0.0,0.0,0.0,0.0,0.0,0.0,0.0,0.0,0.0,0.0,0.0,0.0,0.0,0.0,0.0,0.0,0.0,0.0,0.0,0.0,0.0,0.0,0.0,0.0,0.0,0.0,0.0,0.0,0.0,0.0,0.0,0.0,0.0,0.0,0.0,0.0,0.0,0.0,0.0,0.0,0.0,0.0,0.0,0.0,0.0,0.0,0.0,0.0,0.0,0.0,0.0,0.0,0.0,0.0,0.0,0.0,0.0,0.0,0.0,0.0,0.0,0.0,0.0,0.0,0.0,0.0,0.0,0.0,0.0,0.0,0.0,0.0,0.0,0.0,0.0,0.0,0.0,0.0,0.0,0.0,0.0,0.0,0.0,0.0,0.0,0.0,0.0,0.0,0.0,0.0,0.0,0.0,0.0,0.0,0.0,0.0,0.0,0.0,0.0,0.0,0.0,0.0,0.0,0.0,0.0,0.0,0.0,0.0,0.0,0.0,0.0,0.0,0.0,0.0,0.0,0.0,0.0,0.0,0.0,0.0,0.0,0.0,0.0,0.0,0.0,0.0,0.0,0.0,0.0,0.0,0.0,0.0,0.0,0.0,0.0,0.0,0.0,0.0,0.0,0.0,0.0,0.0,0.0,0.0,0.0,0.0,0.0,0.0,0.0,0.0,0.0,0.0,0.0,0.0,0.0,0.0,0.0,0.0,0.0,0.0,0.0,0.0,0.0,0.0,0.0,0.0,0.0,0.0,0.0,0.0,0.0,0.0,0.0,0.0,0.0,0.0,0.0,0.0,0.0,0.0,0.0,0.0,0.0,0.0,0.0,0.0,0.0,0.0,0.0,0.0,0.0,0.0,0.0,0.0,0.0,0.0,0.0,0.0,0.0,0.0,0.0,0.0,0.0,0.0,0.0,0.0,0.0,0.0,0.0,0.0,0.0,0.0,0.0,0.0,0.0,0.0,0.0,0.0,0.0,0.0,0.0,0.0,0.0,0.0,0.0,0.0,0.0,0.0,0.0,0.0,0.0,0.0,0.0,0.0,0.0,0.0,0.0,0.0,0.0,0.0,0.0,0.0,0.0,0.0,0.0,0.0,0.0,0.0,0.0,0.0,0.0,0.0,0.0,0.0,0.0,0.0,0.0,0.0,0.0,0.0,0.0,0.0,0.0,0.0,0.0,0.0,0.0,0.0,0.0,0.0,0.0,0.0,0.0,0.0,0.0,0.0,0.0,0.0,0.0,0.0,0.0,0.0,0.0,0.0,0.0,0.0,0.0,0.0,0.0,0.0,0.0,0.0,0.0,0.0,0.0,0.0,0.0,0.0,0.0,0.0,0.0,0.0,0.0,0.0,0.0,0.0,0.0,0.0,0.0,0.0,0.0,0.0,0.0,0.0,0.0,0.0,0.0,0.0,0.0,0.0,0.0,0.0,0.0,0.0,0.0,0.0,0.0,0.0,0.0,0.0,0.0,0.0,0.0,0.0,0.0,0.0,0.0,0.0,0.0,0.0,0.0,0.0,0.0,0.0,0.0,0.0,0.0,0.0,0.0,0.0,0.0,0.0,0.0,0.0,0.0,0.0,0.0,0.0,0.0,0.0,0.0,0.0,0.0,0.0,0.0,0.0,0.0,0.0,0.0,0.0,0.0,0.0,0.0,0.0,0.0,0.0,0.0,0.0,0.0,0.0,0.0,0.0,0.0,0.0,0.0,0.0,0.0,0.0,0.0,0.0,0.0,0.0,0.0,0.0,0.0,0.0,0.0,0.0,0.0,0.0,0.0,0.0,0.0,0.0,0.0,0.0,0.0,0.0,0.0,0.0,0.0,0.0,0.0,0.0,0.0,0.0,0.0,0.0,0.0,0.0,0.0,0.0,0.0,0.0,0.0,0.0,0.0,0.0,0.0,0.0,0.0,0.0,0.0,0.0,0.0,0.0,0.0,0.0,0.0,0.0,0.0,0.0,0.0,0.0,0.0,0.0,0.0,0.0,0.0,0.0,0.0,0.0,0.0,0.0,0.0,0.0,0.0,0.0,0.0,0.0,0.0,0.0,0.0,0.0,0.0,0.0,0.0,0.0,0.0,0.0,0.0,0.0,0.0,0.0,0.0,0.0,0.0,0.0,0.0,0.0,0.0,0.0,0.0,0.0,0.0,0.0,0.0,0.0,0.0,0.0,0.0,0.0,0.0,0.0,0.0,0.0,0.0,0.0,0.0,0.0,0.0,0.0,0.0,0.0,0.0,0.0,0.0,0.0,0.0,0.0,0.0,0.0,0.0,0.0,0.0,0.0,0.0,0.0,0.0,0.0,0.0,0.0,0.0,0.0,0.0,0.0,0.0,0.0,0.0,0.0,0.0,0.0,0.0,0.0,0.0,0.0,0.0,0.0,0.0,0.0,0.0,0.0,0.0,0.0,0.0,0.0,0.0,0.0,0.0,0.0,0.0,0.0,0.0,0.0,0.0,0.0,0.0,0.0,0.0,0.0,0.0,0.0,0.0,0.0,0.0,0.0,0.0,0.0,0.0,0.0,0.0,0.0,0.0,0.0,0.0,0.0,0.0,0.0,0.0,0.0,0.0,0.0,0.0,0.0,0.0,0.0,0.0,0.0,0.0,0.0,0.0,0.0,0.0,0.0,0.0,0.0,0.0,0.0,0.0,0.0,0.0,0.0,0.0,0.0,0.0,0.0,0.0,0.0,0.0,0.0,0.0,0.0,0.0,0.0,0.0,0.0,0.0,0.0,0.0,0.0,0.0,0.0,0.0,0.0,0.0,0.0,0.0,0.0,0.0,0.0,0.0,0.0,0.0,0.0,0.0,0.0,0.0,0.0,0.0,0.0,0.0,0.0,0.0,0.0,0.0,0.0,0.0,0.0,0.0,0.0,0.0,0.0,0.0,0.0,0.0,0.0,0.0,0.0,0.0,0.0,0.0,0.0,0.0,0.0,0.0,0.0,0.0,0.0,0.0,0.0,0.0,0.0,0.0,0.0,0.0,0.0,0.0,0.0,0.0,0.0,0.0,0.0,0.0,0.0,0.0,0.0,0.0,0.0,0.0,0.0,0.0,0.0,0.0,0.0,0.0,0.0,0.0,0.0,0.0,0.0,0.0,0.0,0.0,0.0,0.0,0.0,0.0,0.0,0.0,0.0,0.0,0.0,0.0,0.0,0.0,0.0,0.0,0.0,0.0,0.0,0.0,0.0,0.0,0.0,0.0,0.0,0.0,0.0,0.0,0.0,0.0,0.0,0.0,0.0,0.0,0.0,0.0,0.0,0.0,0.0,0.0,0.0,0.0,0.0,0.0,0.0,0.0,0.0,0.0,0.0,0.0,0.0,0.0,0.0,0.0,0.0,0.0,0.0,0.0,0.0,0.0,0.0,0.0,0.0,0.0,0.0,0.0,0.0,0.0,0.0,0.0,0.0,0.0,0.0,0.0,0.0,0.0,0.0,0.0,0.0,0.0,0.0,0.0,0.0,0.0,0.0,0.0,0.0,0.0,0.0,0.0,0.0,0.0,0.0,0.0,0.0,0.0,0.0,0.0,0.0,0.0,0.0,0.0,0.0,0.0,0.0,0.0,0.0,0.0,0.0,0.0,0.0,0.0,0.0,0.0,0.0,0.0,0.0,0.0,0.0,0.0,0.0,0.0,0.0,0.0,0.0,0.0,0.0,0.0,0.0,0.0,0.0,0.0,0.0,0.0,0.0,0.0,0.0,0.0,0.0,0.0,0.0,0.0,0.0,0.0,0.0,0.0,0.0,0.0,0.0,0.0,0.0,0.0,0.0,0.0,0.0,0.0,0.0,0.0,0.0,0.0,0.0,0.0,0.0,0.0,0.0,0.0,0.0,0.0,0.0,0.0,0.0,0.0,0.0,0.0,0.0,0.0,0.0,0.0,0.0,0.0,0.0,0.0,0.0,0.0,0.0,0.0,0.0,0.0,0.0,0.0,0.0,0.0,0.0,0.0,0.0,0.0,0.0,0.0,0.0,0.0,0.0,0.0,0.0,0.0,0.0,0.0,0.0,0.0,0.0,0.0,0.0,0.0,0.0,0.0,0.0,0.0,0.0,0.0,0.0,0.0,0.0,0.0,0.0,0.0,0.0,0.0,0.0,0.0,0.0,0.0,0.0,0.0,0.0,0.0,0.0,0.0,0.0,0.0,0.0,0.0,0.0,0.0,0.0,0.0,0.0,0.0,0.0,0.0,0.0,0.0,0.0,0.0,0.0,0.0,0.0,0.0,0.0,0.0,0.0,0.0,0.0,0.0,0.0,0.0,0.0,0.0,0.0,0.0,0.0,0.0,0.0,0.0,0.0,0.0,0.0,0.0,0.0,0.0,0.0,0.0,0.0,0.0,0.0,0.0,0.0,0.0,0.0,0.0,0.0,0.0,0.0,0.0,0.0,0.0,0.0,0.0,0.0,0.0,0.0,0.0,0.0,0.0,0.0,0.0,0.0,0.0,0.0,0.0,0.0,0.0,0.0,0.0,0.0,0.0,0.0,0.0,0.0,0.0,0.0,0.0,0.0,0.0,0.0,0.0,0.0,0.0,0.0,0.0,0.0,0.0,0.0,0.0,0.0,0.0,0.0,0.0,0.0,0.0,0.0,0.0,0.0,0.0,0.0,0.0,0.0,0.0,0.0,0.0,0.0,0.0,0.0,0.0,0.0,0.0,0.0,0.0,0.0,0.0,0.0,0.0,0.0,0.0,0.0,0.0,0.0,0.0,0.0,0.0,0.0,0.0,0.0,0.0,0.0,0.0,0.0,0.0,0.0,0.0,0.0,0.0,0.0,0.0,0.0,0.0,0.0,0.0,0.0,0.0,0.0,0.0,0.0,0.0,0.0,0.0,0.0,0.0,0.0,0.0,0.0,0.0,0.0,0.0,0.0,0.0,0.0,0.0,0.0,0.0,0.0,0.0,0.0,0.0,0.0,0.0,0.0,0.0,0.0,0.0,0.0,0.0,0.0,0.0,0.0,0.0,0.0,0.0,0.0,0.0,0.0,0.0,0.0,0.0,0.0,0.0,0.0,0.0,0.0,0.0,0.0,0.0,0.0,0.0,0.0,0.0,0.0,0.0,0.0,0.0,0.0,0.0,0.0,0.0,0.0,0.0,0.0,0.0,0.0,0.0,0.0,0.0,0.0,0.0,0.0,0.0,0.0,0.0,0.0,0.0,0.0,0.0,0.0,0.0,0.0,0.0,0.0,0.0,0.0,0.0,0.0,0.0,0.0,0.0,0.0,0.0,0.0,0.0,0.0,0.0,0.0,0.0,0.0,0.0,0.0,0.0,0.0,0.0,0.0,0.0,0.0,0.0,0.0,0.0,0.0,0.0,0.0,0.0,0.0,0.0,0.0,0.0,0.0,0.0,0.0,0.0,0.0,0.0,0.0,0.0,0.0,0.0,0.0,0.0,0.0,0.0,0.0,0.0,0.0,0.0,0.0,0.0,0.0,0.0,0.0,0.0,0.0,0.0,0.0,0.0,0.0,0.0,0.0,0.0,0.0,0.0,0.0,0.0,0.0,0.0,0.0,0.0,0.0,0.0,0.0,0.0,0.0,0.0,0.0,0.0,0.0,0.0,0.0,0.0,0.0,0.0,0.0,0.0,0.0,0.0,0.0,0.0,0.0,0.0,0.0,0.0,0.0,0.0,0.0,0.0,0.0,0.0,0.0,0.0,0.0,0.0,0.0,0.0,0.0,0.0,0.0,0.0,0.0,0.0,0.0,0.0,0.0,0.0,0.0,0.0,0.0,0.0,0.0,0.0,0.0,0.0,0.0,0.0,0.0,0.0,0.0,0.0,0.0,0.0,0.0,0.0,0.0,0.0,0.0,0.0,0.0,0.0,0.0,0.0,0.0,0.0,0.0,0.0,0.0,0.0,0.0,0.0,0.0,0.0,0.0,1.5636,0.0,0.0,0.0,0.0,0.0,0.0,0.0,0.0,0.0,0.0,0.0,0.0,0.0,0.0,0.0,0.0,0.0,0.0,0.0,0.0,0.0,0.0,0.0,0.0,0.6081,0.6341,0.6341,0.6583,0.6691,0.6554,0.0,0.0,0.0,0.0,0.0,0.5654,0.5511,0.5859,0.6719,0.6719,0.7168,0.8008,0.7579,0.7299,0.71,0.0,0.0,0.0,0.0,0.0,0.0,0.0,0.0,0.0,0.0,0.0,0.0,0.0,0.0,0.0,0.0,0.0,0.0,0.0,0.0,0.0,0.0,0.0,0.0,0.0,0.0,0.0,0.0,0.0,0.0,0.0,0.0,0.0,0.0,0.0,0.0,0.0,0.0,0.0,0.0,0.0,0.0,0.0,0.0,0.0,0.0,0.0,0.0,0.0,0.0,0.0,0.0,0.0,0.0,0.0,0.0,0.0,0.0,0.0,0.0,0.0,0.0,0.0,0.0,0.0,0.0,0.0,0.0,0.0,0.0,0.0,1.705,0.0,0.0,0.0,0.0,0.0,0.0,0.0,0.0,0.0,0.0,0.0,0.0,0.0,0.0,0.0,0.0,0.0,0.0,0.0,0.0,0.0,0.5466,0.5549,0.6094,0.6499,0.6652,0.6854,0.6884,0.6738,0.6714,0.0,0.0,0.0,0.6021,0.5901,0.5988,0.6621,0.7817,0.8207,0.875,0.9453,0.9609,0.942,0.8912,0.8059,0.0,0.0,0.0,0.0,0.0,0.0,0.0,0.0,0.0,0.0,0.0,0.0,0.0,0.0,0.0,0.0,0.0,0.0,0.0,0.0,0.0,0.0,0.0,0.0,0.0,0.0,0.0,0.0,0.0,0.0,0.0,0.0,0.0,0.0,0.0,0.0,0.0,0.0,0.0,0.0,0.0,0.0,0.0,0.0,0.0,0.0,0.0,0.0,0.0,0.0,0.0,0.0,0.0,0.0,0.0,0.0,0.0,0.0,0.0,0.0,0.0,0.0,0.0,1.9413,2.058,2.2026,2.1912,2.3054,2.4937,2.1578,2.0823,2.1689,0.0,0.0,0.0,0.0,0.0,0.0,0.0,0.0,0.0,0.0,0.0,0.0,0.0,0.0,0.0,0.0,0.0,0.0,0.0,0.0,0.5303,0.5728,0.6053,0.6526,0.7224,0.7211,0.7299,0.7608,0.73,0.0,0.0,0.6659,0.6563,0.6328,0.6719,0.7383,0.8316,1.0156,1.1134,1.1252,1.2034,1.2328,1.2158,0.9841,0.8944,0.917,0.0,0.0,0.0,0.0,0.0,0.0,0.0,0.0,0.0,0.0,0.0,0.0,0.0,0.0,0.0,0.0,0.0,0.0,0.0,0.0,0.0,0.0,0.0,0.0,0.0,0.0,0.0,0.0,0.0,0.0,0.0,0.0,0.0,0.0,0.0,0.0,0.0,0.0,0.0,0.0,0.0,0.9978,1.0072,0.0,0.0,0.0,0.0,0.0,0.0,0.0,0.0,0.0,0.0,0.0,0.0,0.0,1.8649,1.904,2.1733,2.3365,2.3906,2.5241,2.6205,2.687,2.6405,2.6354,2.6693,2.6907,0.0,2.3341,2.2313,0.0,0.0,0.0,0.0,0.0,0.0,0.0,0.0,0.0,0.0,0.0,0.0,0.0,0.0,0.0,0.0,0.0,0.0,0.0,0.0,0.0,0.6733,0.7537,0.7825,0.841,0.86,0.8179,0.8001,0.7527,0.6607,0.6727,0.691,0.7115,0.7578,0.8711,1.0547,1.2187,1.3008,1.3008,1.3398,1.3568,1.351,1.2379,1.1412,1.0546,0.9338,0.0,0.0,0.0,0.0,0.0,0.0,0.0,0.0,0.0,0.0,0.0,0.0,0.0,0.0,0.0,0.0,0.0,0.0,0.0,0.0,0.0,0.0,0.0,0.0,0.0,0.0,0.0,0.0,0.0,0.0,0.0,0.0,0.0,0.0,0.0,0.0,0.0,0.0,0.0,0.9671,1.0726,1.0511,1.2347,1.3011,0.0,0.0,0.0,0.0,0.0,0.0,0.0,0.0,0.0,2.0318,2.1396,2.2449,2.348,2.4782,2.5714,2.6259,2.685,2.7729,2.8692,2.8457,2.8611,2.9036,2.9084,2.8306,2.6968,2.531,2.3698,2.2076,0.0,0.0,0.0,0.0,1.9451,1.9783,0.0,0.0,0.0,0.0,0.0,0.0,0.0,0.0,0.0,0.0,0.0,0.0,0.63,0.7647,0.8639,0.8876,0.9612,0.9786,0.908,0.8781,0.816,0.7103,0.7156,0.7477,0.8032,0.8906,1.0352,1.2379,1.3763,1.4426,1.4445,1.466,1.4718,1.4601,1.4484,1.3633,1.2155,1.0705,0.9856,0.9349,0.0,0.0,0.0,0.0,0.0,0.0,0.0,0.0,0.0,0.0,0.0,0.0,0.0,0.0,0.0,0.0,0.0,0.0,0.0,0.0,0.0,0.0,0.0,0.0,0.0,0.0,0.0,0.0,0.0,0.0,0.0,0.0,0.0,0.0,0.0,0.0,0.0,1.0325,1.1528,1.12,1.3659,1.4695,0.0,0.0,0.0,0.0,0.0,0.0,1.844,1.9365,2.1032,2.3663,2.4164,2.5269,2.7102,2.7128,2.7404,2.7921,2.777,2.8257,2.9262,2.9106,2.9381,2.9947,2.9727,2.9604,2.9465,2.7357,2.6243,2.5667,2.3309,2.1904,2.1302,2.2413,2.2677,2.2899,0.0,0.0,0.0,0.0,0.0,0.0,0.0,0.0,0.0,0.0,0.0,0.6842,0.8129,0.8691,0.9455,1.0663,1.0469,1.041,1.0762,0.9647,0.8943,0.8887,0.8512,0.8512,0.8926,1.0956,1.2281,1.2876,1.4531,1.5323,1.5371,1.618,1.6387,1.5968,1.5527,1.4816,1.3899,1.2593,1.1816,1.1332,0.9874,0.0,0.0,0.0,0.0,0.0,0.0,0.0,0.0,0.0,0.0,0.0,0.0,0.0,0.0,0.0,0.0,0.0,0.0,0.0,0.0,0.0,0.0,0.0,0.0,0.0,0.0,0.0,0.0,0.0,0.0,0.0,0.0,0.0,0.0,0.0,0.0,0.0,0.0,1.2719,1.5401,0.0,0.0,0.0,0.0,1.6599,1.7658,1.8946,2.0467,2.1081,2.2622,2.5407,2.5478,2.6577,2.8762,2.8762,2.9101,2.9654,2.9101,2.885,2.8913,2.8422,2.8206,2.8279,2.9064,2.9399,2.9336,2.8203,2.7003,2.582,2.5107,2.4067,2.3243,2.5299,2.5538,2.5273,0.0,0.0,0.0,0.0,0.0,0.5754,0.531,0.5166,0.5273,0.5733,0.6641,0.7492,0.8191,0.9715,1.0813,1.1194,1.1676,1.18,1.1389,1.041,0.9824,0.9824,0.916,0.9512,1.1034,1.2359,1.3535,1.4512,1.5391,1.5977,1.6239,1.6551,1.6609,1.6484,1.6297,1.6063,1.5654,1.3821,1.2632,1.1895,1.0804,0.9695,0.0,0.0,0.0,0.0,0.0,0.0,0.0,0.0,0.0,0.0,0.0,0.0,0.0,0.0,0.0,0.0,0.0,0.0,0.0,0.0,0.0,0.0,0.0,0.0,0.0,0.0,0.0,0.0,0.0,0.0,0.0,0.0,0.0,0.0,0.0,0.0,0.0,1.5735,1.7716,0.0,1.7289,1.8853,1.9803,1.9499,2.0962,2.2161,2.2842,2.3981,2.5169,2.6409,2.7562,2.8545,2.9334,3.0124,3.0608,3.0809,3.0608,3.0507,3.0507,3.0306,3.0206,3.0245,3.0202,3.0177,3.0075,2.8975,2.843,2.8306,2.8118,2.7482,2.6827,2.7568,2.7644,2.7492,0.0,0.0,0.0,0.0,0.6052,0.5852,0.5433,0.5301,0.5472,0.6156,0.7227,0.8236,0.9022,1.0711,1.184,1.1893,1.2527,1.2661,1.2096,1.1213,1.0743,1.0743,1.0312,1.0878,1.2593,1.3633,1.4629,1.5625,1.6242,1.6692,1.6921,1.7077,1.7058,1.6953,1.6953,1.6843,1.6609,1.5167,1.4075,1.3178,1.2031,1.1074,1.0215,0.0,0.0,0.0,0.0,0.0,0.0,0.0,0.0,0.0,0.0,0.0,0.0,0.0,0.0,0.0,0.0,0.0,0.0,0.0,0.0,0.0,0.0,0.0,0.0,0.0,0.0,0.0,0.0,0.0,0.0,0.0,0.0,0.0,0.0,0.0,1.7526,1.7782,1.9742,2.0736,1.9783,2.1044,2.1935,2.1948,2.3102,2.3929,2.4179,2.5141,2.5951,2.6628,2.7803,2.87,2.9273,3.0066,3.0657,3.1058,3.1058,3.1166,3.1386,3.1386,3.1386,3.1361,3.1035,3.0884,3.0809,3.0055,2.9854,2.9962,2.9384,2.8871,2.8552,2.8825,2.8758,2.8472,0.0,0.0,0.0,0.6578,0.6371,0.6118,0.5929,0.5661,0.5899,0.696,0.7866,0.906,1.0723,1.1697,1.2398,1.2876,1.2915,1.2915,1.2915,1.2074,1.1606,1.1626,1.2031,1.2652,1.3555,1.4785,1.5644,1.6124,1.7005,1.7416,1.7455,1.7812,1.7793,1.7435,1.7435,1.7168,1.6746,1.6726,1.6219,1.5332,1.3633,1.2974,1.2758,0.0,0.0,0.0,0.0,0.0,0.0,0.0,0.0,0.0,0.0,0.0,0.0,0.0,0.0,0.0,0.0,0.0,0.0,0.0,0.0,0.0,0.0,0.0,0.0,0.0,0.0,0.0,0.0,0.0,0.0,0.0,0.0,0.0,1.5654,1.7773,1.9238,1.8812,2.1406,2.2715,2.1424,2.2461,2.3423,2.3769,2.3828,2.4004,2.4414,2.4453,2.494,2.6076,2.6121,2.6941,2.8545,2.8612,2.9235,3.0375,3.0418,3.0779,3.1395,3.1436,3.1436,3.1436,3.1411,3.1411,3.1411,3.1411,3.1085,3.0482,2.8825,2.8172,2.8257,2.9106,2.8856,2.8231,0.0,0.0,0.6723,0.6371,0.6242,0.6055,0.567,0.5539,0.5899,0.696,0.8105,0.9355,1.0762,1.1973,1.2754,1.2895,1.2915,1.2915,1.2915,1.2074,1.1721,1.2031,1.2754,1.3711,1.4863,1.5234,1.5937,1.7044,1.7298,1.7539,1.7832,1.7949,1.7949,1.7832,1.7832,1.7773,1.7603,1.7324,1.707,1.6719,1.5293,1.4336,1.3646,0.0,0.0,0.0,0.0,0.0,0.0,0.0,0.0,0.0,0.0,0.0,0.0,0.0,0.0,0.0,0.0,0.0,0.0,0.0,0.0,0.0,0.0,0.0,0.0,0.0,0.0,0.0,0.0,0.0,0.0,0.0,0.0,1.9316,1.875,2.0371,2.1816,2.2305,2.3379,2.3926,2.3574,2.3867,2.4121,2.4238,2.4531,2.4812,2.4883,2.5195,2.5515,2.5781,2.6707,2.7404,2.7857,2.876,2.933,2.9692,3.0566,3.1069,3.1274,3.2208,3.2616,3.2634,3.2164,3.1989,3.1964,3.1562,3.1311,3.1085,3.0256,2.9679,2.9365,2.9606,2.9277,2.8699,0.0,0.6881,0.6698,0.6415,0.6362,0.6204,0.5745,0.5661,0.6066,0.7209,0.8305,0.957,1.1016,1.223,1.2915,1.2915,1.2915,1.2837,1.2617,1.2328,1.2328,1.273,1.3724,1.4746,1.5664,1.6055,1.6699,1.7637,1.7637,1.7773,1.8008,1.8008,1.8008,1.8008,1.8008,1.8008,1.7988,1.7754,1.7637,1.7559,1.6621,1.584,1.5108,1.4277,1.3613,1.3111,1.248,1.2083,1.1762,1.0945,0.0,0.0,0.0,0.0,0.0,0.0,0.0,0.0,0.0,0.0,0.0,0.0,0.0,0.0,0.0,0.0,0.0,0.0,0.0,0.0,0.0,0.0,0.0,0.0,2.0077,2.1738,2.2031,2.2793,2.3574,2.4238,2.4707,2.5039,2.5215,2.5234,2.5312,2.5488,2.5742,2.5879,2.5879,2.6133,2.622,2.622,2.699,2.7362,2.7362,2.8049,2.8938,3.0023,3.0721,3.1543,3.2337,3.309,3.3294,0.0,3.2717,3.2566,3.2541,3.224,3.1938,0.0,0.0,0.0,0.0,0.0,2.9578,2.9302,0.0,0.684,0.6611,0.6611,0.6611,0.6439,0.5975,0.5902,0.6318,0.7542,0.8422,0.959,1.1332,1.225,1.2778,1.2837,1.2812,1.2695,1.2379,1.2734,1.3184,1.3691,1.4805,1.5664,1.6222,1.7005,1.7598,1.8008,1.8008,1.8008,1.8008,1.8008,1.8008,1.8008,1.8066,1.8086,1.8086,1.8086,1.8086,1.8047,1.7617,1.7187,1.6687,1.5849,1.5439,1.5226,1.4463,1.3895,1.3381,1.2208,0.0,0.0,0.0,0.0,0.0,0.0,0.0,0.0,0.0,0.0,0.0,0.0,0.0,0.0,0.0,0.0,0.0,0.0,0.0,0.0,0.0,0.0,0.0,0.0,2.2305,2.3822,2.5117,2.4961,2.4844,2.5223,2.5605,2.5986,2.6426,2.6465,2.6621,2.6992,2.7012,2.7012,2.7012,0.0,0.0,0.0,0.0,2.7012,2.7012,2.7012,2.8186,3.044,3.0752,3.1856,3.3573,3.3865,3.3721,3.3269,3.3194,3.3212,3.3212,3.3093,3.2767,3.224,3.1637,3.111,3.0633,3.0156,2.993,2.988,0.0,0.6646,0.6611,0.6611,0.6611,0.6439,0.5975,0.5902,0.6318,0.7542,0.8184,0.9158,1.084,1.1526,1.1976,1.2301,1.234,1.2593,1.3198,1.334,1.3887,1.4972,1.5273,1.5957,1.7142,1.7305,1.7598,1.8008,1.8008,1.8008,1.8008,1.8008,1.8008,1.8027,1.8325,1.8481,1.8481,1.8481,1.8481,1.8442,1.8066,1.7637,1.7207,1.6648,1.5787,1.4818,1.4641,1.4302,1.3809,1.3239,1.3298,1.3496,1.2732,0.0,0.0,0.0,0.0,0.0,0.0,0.0,0.0,0.0,0.0,0.0,0.0,0.0,0.0,0.0,0.0,0.0,0.0,0.0,0.0,2.234,2.4056,2.5518,2.6504,2.6562,2.6426,2.6172,2.6504,2.6797,2.6894,2.6894,2.6934,2.7012,2.7012,2.7012,2.7012,2.7012,2.7012,2.7012,2.7012,2.7012,2.7012,2.7012,2.7247,2.7784,0.0,0.0,3.1549,3.3594,3.45,3.4374,3.3922,3.3746,3.3696,3.3269,3.3061,3.2817,3.1788,3.1336,3.1235,3.111,3.0809,3.0457,0.6655,0.6611,0.6611,0.6611,0.6611,0.6439,0.5975,0.5902,0.6264,0.7261,0.7793,0.8613,1.0098,1.0664,1.1036,1.123,1.1424,1.2008,1.3125,1.3398,1.4082,1.5352,1.581,1.6484,1.7363,1.7598,1.7793,1.8008,1.8008,1.8008,1.8008,1.8008,1.8008,1.8027,1.8188,1.8286,1.8286,1.8286,1.8286,1.8266,1.8086,1.7891,1.7642,1.6926,1.6075,1.5239,1.4626,1.4376,1.426,1.3689,1.3933,1.4355,1.3711,1.3066,1.2387,0.0,0.0,0.0,0.0,0.0,0.0,0.0,0.0,0.0,0.0,0.0,0.0,0.0,0.0,1.8695,0.0,0.0,2.3008,2.4531,2.5664,2.6473,2.6953,2.7207,2.7187,2.6758,2.6894,2.709,2.7324,2.7344,2.7422,2.7637,2.7656,2.7656,2.7656,2.7656,2.7656,2.7656,2.7656,2.7656,2.7656,2.7656,2.8001,2.8685,3.0671,3.1479,3.1304,3.3924,3.4587,3.3741,3.4155,3.4299,3.4274,3.3721,3.3319,3.3061,3.2441,3.2064,3.1763,3.1486,3.1235,3.1009,0.6629,0.6611,0.6611,0.6611,0.6611,0.6439,0.5975,0.5902,0.6155,0.6861,0.733,0.8051,0.924,0.9766,1.0117,1.0293,1.0742,1.1602,1.2935,1.3398,1.4199,1.5488,1.6278,1.6902,1.7396,1.7793,1.8008,1.8008,1.8008,1.8008,1.8008,1.8008,1.8008,1.8008,1.8086,1.8125,1.8125,1.8125,1.8125,1.8125,1.8047,1.8008,1.7872,1.6749,1.6032,1.5525,1.4363,1.4029,1.407,1.3679,1.4021,1.454,1.4321,1.3997,1.3574,1.2613,1.2598,0.0,0.0,0.0,0.0,0.0,0.0,0.0,0.0,0.0,1.7748,1.9102,2.0273,2.1504,2.2988,2.3828,2.4805,2.6387,2.6914,2.7168,2.7246,2.7559,2.7656,2.7305,2.7266,2.7402,2.7754,2.7845,2.793,2.8262,2.8301,2.8301,2.8301,2.8301,2.8301,2.8301,2.8301,2.8301,2.8301,2.8301,2.8847,2.9911,3.1265,3.1677,3.1351,3.3768,3.4193,3.3101,3.4308,3.4781,3.47,3.4248,3.3746,3.3287,3.3287,3.2893,3.2315,3.1888,3.1637,3.1537,0.0,0.6611,0.6611,0.6611,0.6611,0.6439,0.5975,0.5902,0.6035,0.6427,0.6895,0.752,0.8434,0.8887,0.9453,1.0234,1.1036,1.2074,1.3359,1.3802,1.4648,1.5968,1.6465,1.6902,1.7396,1.7793,1.8008,1.8008,1.8008,1.8008,1.8008,1.8008,1.8008,1.8027,1.8364,1.8539,1.8539,1.8539,1.8539,1.85,1.813,1.8008,1.7803,1.6018,1.515,1.4712,1.3735,1.2834,1.2259,1.312,1.3627,1.4006,1.4559,1.4687,1.4394,1.3164,0.0,1.2778,1.2145,1.3301,1.5,1.6445,1.7187,1.8477,0.0,0.0,2.2266,2.3971,2.4707,2.5254,2.584,2.6035,2.6406,2.7415,2.7611,2.7734,2.8086,2.8184,2.8203,2.8144,2.8144,2.8164,2.8223,2.8223,2.8242,2.8281,2.8301,2.8301,2.8301,2.8301,2.8301,2.8301,2.8301,2.8301,2.8301,2.8301,2.8408,2.8548,2.9859,3.0493,3.0502,3.199,3.3238,3.422,3.5071,3.5132,3.4726,3.465,3.4299,3.3796,3.3796,3.347,3.2968,3.296,3.2566,3.2114,0.0,0.6611,0.6543,0.6388,0.6362,0.6257,0.5957,0.5773,0.5761,0.6013,0.6223,0.6673,0.7553,0.7993,0.8597,0.9473,1.0352,1.1367,1.2652,1.3588,1.4582,1.5644,1.6317,1.6902,1.7396,1.7793,1.8008,1.8008,1.8008,1.8008,1.8008,1.8008,1.8008,1.8008,1.8203,1.8247,1.8247,1.8247,1.8247,1.8262,1.8086,1.8008,1.7799,1.6221,1.527,1.4601,1.3109,1.2223,0.0,0.0,1.2658,1.2912,1.3599,1.382,1.3724,1.3375,1.3972,0.0,1.6348,1.7051,1.7754,0.0,2.0312,2.1426,2.309,2.3535,2.4043,2.5527,2.6387,2.6914,2.709,2.7324,2.7617,0.0,2.8027,2.8086,2.8262,2.8086,2.793,2.793,2.793,2.8027,2.8262,2.8301,2.8301,2.8301,2.8301,2.8301,2.8301,2.8301,2.8301,2.8301,2.8301,2.8301,2.8301,2.8301,2.8301,2.8301,2.967,2.9911,2.9197,3.1316,3.3055,3.441,3.4751,3.4979,3.5157,3.5157,3.47,3.3897,3.3897,3.3571,3.3111,3.3111,3.2918,3.2717,0.0,0.6611,0.6535,0.6345,0.6213,0.6052,0.5828,0.5623,0.5529,0.5608,0.5714,0.6125,0.7012,0.7466,0.8012,0.877,0.9609,1.0664,1.1953,1.312,1.4219,1.5195,1.5957,1.6562,1.7044,1.7559,1.7832,1.7832,1.7949,1.8008,1.8008,1.8008,1.8008,1.8008,1.8008,1.8008,1.8008,1.8008,1.8008,1.8008,1.8008,1.7949,1.7673,1.6263,1.5313,1.4492,1.2822,1.1981,0.0,0.0,1.1974,1.2291,1.2824,1.3167,1.3439,1.3748,1.4824,1.6378,1.8457,1.9336,0.0,2.1229,2.2832,2.4088,2.4088,2.4707,2.5547,2.6387,2.7148,2.7689,2.75,2.7832,2.8125,2.8125,2.8223,2.8301,2.8301,2.793,2.7728,2.7728,2.7611,2.7656,2.8086,2.8223,2.8301,2.8301,2.8301,2.8301,2.8301,2.8301,2.8301,2.8301,2.8301,2.8301,2.8301,2.8301,2.8301,2.8281,2.9303,2.9408,2.8953,3.1644,3.3204,3.3871,3.4629,3.5064,3.5241,3.5569,3.4973,3.383,3.4215,3.3922,3.3294,3.3294,3.3219,3.3111,0.0,0.0,0.6611,0.6578,0.6218,0.5819,0.5548,0.5492,0.5396,0.5166,0.5508,0.6125,0.7012,0.7466,0.7895,0.8375,0.9143,1.0195,1.1547,1.2445,1.3502,1.4746,1.5215,1.5664,1.6124,1.6985,1.7435,1.7435,1.7812,1.8008,1.8008,1.8008,1.8008,1.8008,1.8008,1.8008,1.8008,1.8008,1.8008,1.8008,1.8008,1.7773,1.7245,1.5859,1.4854,1.4082,1.3117,0.0,0.0,1.1471,1.1947,1.249,1.2646,1.3344,0.0,1.4629,1.5078,1.5615,1.6551,1.8633,2.0879,2.2148,2.4394,2.6289,2.6289,2.7004,2.7461,2.707,2.7344,2.7539,2.7109,2.7383,2.7728,2.7728,2.8027,2.8301,2.8301,2.793,2.7728,2.7728,2.7285,2.7207,0.0,2.8047,2.8301,2.8301,2.8301,2.8301,2.8301,2.8301,2.8301,2.8301,2.8301,2.8301,2.8301,2.8301,2.8301,2.8301,2.8335,2.9006,3.0307,3.3055,3.3601,3.2532,3.5186,3.5595,3.4508,3.5833,3.525,3.3625,3.4944,3.4826,3.3872,3.3872,3.3545,3.3111,0.0,0.0,0.0,0.6165,0.5856,0.5539,0.5282,0.5233,0.5204,0.5117,0.5731,0.0,0.0,0.0,0.0,0.0,0.9123,0.9923,1.0684,1.2093,1.3091,1.3522,1.4473,1.5195,1.5625,1.6242,1.666,1.6953,1.7058,1.7135,1.7135,1.7135,1.7135,1.7135,1.7135,1.7135,1.7135,1.7135,1.7324,1.7578,1.7252,1.7246,1.7305,1.6229,1.5305,1.4478,0.0,0.0,1.0674,1.0947,1.0882,1.0779,1.1294,0.0,0.0,1.4363,1.5508,1.6765,1.9065,0.0,2.3164,2.5039,2.6367,2.7305,2.7598,2.7656,2.7669,2.748,2.6691,2.5947,2.5742,2.5889,2.6035,2.6328,2.7226,2.7969,2.8262,2.793,2.7728,2.7728,2.7539,0.0,0.0,0.0,0.0,2.8262,2.8301,2.8301,2.8301,2.8301,2.8301,2.8301,2.8301,2.8301,2.8301,2.8301,2.8301,2.8301,2.8301,2.8548,2.9059,3.0824,3.1898,3.2381,3.4264,3.4824,3.4483,3.5858,3.5227,3.3625,3.4947,3.4831,3.3897,3.3897,3.3545,3.3111,0.0,0.0,0.0,0.0,0.0,0.0,0.0,0.0,0.0,0.0,0.0,0.0,0.0,0.0,0.0,0.0,0.0,0.9609,1.0207,1.1442,1.2368,1.2876,1.3516,1.4141,1.4727,1.5,1.5371,1.5771,1.5927,1.6083,1.6239,1.6239,1.6239,1.6239,1.6239,1.6348,1.6484,1.6297,1.6504,1.6907,1.6414,1.6328,1.6387,1.5644,1.4941,0.0,0.0,0.0,1.0834,1.0821,1.0565,1.0348,1.0704,1.1757,1.3287,1.5167,1.6738,1.8461,2.1367,2.3164,2.4727,2.6738,2.7578,2.793,2.8047,2.7904,2.7539,2.707,2.5723,2.457,2.4414,2.4258,2.4355,2.4941,2.5996,2.7043,2.7734,2.748,2.7376,2.7689,2.7519,2.75,0.0,0.0,0.0,2.8262,2.8301,2.8301,2.8301,2.8301,2.8301,2.8301,2.8301,2.8301,2.8301,2.8301,2.8301,2.8301,2.8794,2.8741,2.8335,3.0172,3.1214,3.1673,3.3055,3.3674,3.3773,3.5114,3.4968,3.3958,3.5291,3.5278,3.4474,3.4274,3.3847,3.3345,0.0,0.0,0.0,0.0,0.0,0.0,0.0,0.0,0.0,0.0,0.0,0.0,0.0,0.0,0.0,0.0,0.0,0.0,1.0078,1.0557,1.1409,1.2748,1.241,1.2606,1.3494,1.3488,1.3678,1.4102,1.4512,1.4941,1.5323,1.5323,1.5323,1.5323,1.5323,1.5586,1.5968,1.5527,1.5586,1.5987,1.5527,1.5117,1.4746,1.4324,0.0,0.0,0.0,0.0,1.1719,1.1099,1.1062,0.0,0.0,1.2904,1.5349,1.7037,1.8769,2.0664,2.3164,2.4531,2.5673,2.7337,2.7988,2.8164,2.7806,2.765,2.7168,2.583,2.4512,2.3418,0.0,0.0,2.2695,2.3555,2.4512,2.5625,2.6894,2.6738,2.6797,0.0,0.0,0.0,0.0,0.0,0.0,2.8262,0.0,2.8301,2.8301,2.8301,2.8301,2.8301,2.8301,2.8301,2.8301,2.8301,2.8301,2.8301,2.967,2.9618,2.8495,3.1133,3.1622,3.0566,3.1825,3.2381,3.2532,3.392,3.4483,3.4532,3.581,3.5984,3.5433,3.4861,3.431,3.3822,0.0,0.0,0.0,0.0,0.0,0.0,0.0,0.0,0.0,0.0,0.0,0.0,0.0,0.0,0.0,0.0,0.0,0.0,0.9218,1.0152,1.0944,1.1449,1.1942,1.2659,1.364,1.3315,1.3471,1.417,1.3951,1.4043,1.4426,1.4426,1.4426,1.4426,1.4426,1.4504,1.4582,1.4484,1.4707,1.5107,0.0,1.459,1.4802,0.0,0.0,0.0,0.0,0.0,0.0,0.0,0.0,0.0,0.0,1.5574,1.6757,1.9101,0.0,2.3086,2.4394,2.6074,2.7578,2.8027,2.7988,2.7845,2.7748,2.671,2.5371,2.4017,2.2012,2.0117,0.0,0.0,0.0,2.2227,2.4707,0.0,2.7832,2.7871,0.0,2.8105,0.0,2.8008,2.8125,2.8125,0.0,0.0,2.8301,2.8301,2.8301,2.8301,2.8301,2.8301,2.8301,2.8301,2.8301,2.8301,2.8301,2.8301,2.967,3.012,2.9859,3.152,3.2705,3.3353,3.3723,3.3871,3.397,3.5307,3.5307,3.4434,3.4775,3.5157,3.539,3.4214,3.3857,3.3872,0.0,0.0,0.0,0.0,0.0,0.0,0.0,0.0,0.0,0.0,0.0,0.0,0.0,0.0,0.0,0.0,0.0,0.0,0.0,1.0029,1.0532,1.0844,1.1365,1.1979,1.277,1.2825,1.3022,1.3423,1.3173,1.3137,1.3306,1.3106,1.3008,1.3008,1.3008,1.3081,1.3256,1.3086,0.0,0.0,0.0,0.0,0.0,0.0,0.0,0.0,0.0,0.0,0.0,0.0,0.0,1.4646,1.6405,1.7467,1.8696,2.1916,0.0,2.5391,2.625,2.75,2.8516,2.834,2.7988,2.7415,2.623,2.5106,2.3652,2.1541,1.9533,0.0,1.7227,1.8379,0.0,0.0,0.0,0.0,2.7285,2.7617,2.7871,0.0,2.8301,0.0,2.8301,2.8301,2.8301,0.0,2.8301,2.8301,2.8301,2.8301,2.8301,2.8301,2.8301,2.8301,2.8301,2.8301,2.8301,2.8281,2.9059,2.9408,2.946,3.0224,3.0979,3.1746,0.0,3.2905,3.3552,3.4969,3.5066,3.4434,3.5066,3.4776,3.4126,3.4291,3.4088,3.3731,0.0,0.0,0.0,0.0,0.0,0.0,0.0,0.0,0.0,0.0,0.0,0.0,0.0,0.0,0.0,0.0,0.0,0.0,0.0,0.0,0.0,1.0731,1.0911,1.125,1.1795,1.2321,1.2551,1.248,0.0,0.0,1.2277,0.0,0.0,0.0,0.0,0.0,0.0,0.0,0.0,0.0,0.0,0.0,0.0,0.0,0.0,0.0,0.0,0.0,0.0,0.0,1.6243,1.6361,1.7867,1.9114,2.0827,2.4811,2.6602,2.7441,2.8164,2.8691,2.8887,2.8418,2.7891,2.6887,2.4355,2.3325,2.1995,1.889,0.0,1.6395,1.6219,1.7077,1.8301,1.9687,0.0,2.4434,2.6289,2.6875,2.7402,2.8203,2.8301,2.8301,2.8301,2.8301,2.8301,2.8301,2.8301,2.8301,2.8301,2.8301,2.8301,2.8301,2.8301,2.8301,2.8301,2.8301,2.8301,2.8301,2.8495,2.8548,2.8548,2.8548,2.8654,2.89,0.0,0.0,3.2682,3.4068,3.4581,3.4483,3.5451,3.4387,3.2487,3.4198,3.4125,3.3244,0.0,0.0,0.0,0.0,0.0,0.0,0.0,0.0,0.0,0.0,0.7514,0.8011,0.0,0.0,0.0,0.0,0.0,0.0,0.0,0.0,0.0,1.0916,1.1301,1.1923,1.2889,1.2675,1.2676,0.0,0.0,0.0,0.0,0.0,0.0,0.0,0.0,0.0,0.0,0.0,0.0,0.0,0.0,0.0,0.0,0.0,0.0,0.0,0.0,0.0,0.0,0.0,1.6788,1.7975,2.0978,2.1882,2.2571,2.6275,2.793,2.8613,2.8769,2.9121,2.9277,2.8496,2.7441,2.6113,2.4219,2.2344,0.0,0.0,1.5762,1.4805,1.375,1.5381,1.7564,1.959,2.209,2.4648,2.7141,2.75,2.7734,0.0,0.0,0.0,0.0,0.0,0.0,0.0,0.0,2.8301,2.8301,2.8301,2.8301,2.8301,2.8301,2.8301,2.8301,2.8301,2.8301,2.8281,2.9408,2.9964,2.9964,2.9964,3.0566,3.1622,3.1825,0.0,3.4117,3.5523,3.5427,3.4337,3.3353,3.2733,3.223,3.1484,3.15,3.1818,0.0,0.0,0.0,0.0,0.0,0.0,0.0,0.5759,0.6233,0.751,0.8359,0.8845,0.8876,0.9191,0.9528,0.0,0.0,0.0,0.0,0.0,0.0,0.0,0.0,1.1977,1.2764,0.0,0.0,0.0,0.0,0.0,0.0,0.0,0.0,0.0,0.0,0.0,0.0,0.0,0.0,0.0,0.0,0.0,0.0,0.0,0.0,0.0,0.0,0.0,0.0,0.0,1.7005,1.8668,2.2272,2.3634,2.4509,2.7443,2.8613,2.8926,2.8926,2.9062,2.9023,2.8184,2.7168,2.5586,2.248,0.0,0.0,0.0,1.4109,1.3639,1.3013,1.4609,0.0,1.7974,2.0586,2.3281,2.5644,2.6562,0.0,0.0,0.0,0.0,0.0,0.0,0.0,0.0,0.0,2.8301,2.8301,2.8301,2.8301,2.8301,2.8301,2.8301,2.8301,2.8301,2.8301,2.8281,2.8953,2.925,2.925,2.925,2.9618,3.0307,3.1673,0.0,3.3453,3.5547,3.5162,3.3304,3.3353,3.2101,3.0307,3.1081,3.1135,3.0882,0.0,0.0,0.0,0.0,0.0,0.0,0.0,0.6222,0.67,0.798,0.8693,0.9211,0.9504,0.9637,0.9729,0.0,0.0,0.0,0.0,0.0,0.0,0.0,0.0,0.0,0.0,0.0,0.0,0.0,0.0,0.0,0.0,0.0,0.0,0.0,0.0,0.0,0.0,0.0,0.0,0.0,0.0,0.0,0.0,0.0,0.0,0.0,0.0,0.0,0.0,0.0,1.6805,1.8404,2.1705,2.359,2.5045,2.7295,2.8144,2.8437,2.8711,2.8848,2.8711,2.7871,2.6953,2.5137,2.0879,1.9143,0.0,0.0,1.2915,1.2915,1.2915,1.4043,1.5391,0.0,1.8831,2.1405,2.4043,2.5391,0.0,0.0,0.0,0.0,0.0,0.0,0.0,0.0,0.0,0.0,2.8301,2.8301,2.8301,2.8301,2.8301,2.8354,2.8408,2.8408,2.8408,2.8441,2.8441,2.8441,2.8441,2.8548,2.8601,2.8814,3.1338,0.0,0.0,3.521,3.4751,3.2605,3.3575,3.1746,2.8814,3.0876,3.0927,3.0047,0.0,0.0,0.0,0.0,0.0,0.0,0.0,0.5962,0.6557,0.7769,0.8047,0.8523,0.9576,1.0217,1.0392,0.0,0.0,0.0,0.0,0.0,0.0,0.0,0.0,0.0,0.0,0.0,0.0,0.0,0.0,0.0,0.0,0.0,0.0,0.0,0.0,0.0,0.0,0.0,0.0,0.0,0.0,0.0,0.0,0.0,0.0,0.0,0.0,0.0,0.0,0.0,0.0,1.6638,1.8515,2.0379,2.2348,2.4266,0.0,0.0,2.8027,2.8633,2.8711,2.7871,2.6719,2.4719,2.082,0.0,0.0,1.3619,1.2915,1.2915,1.2915,1.332,1.4328,1.6375,0.0,1.9727,2.3848,2.4863,0.0,0.0,0.0,0.0,0.0,0.0,0.0,0.0,0.0,0.0,2.8301,2.8301,2.8301,2.8301,2.8301,2.8408,2.8674,2.8674,2.8781,2.9026,2.9026,2.9026,2.9026,2.9343,2.9586,2.9953,3.1891,0.0,0.0,3.5066,3.4653,3.3101,3.2728,3.1308,2.9448,2.9428,2.9323,2.9096,0.0,0.0,0.0,0.0,0.0,0.0,0.5677,0.5992,0.6542,0.7477,0.8146,0.8781,0.9445,1.005,1.0258,0.9927,0.0,0.0,0.0,0.0,0.0,0.0,0.0,0.0,0.0,0.0,0.0,0.0,0.0,0.0,0.0,0.0,0.0,0.0,0.0,0.0,0.0,0.0,0.0,0.0,0.0,0.0,0.0,0.0,0.0,0.0,0.0,0.0,0.0,0.0,0.0,0.0,1.5488,1.6796,0.0,0.0,2.418,2.5547,2.709,2.8027,2.834,2.748,2.5918,2.3691,2.0312,0.0,1.6124,1.3463,1.2915,1.2915,1.2915,1.3052,1.3496,1.4609,1.5508,1.7109,2.0137,2.1836,0.0,0.0,0.0,0.0,0.0,0.0,0.0,0.0,0.0,0.0,2.8301,2.8301,2.8301,2.8301,2.8461,2.8568,2.8674,2.8887,2.9079,2.9396,2.9396,2.9554,2.9869,3.0026,3.0318,3.0815,3.2398,0.0,0.0,3.5114,3.4751,3.34,3.3051,3.1739,3.0078,2.9921,2.9764,2.9484,0.0,0.0,0.0,0.0,0.0,0.5625,0.5691,0.6007,0.6463,0.7087,0.8023,0.8774,0.9115,0.9552,0.982,0.9774,0.9451,0.0,0.0,0.0,0.0,0.0,0.0,0.0,0.0,0.0,0.0,0.0,0.0,0.0,0.0,0.0,0.0,0.0,0.0,0.0,0.0,0.0,0.0,0.0,0.0,0.0,0.0,0.0,0.0,0.0,0.0,0.0,0.0,0.0,0.0,0.0,0.0,0.0,0.0,0.0,2.207,2.3691,2.5547,2.6875,2.7559,2.6816,2.5098,2.2812,0.0,1.7553,1.5478,1.3345,1.2915,1.2915,1.2915,1.2915,1.3052,1.3437,1.4219,1.5586,1.7891,1.9727,0.0,0.0,0.0,0.0,0.0,0.0,0.0,0.0,0.0,0.0,0.0,2.8301,2.8354,2.8408,2.8621,2.8834,2.9099,2.9237,2.9606,3.0078,3.0078,3.0339,3.0909,3.1043,3.1403,3.1993,0.0,0.0,0.0,3.5307,3.4969,3.3918,3.3549,3.2448,3.0991,3.0888,3.0566,3.0025,0.0,0.0,0.0,0.0,0.0,0.0,0.5645,0.5918,0.6217,0.6563,0.7428,0.816,0.8559,0.8795,0.9069,0.9477,0.9068,0.0,0.0,0.0,0.0,0.0,0.0,0.0,0.0,0.0,0.0,1.2424,0.0,0.0,0.0,0.0,0.0,0.0,0.0,0.0,0.0,0.0,0.0,0.0,0.0,0.0,0.0,0.0,0.0,0.0,0.0,0.0,0.0,0.0,0.0,0.0,0.0,0.0,0.0,0.0,1.8981,2.1114,2.3242,2.5098,2.6309,2.581,2.4387,2.2321,1.9299,1.7305,1.5478,1.3345,1.2915,1.2915,1.2915,1.2915,1.3052,1.3437,1.4219,1.5713,1.8335,1.9394,0.0,0.0,0.0,0.0,0.0,0.0,0.0,0.0,0.0,0.0,0.0,2.8301,2.8408,2.8674,2.8674,2.9099,2.9994,2.9994,3.0412,3.1167,3.1167,3.1476,3.2015,3.2499,3.3051,0.0,0.0,0.0,0.0,3.562,3.5284,3.4726,3.4213,3.335,3.237,3.2066,3.1374,3.0443,0.0,0.0,0.0,0.0,0.0,0.0,0.0,0.57,0.6059,0.6366,0.6964,0.7619,0.8264,0.8477,0.8704,0.9054,0.8702,0.0,0.0,0.0,0.0,0.0,0.0,0.0,0.0,0.0,1.2262,1.2955,1.3614,1.4344,0.0,0.0,0.0,0.0,0.0,0.0,0.0,0.0,0.0,0.0,0.0,0.0,0.0,0.0,0.0,0.0,0.0,0.0,0.0,0.0,0.0,0.0,0.0,0.0,0.0,1.4414,1.668,0.0,2.0371,2.1758,2.2695,2.1892,2.0469,1.8809,1.7227,1.5547,1.4043,1.3111,1.2915,1.2915,1.2915,1.2915,1.3228,1.4219,1.4609,0.0,0.0,0.0,0.0,0.0,0.0,0.0,0.0,0.0,0.0,0.0,0.0,0.0,0.0,2.8301,2.8408,2.8674,2.8887,2.929,2.9994,3.0339,3.094,3.1783,3.2117,3.2672,3.3373,3.3747,0.0,0.0,0.0,0.0,0.0,3.4955,3.4961,3.482,3.4824,3.4262,3.3472,3.3373,3.2605,3.1538,0.0,0.0,0.0,0.0,0.0,0.0,0.0,0.536,0.5647,0.6091,0.648,0.7072,0.7959,0.8108,0.8338,0.8849,0.856,0.0,0.0,0.0,0.0,0.0,0.0,0.0,0.0,1.1668,1.1965,1.2594,1.3606,1.4359,1.4926,1.5215,1.5372,0.0,0.0,0.0,0.0,0.0,0.0,0.0,0.0,0.0,0.0,0.0,0.0,0.0,0.0,0.0,0.0,0.0,0.0,0.0,0.0,0.0,0.0,0.0,1.4707,1.6602,0.0,1.9241,2.0079,1.9533,1.8281,1.6914,1.6016,1.4609,1.3398,1.2993,1.2915,1.2915,1.2915,1.2915,1.3169,1.3972,1.4336,0.0,0.0,0.0,0.0,0.0,0.0,0.0,0.0,0.0,0.0,0.0,0.0,0.0,0.0,2.8301,2.8461,2.8834,2.9132,2.9659,3.0464,3.0991,3.171,3.2622,3.3024,3.3671,3.4482,3.4702,0.0,0.0,0.0,0.0,0.0,3.469,3.4675,3.4632,3.4811,3.4582,3.4124,3.3813,3.3048,3.217,0.0,0.0,0.0,0.0,0.0,0.0,0.0,0.4961,0.5074,0.5847,0.6043,0.6528,0.7673,0.7742,0.801,0.8756,0.0,0.0,0.0,0.0,0.0,0.0,0.0,0.0,0.0,1.1155,1.1606,1.1606,1.3457,1.4157,1.3879,1.5541,1.5796,1.4915,0.0,0.0,0.0,0.0,0.0,0.0,0.0,0.0,0.0,0.0,0.0,0.0,0.0,0.0,0.0,0.0,0.0,0.0,0.0,0.0,0.0,0.0,0.0,0.0,0.0,1.7311,1.8227,1.8208,1.7291,1.6219,1.541,1.4316,0.0,1.2993,1.2915,1.2915,1.2969,1.2954,1.2974,1.315,1.3789,0.0,0.0,0.0,0.0,0.0,0.0,0.0,0.0,0.0,0.0,0.0,0.0,0.0,0.0,2.8301,2.8548,2.9079,2.9448,3.013,3.1189,3.1761,3.2572,3.3645,3.3941,3.4531,3.5284,3.5524,0.0,0.0,0.0,0.0,0.0,3.465,3.447,3.4289,3.4338,3.4339,3.4311,3.3617,3.2981,3.2418,0.0,0.0,0.0,0.0,0.0,0.0,0.0,0.0,0.0,0.0,0.6209,0.6509,0.7605,0.7719,0.7788,0.0,0.0,0.0,0.0,0.0,0.0,0.0,0.0,0.0,0.0,1.1343,1.1606,1.1606,1.3021,1.3897,1.4293,1.5601,1.612,1.5959,1.6194,1.5793,0.0,0.0,0.0,0.0,0.0,0.0,0.0,0.0,0.0,0.0,0.0,1.2359,0.0,0.0,0.0,0.0,0.0,0.0,0.0,0.0,1.2974,1.3145,1.3678,0.0,1.4601,1.4316,1.4004,1.373,0.0,1.3267,1.3008,1.2935,1.2915,1.3091,1.3685,1.332,1.3561,1.5478,0.0,0.0,0.0,0.0,0.0,0.0,0.0,0.0,0.0,0.0,0.0,0.0,0.0,0.0,0.0,2.8301,2.8548,2.9079,2.9627,3.0287,3.1189,3.2117,3.3074,3.3941,3.4775,3.5428,3.5812,3.6098,0.0,0.0,0.0,0.0,3.3495,3.3922,3.4053,3.4034,3.446,3.4483,3.4357,3.4607,3.3774,3.2546,0.0,0.0,0.0,0.0,0.0,0.0,0.0,0.0,0.0,0.0,0.0,0.6716,0.7603,0.7705,0.0,0.0,0.0,0.0,0.0,0.0,0.0,0.0,0.0,0.0,1.0943,1.138,1.1682,1.1897,1.3164,1.3872,1.4008,1.5148,1.5756,1.5844,1.6308,1.6195,0.0,0.0,0.0,0.0,0.0,0.0,0.0,0.0,0.0,0.0,1.2125,1.2203,0.0,1.2734,1.2915,1.2915,0.0,0.0,0.0,0.0,1.2915,1.2915,1.2915,1.3184,1.3457,1.3223,1.3164,1.3164,1.3164,1.3052,1.2915,1.2915,1.2915,1.3086,1.3704,1.3945,1.4434,0.0,1.6797,0.0,0.0,0.0,0.0,0.0,0.0,0.0,0.0,0.0,0.0,0.0,0.0,0.0,0.0,2.8301,2.8548,2.9079,2.9816,3.0651,3.1578,3.2622,3.3621,3.458,3.538,3.5908,3.6193,3.631,3.5906,0.0,0.0,0.0,3.3445,3.3495,3.352,3.3545,3.3847,3.4034,3.4125,3.4085,3.3765,3.335,0.0,0.0,0.0,0.0,0.0,0.0,0.0,0.0,0.0,0.0,0.0,0.0,0.0,0.0,0.0,0.0,0.0,0.0,0.0,0.0,0.0,0.0,0.0,1.0488,1.0898,1.1349,1.18,1.2203,1.3549,1.3997,1.3613,1.485,1.5464,1.5601,1.6221,1.65,0.0,0.0,0.0,0.0,0.0,0.0,0.0,0.0,0.0,0.0,0.0,0.0,0.0,1.2617,1.2773,1.2817,1.2876,0.0,0.0,0.0,0.0,0.0,1.3052,1.3477,1.3828,1.3496,1.3457,1.3496,1.3418,1.3145,1.2915,1.2915,1.2954,1.3164,0.0,1.4727,0.0,0.0,0.0,0.0,0.0,0.0,0.0,0.0,0.0,0.0,0.0,0.0,0.0,0.0,0.0,0.0,0.0,2.8301,2.8548,2.9079,2.9973,3.094,3.2117,3.3201,3.4213,3.5211,3.5812,3.6193,3.6405,3.6405,3.6056,0.0,0.0,0.0,3.3872,3.3395,3.3144,3.3111,3.3111,3.337,3.3721,3.3127,3.3438,3.3945,0.0,0.0,0.0,0.0,0.0,0.0,0.0,0.0,0.0,0.0,0.0,0.0,0.0,0.0,0.0,0.0,0.0,0.0,0.0,0.0,0.0,0.0,1.0293,1.0488,1.0898,1.1349,1.18,1.2203,1.3887,1.4453,1.4062,1.5984,1.6852,1.6809,1.6593,1.65,1.65,0.0,0.0,0.0,0.0,0.0,0.0,0.0,0.0,0.0,0.0,0.0,0.0,1.2028,1.2301,1.2379,1.2754,0.0,0.0,0.0,0.0,0.0,1.3724,1.4785,1.5263,1.3463,1.3242,1.3418,1.3066,1.2954,1.2915,0.0,0.0,0.0,0.0,1.5527,1.6113,0.0,0.0,0.0,0.0,0.0,0.0,0.0,0.0,0.0,0.0,0.0,0.0,0.0,0.0,0.0,0.0,2.8301,2.8548,2.9079,2.9973,3.1146,3.265,3.3747,3.4605,3.5211,3.5978,3.6358,3.6405,3.6405,3.6056,0.0,0.0,3.4851,3.3897,3.3796,3.3495,3.3111,3.3111,3.3162,3.3244,3.3577,3.3396,3.2903,0.0,0.0,0.0,0.0,0.0,0.0,0.0,0.0,0.0,0.0,0.0,0.0,0.0,0.0,0.0,0.0,0.0,0.0,0.0,0.0,0.0,1.0605,1.0263,1.0452,1.125,1.1956,1.2621,1.3237,1.4512,1.5019,1.4824,1.569,1.5903,1.5633,1.5568,1.571,1.5996,1.5996,0.0,0.0,0.0,0.0,0.0,0.0,0.0,0.0,0.0,0.0,0.0,0.0,1.2031,1.2242,1.2437,0.0,0.0,0.0,0.0,0.0,1.3359,1.4062,1.4609,1.4316,1.5273,1.6141,1.5742,1.5644,1.5527,0.0,0.0,0.0,0.0,0.0,1.8926,2.2227,0.0,0.0,0.0,0.0,0.0,0.0,0.0,0.0,0.0,0.0,0.0,0.0,0.0,0.0,0.0,0.0,2.8601,2.9343,3.0183,3.1403,3.3001,3.4066,3.4969,3.562,3.6121,3.6405,3.6405,3.6405,3.6279,3.5981,0.0,3.5207,3.4751,3.4148,3.3746,3.3495,3.3194,3.3111,3.3144,3.3696,3.3502,3.2996,0.0,0.0,0.0,0.0,0.0,0.0,0.0,0.0,0.0,0.0,0.0,0.0,0.0,0.0,0.0,0.0,0.0,0.0,0.0,0.0,1.0001,1.0858,1.0367,1.0556,1.1589,1.2282,1.3068,1.398,1.4925,1.5469,1.5576,1.5246,1.4909,1.4562,1.4662,1.4971,1.5399,1.5531,1.5864,0.0,0.0,0.0,0.0,0.0,0.0,0.0,0.0,0.0,0.0,0.0,0.0,0.0,0.0,0.0,0.0,1.2915,1.2915,1.2954,1.3125,1.3555,1.4219,1.5293,1.6473,1.7525,1.8013,1.793,1.7642,1.7467,0.0,0.0,0.0,1.9531,0.0,2.4855,0.0,0.0,0.0,0.0,0.0,0.0,0.0,0.0,0.0,0.0,0.0,0.0,0.0,0.0,0.0,0.0,2.8708,2.9554,3.037,3.1586,3.33,3.4311,3.5235,3.6003,3.6288,3.6405,3.6405,3.6405,3.6405,3.638,3.5906,3.5608,3.5433,3.4625,3.4123,3.3847,3.3445,3.3194,3.3162,3.3545,3.352,3.3395,0.0,0.0,0.0,0.0,0.0,0.0,0.0,0.0,0.0,0.0,0.0,0.0,0.0,0.0,0.0,0.0,0.0,0.0,0.0,0.0,1.0001,1.0858,1.0687,1.0874,1.1583,1.1796,1.2443,1.3639,1.4801,1.5625,1.6056,1.5389,1.5096,1.5039,1.4792,1.4721,1.4789,1.5353,1.562,1.5666,0.0,0.0,0.0,0.0,0.0,0.0,0.0,0.0,0.0,0.0,0.0,0.0,0.0,0.0,1.2915,1.2915,1.2915,1.3047,1.3802,1.4621,1.5391,1.5928,1.4941,1.4679,1.7837,1.7642,1.733,1.926,2.0,0.0,0.0,2.1799,2.3325,0.0,0.0,0.0,0.0,0.0,0.0,0.0,0.0,0.0,0.0,0.0,0.0,0.0,0.0,0.0,0.0,0.0,0.0,2.9554,3.037,3.1688,3.3549,3.436,3.5235,3.6003,3.6288,3.6405,3.6405,3.6405,3.6405,3.6405,3.6355,3.6006,3.5483,3.5408,3.4781,3.3897,3.3847,3.352,3.3093,3.3162,3.3445,3.3847,0.0,0.0,0.0,0.0,0.0,0.0,0.0,0.0,0.0,0.0,0.0,0.0,0.0,0.0,0.0,0.0,0.0,0.0,0.0,0.0,0.9728,1.0839,1.0705,1.0637,1.0711,1.1481,1.2557,1.3967,1.4935,1.5693,1.6241,1.4794,1.4323,1.4616,1.3914,1.3789,1.4167,1.4789,1.5039,1.5107,1.5842,0.0,0.0,0.0,0.0,0.0,0.0,0.0,0.0,0.0,1.1134,1.1606,1.1641,1.2227,1.2856,1.2559,1.2457,1.2574,1.3203,1.4355,1.5508,1.5987,1.6026,1.668,1.9553,2.0255,2.0625,2.1719,2.248,0.0,0.0,0.0,0.0,0.0,0.0,0.0,0.0,0.0,0.0,0.0,0.0,0.0,0.0,0.0,0.0,0.0,0.0,0.0,0.0,0.0,0.0,2.9837,3.0495,3.179,3.3845,3.4149,3.4772,3.5669,3.616,3.6405,3.6405,3.6405,3.6405,3.6405,3.6405,3.6279,3.6031,3.5633,3.5257,3.4806,3.4173,3.3571,3.3111,3.3111,3.3219,3.3445,0.0,0.0,0.0,0.0,0.0,0.0,0.0,0.0,0.0,0.0,0.0,0.0,0.0,0.0,0.0,0.0,0.0,0.0,0.9327,0.914,0.957,1.0839,1.0554,1.036,1.0311,1.0888,1.2025,1.3767,1.4866,1.5504,1.5627,1.4195,1.3784,1.4272,1.3303,1.3197,1.3734,1.4208,1.4422,1.4514,1.5732,1.566,0.0,0.0,0.0,0.0,0.0,0.0,0.0,0.0,1.0899,1.1369,1.1328,1.1953,1.2637,1.2457,1.2715,1.3105,1.3398,1.4336,1.541,1.63,1.6868,1.7988,2.1093,2.2048,2.2715,2.4102,2.4629,2.4602,2.4017,0.0,0.0,0.0,0.0,0.0,0.0,0.0,0.0,0.0,0.0,0.0,0.0,0.0,0.0,0.0,0.0,0.0,0.0,0.0,0.0,0.0,3.0547,3.1841,3.3993,3.4149,3.4673,3.5508,3.5931,3.6006,3.583,3.583,3.583,3.583,3.583,3.583,3.5805,3.5429,3.5132,3.4881,3.3997,3.3395,3.3111,3.3111,3.3111,3.3169,0.0,0.0,0.0,0.0,0.0,0.0,0.0,0.0,0.0,0.0,0.0,0.0,0.0,0.0,0.0,0.0,0.0,0.0,1.0041,0.9405,0.957,1.084,1.0275,1.0136,1.0578,0.9961,1.0651,1.2784,1.4541,1.4933,1.4094,1.3711,1.3704,1.4055,1.3262,1.3105,1.3527,1.3714,1.3792,1.3909,1.5107,1.5269,0.0,0.0,0.0,0.0,0.0,0.0,0.0,0.0,1.0898,1.1034,1.1931,1.2203,1.2301,1.2754,1.3796,1.4766,1.4766,1.4813,1.5244,1.6953,1.709,1.7876,2.2126,2.25,2.2891,2.6328,2.6348,2.5693,2.5693,2.5693,0.0,0.0,0.0,0.0,0.0,0.0,0.0,0.0,0.0,0.0,0.0,0.0,0.0,0.0,0.0,0.0,0.0,0.0,0.0,0.0,3.0547,3.1841,3.3993,3.4507,3.5039,3.5483,3.5483,3.5207,3.468,3.468,3.468,3.468,3.468,3.468,3.468,3.468,3.4399,3.3847,3.3294,3.3093,3.3111,3.3111,3.3111,3.3187,0.0,0.0,0.0,0.0,0.0,0.0,0.0,0.0,0.0,0.0,0.0,0.0,0.0,0.0,0.0,0.0,0.0,0.0,0.9294,0.9123,0.9453,1.043,1.0868,1.0604,0.9577,1.0238,1.1094,1.2181,1.37,1.4433,1.4317,1.3759,1.3651,1.3871,1.3481,1.3223,1.3096,1.359,1.3552,1.331,1.4926,1.5015,0.0,0.0,0.0,0.0,0.0,0.0,0.0,0.0,0.0,0.0,1.119,1.1934,1.2656,1.2457,1.291,1.3463,1.3463,1.5028,1.666,1.6875,1.9065,2.1619,2.3242,2.3633,0.0,0.0,2.6992,2.6191,2.6191,0.0,0.0,0.0,0.0,0.0,0.0,0.0,0.0,0.0,0.0,0.0,0.0,0.0,0.0,0.0,0.0,0.0,0.0,0.0,0.0,0.0,3.0422,3.1637,3.34,3.3956,3.4384,3.4632,3.4485,3.45,3.468,3.468,3.468,3.468,3.468,3.468,3.468,3.468,3.4399,3.3872,3.3721,3.342,3.3111,3.3111,3.3111,3.3093,0.0,0.0,0.0,0.0,0.0,0.0,0.0,0.0,0.0,0.0,0.0,0.0,0.0,0.0,0.0,0.0,0.0,0.0,0.0,0.962,0.9846,1.0508,1.1056,1.0767,0.9573,1.0623,1.1281,1.1473,1.3061,1.3832,1.3793,1.3595,1.364,1.3915,1.3787,1.3588,1.3385,1.3585,1.3375,1.3017,1.4352,1.4584,1.4128,0.0,0.0,0.0,0.0,0.0,0.0,0.0,0.0,0.0,1.0921,1.1445,1.2227,1.2788,1.3301,1.3932,1.5126,1.6621,1.8105,1.9007,2.119,2.3471,2.5,0.0,0.0,0.0,2.7559,2.6953,2.7109,0.0,0.0,0.0,0.0,0.0,0.0,0.0,0.0,0.0,0.0,0.0,0.0,0.0,0.0,0.0,0.0,0.0,0.0,0.0,0.0,0.0,3.0287,3.1432,3.3201,3.3857,3.4194,3.4293,3.424,3.4173,3.4073,3.4073,3.4073,3.4073,3.4073,3.4073,3.4073,3.4073,3.3872,3.3571,3.3571,3.337,3.3111,3.3111,3.3111,3.3111,0.0,0.0,0.0,0.0,0.0,0.0,0.0,0.0,0.0,0.0,0.0,0.0,0.0,0.0,0.0,0.0,0.0,0.0,0.0,0.0,1.0543,1.0899,1.0914,1.0735,1.0342,1.1055,1.1247,1.0889,1.258,1.3231,1.2915,1.334,1.3724,1.4055,1.4094,1.4094,1.4016,1.3633,1.3273,1.3041,1.3576,1.412,1.4495,1.3558,0.0,0.0,0.0,0.0,0.0,0.0,0.0,0.0,1.0904,1.0937,1.1346,1.3354,1.4355,1.542,1.8184,1.8848,1.9416,2.2321,2.3276,0.0,2.709,2.7767,2.7885,2.8203,0.0,2.7904,2.8223,0.0,0.0,0.0,0.0,0.0,0.0,0.0,0.0,0.0,0.0,0.0,0.0,0.0,0.0,0.0,0.0,0.0,0.0,0.0,0.0,2.9554,3.0078,3.1249,3.3051,3.3897,3.427,0.0,3.452,3.4079,3.3144,3.3093,3.3111,3.3111,3.3111,3.3111,3.3111,3.3111,3.3111,3.3111,3.3111,3.3111,3.3111,3.3111,3.3111,3.3111,0.0,0.0,0.0,0.0,0.0,0.0,0.0,0.0,0.0,0.0,0.0,0.0,0.0,0.0,0.0,0.0,0.0,0.0,0.0,0.0,1.0543,1.0899,1.106,1.1224,1.1449,1.1124,1.1175,1.1591,1.235,1.2776,1.2915,1.3627,1.3841,1.3627,1.3958,1.3919,1.3588,1.3203,1.3266,1.3624,1.3745,1.3886,1.3943,1.3409,1.2762,0.0,0.0,0.0,0.0,0.0,0.0,0.0,1.0782,1.1152,1.1604,1.2379,1.3652,1.5,1.5977,1.791,2.0079,2.2148,2.4687,2.6953,2.793,2.8164,2.8184,2.8281,2.8223,2.8184,0.0,0.0,0.0,0.0,0.0,0.0,0.0,0.0,0.0,0.0,0.0,0.0,0.0,0.0,0.0,0.0,0.0,0.0,0.0,0.0,0.0,2.9185,2.9973,3.0991,3.2269,3.3056,3.3768,0.0,3.3934,3.377,3.3696,3.3269,3.3111,3.3111,3.3111,3.3111,3.3111,3.3111,3.3111,3.3111,3.3111,3.3111,3.3111,3.3111,3.3111,3.3111,0.0,0.0,0.0,0.0,0.0,0.0,0.0,0.0,0.0,0.0,0.0,0.0,0.0,0.0,0.0,0.0,0.0,0.0,0.0,0.0,1.1437,1.157,1.1634,1.1511,1.1137,1.0787,1.0787,1.1113,1.1364,1.2059,1.3203,1.3802,1.4094,1.4121,1.4355,1.4172,1.3763,1.3359,1.3268,1.3382,1.3382,1.357,1.3756,1.2786,1.2591,1.2651,1.1444,0.0,0.0,0.0,0.0,0.0,0.0,0.0,1.1173,1.2227,1.3027,1.4062,1.6317,1.8364,0.0,2.3867,0.0,2.7519,2.8144,2.8301,2.8301,2.8301,2.8301,0.0,0.0,0.0,0.0,0.0,0.0,0.0,0.0,0.0,0.0,0.0,0.0,0.0,0.0,0.0,0.0,0.0,0.0,0.0,0.0,2.8301,2.8469,2.8778,2.9507,3.0359,3.1329,3.2236,3.2936,3.3516,3.3818,3.3926,3.3872,3.3319,3.3111,3.3111,3.3111,3.3111,3.3111,3.3111,3.3111,3.3111,3.3111,3.3111,3.3111,3.3111,3.3111,3.3111,0.0,0.0,0.0,0.0,0.0,0.0,0.0,0.0,0.0,0.0,0.0,0.0,0.0,0.0,0.0,0.0,0.0,0.0,0.0,1.1906,1.2217,1.2194,1.2123,1.163,1.0613,1.0494,1.0528,1.0716,1.0477,1.1563,1.3848,1.4016,1.4328,1.4813,1.4707,1.4473,1.4075,1.351,1.3135,1.2922,1.2843,1.3144,1.352,1.2231,1.2557,1.344,1.1639,1.1597,1.224,1.1226,0.0,0.0,0.0,0.0,1.0606,1.2113,1.25,1.3217,1.6843,1.9007,2.1289,2.5605,2.6894,0.0,2.8027,2.8242,2.8301,2.8301,0.0,0.0,0.0,0.0,0.0,0.0,0.0,0.0,0.0,0.0,0.0,0.0,0.0,0.0,0.0,0.0,0.0,0.0,0.0,0.0,2.8301,2.8301,2.837,2.8508,2.9003,2.969,3.0502,3.1449,3.2136,3.2587,3.3703,3.4125,3.3872,3.3319,3.3111,3.3111,3.3111,3.3111,3.3111,3.3111,3.3111,3.3111,3.3111,3.3111,3.3111,3.3111,3.3111,3.3111,0.0,0.0,0.0,0.0,0.0,0.0,0.0,0.0,0.0,0.0,1.0132,1.0187,0.9081,0.9298,0.0,0.0,0.0,0.0,0.9932,0.0,0.0,1.1755,1.1707,1.1597,1.1442,1.0867,1.1027,1.1972,1.0805,1.1919,1.5137,1.4426,1.4328,1.4766,1.4367,1.4153,1.4036,1.2866,1.2646,1.3026,1.2565,1.2508,1.2658,1.239,1.2173,1.1926,1.1263,1.1375,1.1748,1.0736,1.0658,0.0,0.0,0.0,0.0,1.0996,1.2207,1.3535,1.4445,0.0,2.2227,0.0,2.6515,2.7669,0.0,0.0,2.8301,0.0,0.0,0.0,0.0,0.0,0.0,0.0,0.0,0.0,0.0,0.0,0.0,0.0,0.0,0.0,0.0,0.0,0.0,0.0,0.0,0.0,2.8301,2.8301,2.837,2.8508,2.9003,2.9589,3.0258,3.0776,3.1646,3.2838,3.3367,3.3707,3.3872,3.3319,3.3111,3.3111,3.3111,3.3111,3.3111,3.3111,3.3111,3.3111,3.3111,3.3111,3.3111,3.3111,3.3111,3.3111,0.0,0.0,0.0,0.0,0.0,0.0,0.0,0.0,0.0,0.0,0.0,1.0478,1.0409,0.9939,0.0,0.0,0.0,0.0,1.0829,1.1198,0.0,0.0,1.1386,1.1064,1.0787,1.0468,1.067,1.1409,1.0561,1.1828,1.5059,1.4668,1.5117,1.6191,1.5273,1.4699,1.4394,1.2847,1.2345,1.2557,1.2093,1.2697,1.3718,1.2467,1.2802,1.3718,1.2033,1.1597,1.1689,1.0924,1.0782,1.0884,1.043,0.0,0.0,0.0,1.127,1.2593,1.5254,1.832,2.1465,0.0,2.5693,2.6456,2.7129,0.0,0.0,0.0,0.0,0.0,0.0,0.0,0.0,0.0,0.0,0.0,0.0,0.0,0.0,0.0,0.0,0.0,0.0,0.0,0.0,0.0,0.0,2.8301,2.8301,2.8301,2.8252,2.8126,2.8614,2.9013,2.9332,3.0097,3.1296,3.2871,3.3195,3.3454,3.3651,3.3602,3.337,3.3111,3.3111,3.3111,3.3111,3.3111,3.3111,3.3111,3.3111,3.3111,3.3111,3.3111,3.3111,3.3111,0.0,0.0,0.0,0.0,0.0,0.0,0.0,0.0,0.0,0.0,0.0,0.0,1.142,0.0,0.0,0.0,0.0,0.0,1.1941,0.0,0.0,0.0,0.0,1.0559,1.0169,1.0148,1.0354,1.0845,1.0407,1.1841,1.4941,1.4916,1.5941,1.7812,1.6387,1.5449,1.4844,1.3217,1.2593,1.2652,1.2507,1.3355,1.4608,1.3799,1.4618,1.5864,1.3565,1.2751,1.2595,0.0,1.1125,0.0,0.0,0.0,0.0,0.0,0.0,1.1602,0.0,0.0,1.9434,2.2891,2.4082,2.4785,0.0,0.0,0.0,0.0,0.0,0.0,0.0,0.0,0.0,0.0,0.0,0.0,0.0,0.0,0.0,0.0,0.0,0.0,0.0,0.0,0.0,0.0,0.0,2.8301,2.8301,2.8301,2.8154,2.7794,2.8236,2.8593,2.8746,2.9852,3.1196,3.2734,3.2906,3.3271,3.3742,3.3734,3.3545,3.3312,3.3187,3.3111,3.3111,3.3111,3.3111,3.3111,3.3111,3.3111,3.3111,3.3111,3.3111,3.3111,0.0,0.0,0.0,0.0,0.0,0.0,0.0,0.0,0.0,0.0,0.0,0.0,1.1217,1.1408,1.1322,1.0624,0.0,0.0,0.0,0.0,0.0,0.0,0.0,0.0,1.0293,1.0293,1.0488,1.0896,1.068,1.2221,1.5362,1.5181,1.6576,1.9121,1.7389,1.6161,1.5264,1.3984,1.3646,1.4023,1.453,1.4492,1.4471,1.7352,1.7977,1.7214,1.5814,1.5348,0.0,0.0,0.0,0.0,0.0,1.0625,1.0332,0.0,0.0,0.0,0.0,1.4668,0.0,1.9316,2.1426,0.0,0.0,0.0,0.0,0.0,0.0,0.0,0.0,0.0,0.0,0.0,0.0,0.0,0.0,0.0,0.0,0.0,0.0,0.0,0.0,0.0,0.0,0.0,0.0,2.8301,2.8301,2.8301,2.8154,2.7794,2.8236,2.8593,2.8814,3.0239,3.149,3.2533,3.245,3.3099,3.4313,3.3508,3.3395,3.3822,3.3294,3.3111,3.3111,3.3111,3.3111,3.3111,3.3111,3.3111,3.3111,3.3111,3.3111,3.3111,0.0,0.0,0.0,0.0,0.0,0.0,0.0,0.0,0.0,0.0,0.0,0.0,0.0,1.2309,1.222,1.2215,1.2638,0.0,0.0,0.0,0.0,0.0,0.0,0.0,0.0,1.0293,1.0508,1.0918,1.0556,1.1484,1.3559,1.39,1.4687,1.5795,1.6143,1.6289,1.6063,1.3685,1.3061,1.375,1.4208,1.5437,1.6985,1.7073,1.8491,2.0048,1.7298,0.0,0.0,0.0,0.0,0.0,1.1157,1.1017,1.1017,1.0469,1.0684,0.0,0.0,0.0,0.0,1.7637,1.957,2.123,0.0,0.0,0.0,0.0,0.0,0.0,0.0,0.0,0.0,0.0,0.0,0.0,0.0,0.0,0.0,0.0,0.0,0.0,0.0,0.0,0.0,0.0,0.0,0.0,2.791,2.7891,2.7791,2.7621,2.8074,2.8876,2.9943,3.0646,3.1324,3.1982,3.2596,3.2985,3.3123,3.382,3.4048,3.3897,3.3696,3.3395,3.3111,3.3111,3.3111,3.3111,3.3111,3.3111,3.3111,3.3111,3.3111,3.3111,0.0,0.0,0.0,0.0,0.0,0.0,0.0,0.0,0.0,1.2388,0.0,0.0,0.0,0.0,1.3361,1.3498,1.335,1.2729,1.1579,0.0,0.0,0.0,0.0,0.0,0.0,1.0293,1.043,1.0703,1.0566,1.1152,1.2419,1.3157,1.3803,1.4354,1.4965,1.5684,1.6387,1.4375,1.3848,1.4453,1.5449,1.6785,1.8257,1.876,2.0086,2.1469,0.0,0.0,0.0,0.0,0.0,0.0,1.2301,1.1602,1.1036,1.0469,1.0802,0.0,1.2051,0.0,0.0,0.0,0.0,1.8809,0.0,0.0,0.0,0.0,0.0,0.0,0.0,0.0,0.0,0.0,0.0,0.0,0.0,0.0,0.0,0.0,0.0,0.0,0.0,0.0,0.0,0.0,0.0,0.0,2.8061,2.8073,2.8157,2.8383,2.8647,2.9355,3.0442,3.0916,3.1273,3.1584,3.2479,3.2843,3.2671,3.3701,3.4073,3.3897,3.3897,3.3696,3.3345,3.3144,3.3111,3.3111,3.3111,3.3111,3.3111,3.3111,3.3111,3.3111,0.0,0.0,0.0,0.0,0.0,0.0,0.0,0.0,1.2447,1.2463,0.0,0.0,0.0,0.0,0.0,1.4166,1.363,1.3097,1.2538,1.1579,0.0,0.0,0.0,0.0,1.0293,1.0293,1.0293,1.0293,1.0684,1.1307,1.2138,1.3022,1.4075,1.5225,1.4016,1.4434,1.6026,1.5987,1.6026,1.6281,1.8414,1.8555,1.8027,2.2598,2.3125,0.0,2.1816,2.1427,0.0,1.9163,0.0,0.0,0.0,1.2363,1.0332,1.0332,1.0625,0.0,0.0,0.0,0.0,0.0,0.0,0.0,0.0,0.0,0.0,0.0,0.0,0.0,0.0,0.0,0.0,0.0,0.0,0.0,0.0,0.0,0.0,0.0,0.0,0.0,0.0,0.0,0.0,0.0,0.0,2.799,2.8695,2.8752,2.918,3.0061,2.9986,3.0011,3.0216,3.0937,3.1318,3.1339,3.2025,3.2671,3.3162,3.3127,3.3395,3.3897,3.3897,3.3897,3.3847,3.3345,3.3162,3.3162,3.3162,3.3162,3.3162,3.3119,3.3093,3.3093,0.0,0.0,0.0,0.0,0.0,1.3204,1.4081,1.3833,1.372,0.0,0.0,0.0,1.4676,1.4828,1.4833,1.4702,1.4188,1.3502,1.2647,1.1946,1.1244,1.0525,1.037,1.0293,1.0293,1.0293,1.0293,1.0293,1.041,1.0479,1.056,1.1264,1.1876,1.2394,1.3176,1.3769,1.418,1.3555,1.4355,1.6202,1.7455,1.918,0.0,0.0,0.0,0.0,0.0,2.2969,2.1973,0.0,1.9333,1.5752,0.0,0.0,1.1253,1.1253,1.1523,0.0,1.1486,0.0,0.0,0.0,0.0,0.0,0.0,0.0,0.0,0.0,0.0,0.0,0.0,0.0,0.0,0.0,0.0,0.0,0.0,0.0,0.0,0.0,0.0,0.0,0.0,0.0,0.0,0.0,2.7187,2.7165,2.7063,2.7634,2.8511,2.9849,3.0057,3.0329,3.0781,3.1139,3.1496,3.1805,3.2225,3.2561,3.286,3.3414,3.3746,3.3897,3.3897,3.3897,3.3922,3.4173,3.4274,3.4274,3.4274,3.4274,3.4223,3.3822,3.3671,3.3621,0.0,0.0,0.0,1.443,1.389,1.3697,1.4426,1.3994,1.3712,0.0,0.0,0.0,1.5151,1.5844,1.599,1.5286,1.4934,1.4348,1.3274,1.2536,1.1762,1.0964,1.0685,1.0547,1.0547,1.0743,1.0743,1.0547,1.0547,1.0366,1.0097,1.0636,1.096,1.1105,1.2003,1.2637,1.2905,1.2246,1.3365,1.5752,1.8047,0.0,0.0,2.3105,2.4551,0.0,0.0,0.0,2.3926,2.4355,2.1388,0.0,0.0,0.0,0.0,1.1724,1.2034,0.0,0.0,0.0,0.0,0.0,0.0,0.0,0.0,1.6621,0.0,0.0,0.0,0.0,0.0,0.0,0.0,0.0,0.0,0.0,0.0,0.0,0.0,0.0,0.0,0.0,0.0,0.0,0.0,2.6758,2.6758,2.6813,2.6899,2.7841,2.8795,2.9761,3.0147,3.0578,3.0984,3.1318,3.1629,3.1893,3.2201,3.2487,3.2618,3.3264,3.3545,3.3571,3.3796,3.3897,3.3947,3.45,3.4449,3.4048,3.4048,3.4048,3.4022,3.3922,3.3897,3.3897,0.0,0.0,1.489,1.4881,1.4417,1.4085,1.4132,1.357,1.3192,0.0,1.385,1.4609,1.5657,1.7094,1.7395,1.6022,1.574,1.5212,1.435,1.3212,1.2361,1.1838,1.1244,1.0918,1.0918,1.1349,1.1369,1.0918,1.0918,1.0684,1.0312,1.0664,1.084,1.084,1.0879,1.1346,1.2125,1.1897,1.3052,1.5352,1.9202,2.0371,0.0,0.0,2.5391,2.4492,2.5996,2.625,2.5849,2.6055,2.3262,0.0,0.0,0.0,0.0,0.0,1.2524,0.0,0.0,0.0,0.0,0.0,0.0,0.0,1.5634,1.6035,0.0,0.0,0.0,0.0,0.0,0.0,0.0,0.0,0.0,0.0,0.0,0.0,0.0,0.0,0.0,0.0,0.0,2.6875,2.6719,2.6348,2.6309,2.6723,2.7573,2.8563,2.9349,2.9806,3.0283,3.0736,3.1029,3.1496,3.1761,3.1805,3.2245,3.2444,3.2487,3.2896,3.3111,3.3136,3.3596,3.3796,3.3847,3.4349,3.4022,3.3269,3.3269,3.3269,3.3319,3.3746,3.3897,3.3947,0.0,1.4828,1.4898,1.4832,1.4598,1.4541,1.4991,1.4519,1.4433,1.5284,1.582,1.6284,1.6899,1.6664,1.6673,1.7261,1.5881,1.5103,1.5447,1.3682,1.238,1.1901,1.1247,1.0918,1.0918,1.1349,1.1369,1.0918,1.0918,1.0684,1.0293,1.0391,1.043,1.043,1.0762,1.1191,1.178,1.2739,1.4375,1.6434,1.7656,1.9844,2.2516,2.418,2.5898,2.7422,2.7422,2.7129,2.6504,2.4863,2.3437,2.1795,0.0,0.0,0.0,1.4367,1.4492,1.5204,1.3965,0.0,0.0,0.0,0.0,0.0,1.3256,1.3802,0.0,0.0,0.0,0.0,0.0,0.0,0.0,0.0,0.0,0.0,0.0,0.0,0.0,0.0,0.0,0.0,0.0,2.5927,2.5908,2.583,2.5859,2.6335,2.7552,2.7647,2.8283,2.9761,3.0102,3.0578,3.1229,3.1717,3.2113,3.2506,3.2593,3.2766,3.2982,3.3068,3.3111,3.3136,3.3194,3.3244,3.3244,3.3345,3.3796,3.4399,3.4399,3.4399,3.4349,3.4022,3.3897,3.3847,1.5311,1.5492,1.5682,1.5574,1.5177,1.4951,1.516,1.4665,1.4582,1.5552,1.6814,1.7399,1.692,1.7049,1.7073,1.6863,1.5749,1.5127,1.5286,1.409,1.3017,1.227,1.209,1.1768,1.1252,1.1897,1.1917,1.1252,1.1252,1.0919,1.0293,1.0293,1.0762,1.1584,1.1113,1.1621,1.2852,1.2847,1.3841,1.5654,1.8496,0.0,2.3919,2.5703,2.7168,2.8262,2.8047,2.7832,2.7363,2.541,2.4043,0.0,0.0,1.9492,1.8535,0.0,1.6211,1.6378,1.4582,0.0,0.0,1.3972,0.0,0.0,0.0,0.0,1.4153,0.0,0.0,0.0,0.0,0.0,0.0,0.0,0.0,0.0,0.0,0.0,0.0,0.0,0.0,0.0,0.0,2.5031,2.5176,2.5391,2.5605,2.5965,2.662,2.6764,2.76,2.9211,2.9738,3.0509,3.1649,3.2025,3.2288,3.255,3.2636,3.2766,3.2896,3.3025,3.3111,3.3111,3.3111,3.3111,3.3111,3.3111,3.3395,3.3897,3.3897,3.3897,3.3897,3.3897,3.3897,3.3897,1.5823,1.6005,1.6122,1.6009,1.5604,1.5163,1.493,1.452,1.4582,1.5547,1.7518,1.8462,1.7431,1.8225,1.8481,1.7564,1.6634,1.6003,1.5707,1.488,1.4027,1.3119,1.2977,1.2652,1.2096,1.2543,1.2387,1.1606,1.1528,1.1056,1.0293,1.0391,1.1173,1.2461,1.1738,1.2359,1.3938,1.3061,0.0,1.5829,0.0,2.2383,2.3613,2.6367,2.7519,2.7734,2.8144,2.8301,2.8047,2.6406,2.4883,2.3482,2.2168,2.1016,0.0,0.0,0.0,0.0,0.0,0.0,0.0,0.0,0.0,1.4277,0.0,0.0,0.0,1.5224,0.0,0.0,0.0,0.0,0.0,0.0,0.0,0.0,0.0,0.0,0.0,0.0,0.0,0.0,0.0,2.3926,2.4219,2.4883,2.498,2.5128,2.5538,2.626,2.7259,2.868,2.9624,3.0711,3.2045,3.2332,3.2463,3.2531,3.268,3.2766,3.2766,3.2982,3.3111,3.3111,3.3111,3.3111,3.3111,3.3111,3.3111,3.3111,3.3111,3.3111,3.3144,3.3571,3.3746,3.3796,1.6314,1.5598,1.4903,1.4902,1.5015,1.4904,1.4307,1.45,1.5156,1.6395,1.8429,1.9976,2.0585,2.0761,2.137,2.2609,2.0498,1.9059,1.8907,1.6763,1.5321,1.4843,1.3205,1.2782,1.3782,1.2808,1.207,1.1606,1.1172,1.0742,1.0312,1.0664,1.0937,1.1191,1.2598,1.3359,1.3613,0.0,1.6797,0.0,2.1034,2.0508,0.0,2.3027,2.4766,2.5732,2.7598,2.8301,2.8086,0.0,2.5918,2.4914,0.0,2.2207,2.2578,0.0,0.0,0.0,0.0,0.0,0.0,0.0,1.6152,0.0,0.0,0.0,1.388,1.3359,0.0,0.0,0.0,0.0,0.0,0.0,0.0,0.0,0.0,0.0,0.0,0.0,0.0,0.0,0.0,0.0,2.2812,2.4375,2.3144,2.3144,2.5086,2.646,2.7647,2.8659,3.0283,3.1536,3.2356,3.255,3.281,3.3025,3.3025,3.3068,3.3068,3.3068,3.3111,3.3111,3.3111,3.3111,3.3111,3.3111,3.3111,3.3111,3.3111,3.3111,3.3136,3.3144,3.3212,3.3212,1.5399,1.5039,1.4649,1.4536,1.4606,1.4661,1.4543,1.5937,1.6946,1.6754,1.8286,1.9478,1.9734,1.9401,1.9926,2.171,2.0372,1.9332,1.9123,1.7655,1.6402,1.5481,1.4179,1.3555,1.3769,1.273,1.2012,1.1606,1.1113,1.0684,1.0312,1.0703,1.156,1.2808,1.4036,1.5449,1.6875,0.0,1.7793,0.0,0.0,0.0,0.0,2.4336,2.6621,2.7051,2.7969,2.8301,2.8105,0.0,2.5762,0.0,0.0,0.0,0.0,0.0,0.0,0.0,0.0,0.0,0.0,0.0,0.0,0.0,1.418,0.0,1.3437,0.0,0.0,0.0,0.0,0.0,0.0,0.0,0.0,0.0,0.0,0.0,0.0,0.0,0.0,0.0,0.0,0.0,0.0,0.0,0.0,2.2852,2.4258,2.5418,2.6877,2.8721,2.967,3.1024,3.2766,3.2896,3.2982,3.3111,3.3111,3.3111,3.3111,3.3111,3.3111,3.3111,3.3111,3.3111,3.3111,3.3111,3.3111,3.3111,3.3111,3.3111,3.3111,3.3111,3.3111,3.3111,1.4258,1.4212,1.4204,1.4233,1.4204,1.4373,1.5046,1.6934,1.7983,1.7259,1.8515,1.9529,1.9752,1.9763,2.0504,2.2399,2.1836,2.1115,2.0454,1.917,1.8108,1.7429,1.5662,1.47,1.4727,1.3295,1.2305,1.176,1.1309,1.0937,1.0665,1.1074,1.2086,1.3646,1.5089,1.6953,1.8945,0.0,1.9355,1.9766,2.0742,2.1016,2.1309,2.5723,2.7773,2.8301,2.8301,2.8301,2.8105,2.6816,2.5742,0.0,2.5664,0.0,0.0,0.0,0.0,0.0,1.9609,0.0,0.0,0.0,0.0,0.0,0.0,0.0,0.0,0.0,0.0,0.0,0.0,0.0,0.0,0.0,0.0,0.0,0.0,0.0,0.0,0.0,0.0,0.0,0.0,0.0,0.0,0.0,0.0,0.0,2.3516,2.4544,2.6214,2.8723,2.9398,3.0814,3.3068,3.3111,3.3111,3.3111,3.3111,3.3111,3.3111,3.3111,3.3111,3.3111,3.3111,3.3111,3.3111,3.3111,3.3111,3.3111,3.3111,3.3111,3.3111,3.3111,3.3111,3.3111,1.3065,1.2944,1.3138,1.3718,1.365,1.4109,1.5791,1.6848,1.7598,1.8013,1.9555,2.1103,2.2369,2.3935,2.5647,2.735,2.7031,2.6035,2.4316,2.1877,2.084,2.1662,1.7631,1.6133,1.7832,1.498,1.3022,1.2184,1.178,1.1567,1.1567,1.1973,1.2203,1.2398,1.5342,1.7155,1.8164,1.9842,2.2422,2.5343,2.459,2.5762,2.7754,0.0,2.6465,2.8301,2.8301,0.0,0.0,2.6816,2.6367,0.0,0.0,0.0,0.0,0.0,0.0,0.0,0.0,0.0,0.0,1.7662,0.0,0.0,0.0,0.0,1.452,0.0,0.0,0.0,0.0,0.0,0.0,0.0,0.0,0.0,0.0,0.0,0.0,0.0,0.0,0.0,0.0,0.0,0.0,0.0,0.0,0.0,2.2925,2.4315,2.6174,2.8746,2.994,3.1355,3.3068,3.3111,3.3111,3.3111,3.3111,3.3111,3.3111,3.3111,3.3111,3.3111,3.3111,3.3111,3.3111,3.3111,3.3111,3.3111,3.3111,3.3111,3.3111,3.3111,3.3111,3.3111,1.3406,1.3516,1.3586,1.3266,1.3372,1.418,1.6191,1.7949,1.9316,2.0135,2.011,2.1105,2.4031,2.37,2.4594,2.7829,2.7695,2.6953,2.5801,2.3599,2.2422,2.2695,1.8867,1.7383,0.0,0.0,0.0,1.3061,1.2363,1.1855,1.1606,1.2012,1.2359,1.2793,1.582,1.8281,0.0,0.0,0.0,0.0,0.0,2.5644,2.7422,0.0,0.0,2.8301,2.8301,2.8301,0.0,2.7793,2.709,2.6465,2.6855,2.6016,2.4941,2.5391,2.5215,0.0,0.0,0.0,2.4141,2.0234,0.0,0.0,0.0,0.0,0.0,0.0,0.0,0.0,0.0,0.0,0.0,0.0,0.0,0.0,0.0,0.0,0.0,0.0,0.0,0.0,0.0,0.0,0.0,0.0,0.0,0.0,0.0,2.304,2.5035,2.7843,2.8914,3.0592,3.3068,3.3111,3.3111,3.3111,3.3111,3.3111,3.3111,3.3111,3.3111,3.3111,3.3111,3.3111,3.3111,3.3111,3.3111,3.3111,3.3111,3.3111,3.3111,3.3111,3.3111,3.3111,1.3808,1.3802,1.3763,1.3398,1.4062,1.5245,1.7096,1.9065,2.0749,2.1862,2.1526,2.2403,2.5552,2.4916,2.5487,0.0,2.8633,2.8086,2.6914,2.5391,0.0,2.4297,2.1309,2.0039,0.0,0.0,0.0,0.0,0.0,1.291,0.0,0.0,0.0,0.0,0.0,1.8437,2.1113,2.2988,2.457,0.0,0.0,2.6465,0.0,0.0,2.8105,2.7871,0.0,2.8301,2.8301,2.8301,2.7734,2.7207,2.8027,2.7148,2.5937,2.6641,2.6348,2.5664,2.5059,2.5625,0.0,2.2109,2.129,0.0,1.6562,0.0,0.0,0.0,0.0,0.0,0.0,0.0,0.0,0.0,0.0,0.0,0.0,0.0,0.0,0.0,0.0,0.0,0.0,0.0,1.5635,1.7207,0.0,0.0,0.0,0.0,2.4472,2.7118,2.8457,3.0308,3.2767,3.2968,3.3111,3.3111,3.3111,3.3111,3.3111,3.3111,3.3111,3.3111,3.3111,3.3111,3.3111,3.3111,3.3111,3.3111,3.3111,3.3111,3.3111,3.3111,3.3111,3.3111,1.4172,1.3919,1.3841,1.425,1.5654,1.7174,1.85,2.0177,2.1824,2.3272,2.3839,2.4878,2.7105,2.7675,2.8369,2.9631,3.0059,2.959,2.7982,2.7383,0.0,0.0,2.4824,2.3867,2.3926,0.0,0.0,0.0,0.0,0.0,0.0,0.0,0.0,0.0,1.5126,0.0,2.0723,2.2832,2.5508,2.8301,2.8301,2.8262,2.8242,2.8281,2.7754,2.7129,2.7988,2.8301,2.8301,2.8301,2.8301,2.8301,2.8301,2.8301,2.8203,2.7812,2.7988,2.793,2.6259,2.6172,2.5879,2.334,0.0,0.0,0.0,0.0,1.96,0.0,0.0,0.0,0.0,0.0,0.0,0.0,0.0,0.0,0.0,0.0,0.0,0.0,0.0,0.0,0.0,0.0,1.3776,1.585,1.6426,0.0,0.0,0.0,2.4285,2.6435,2.8524,3.0405,3.2022,3.2707,3.3025,3.3025,3.3068,3.3111,3.3111,3.3111,3.3111,3.3111,3.3111,3.3111,3.3111,3.3111,3.3111,3.3111,3.3111,3.3111,3.3111,3.3111,3.3111,3.3111,1.505,1.6035,1.696,1.7369,1.7324,1.7852,1.9785,2.1584,2.3504,2.5775,2.6199,2.7435,3.0524,2.9874,2.987,3.1385,3.1601,0.0,0.0,0.0,0.0,2.875,2.6221,2.5039,2.5703,2.1914,0.0,1.8633,0.0,0.0,1.3782,0.0,0.0,0.0,0.0,0.0,2.0215,2.2383,2.5234,2.8301,2.8301,2.791,0.0,0.0,2.7754,2.7129,2.7988,2.8301,2.8301,2.8301,2.8301,2.8301,2.8301,2.8301,2.8262,2.8164,2.8203,2.8203,2.7754,2.7715,2.7422,2.5801,2.4648,2.3703,0.0,0.0,0.0,0.0,0.0,0.0,0.0,0.0,0.0,0.0,0.0,0.0,0.0,0.0,0.0,0.0,0.0,0.0,0.0,0.0,1.3711,1.457,0.0,0.0,0.0,0.0,0.0,2.4798,2.6368,2.7988,2.9653,3.1005,3.1689,3.1689,3.2655,3.3111,3.3111,3.3111,3.3111,3.3111,3.3111,3.3111,3.3111,3.3111,3.3111,3.3111,3.3111,3.3111,3.3111,3.3111,3.3111,3.3111,1.6465,1.793,1.9258,1.965,0.0,0.0,2.2031,2.293,0.0,2.7207,2.7723,0.0,3.1366,3.1279,3.1461,3.238,3.2285,0.0,3.0644,0.0,0.0,2.9316,2.8008,2.7363,2.75,2.4375,0.0,2.0137,0.0,0.0,1.3821,0.0,0.0,0.0,0.0,1.6843,1.9553,2.3086,2.5781,2.7754,2.8144,0.0,0.0,2.8105,2.7988,2.7637,2.8125,2.8301,2.8301,2.8301,2.8301,2.8301,2.8301,2.8301,2.8301,2.8301,2.8301,2.8301,2.8301,2.8301,2.8265,2.8135,2.7521,2.6921,2.6585,2.6956,2.7264,0.0,0.0,0.0,0.0,0.0,0.0,0.0,0.0,0.0,0.0,0.0,0.0,0.0,0.0,0.0,0.0,0.0,0.0,0.0,0.0,0.0,0.0,0.0,0.0,2.3073,2.5986,2.8066,2.9242,3.1085,3.204,3.2064,3.2742,3.3111,3.3111,3.3111,3.3111,3.3111,3.3111,3.3111,3.3111,3.3111,3.3111,3.3111,3.3111,3.3111,3.3111,3.3111,3.3111,3.3111,1.8105,1.9648,2.0918,0.0,0.0,0.0,0.0,2.4707,0.0,2.8281,0.0,2.9941,3.1094,3.2207,3.2871,3.2871,0.0,3.1816,3.0625,3.125,3.0957,2.9336,2.9922,2.9883,2.9023,2.7226,2.4687,0.0,0.0,0.0,0.0,0.0,0.0,0.0,0.0,0.0,0.0,2.4199,2.6582,2.7246,2.7988,2.8301,2.8301,2.8301,2.8301,2.8301,2.8301,2.8301,2.8301,2.8301,2.8301,2.8301,2.8301,2.8301,2.8301,2.8301,2.8301,2.8301,2.8301,2.8441,2.8847,3.0016,3.0411,3.0442,2.9896,2.9782,3.0022,3.081,2.9026,2.8548,0.0,0.0,0.0,0.0,0.0,0.0,0.0,0.0,0.0,0.0,0.0,0.0,0.0,0.0,0.0,0.0,0.0,0.0,0.0,0.0,0.0,2.1649,2.6217,2.8923,2.955,0.0,3.2853,3.2853,3.3025,3.3111,3.3111,3.3111,3.3111,3.3111,3.3111,3.3111,3.3111,3.3111,3.3111,3.3111,3.3111,3.3111,3.3111,3.3111,3.3111,3.3111,1.9473,2.0977,2.209,0.0,0.0,2.5898,2.7383,2.8144,2.9004,3.0273,3.1719,3.2715,3.2949,3.3184,3.332,3.332,3.3242,0.0,0.0,0.0,0.0,3.1113,3.0879,3.0351,2.9473,2.709,2.4687,0.0,0.0,0.0,1.4531,0.0,0.0,0.0,0.0,0.0,2.1992,2.4316,0.0,2.8086,2.8242,2.8301,2.8301,2.8301,2.8301,2.8301,2.8301,2.8301,2.8301,2.8301,2.8301,2.8301,2.8301,2.8301,2.8301,2.8301,2.8301,2.8301,2.8301,2.9112,3.0016,3.0224,3.1133,3.2219,3.3237,3.348,3.3696,3.44,3.3851,3.2771,3.142,0.0,0.0,0.0,0.0,0.0,0.0,0.0,0.0,0.0,0.0,0.0,0.0,0.0,0.0,0.0,0.0,0.0,0.0,0.0,0.0,0.0,2.4757,0.0,0.0,0.0,3.1533,3.1533,3.2612,3.3111,3.3111,3.3111,3.3111,3.3111,3.3111,3.3111,3.3111,3.3111,3.3111,3.3111,3.3111,3.3111,3.3111,3.3111,3.3111,3.3111,2.1562,0.0,2.3711,0.0,0.0,0.0,0.0,3.1406,3.1914,3.1016,3.1601,3.2109,3.2109,3.2891,3.3418,3.3418,3.3418,3.334,3.3125,3.291,3.2617,3.2187,3.1777,3.1152,3.0273,2.8594,2.6113,2.2789,0.0,0.0,1.4793,0.0,0.0,0.0,0.0,1.9004,0.0,0.0,0.0,2.8008,2.8437,2.8613,2.8613,2.8613,2.8476,2.8301,2.8301,2.8301,2.8301,2.8301,2.8301,2.8301,2.8301,2.8301,2.8301,2.8301,2.8301,2.8301,2.8301,2.9303,3.0463,3.1184,3.2404,3.3773,3.5114,3.5427,3.5545,3.5865,3.5303,3.3796,3.0758,2.7921,0.0,0.0,0.0,0.0,0.0,0.0,0.0,0.0,0.0,0.0,0.0,0.0,0.0,0.0,0.0,0.0,0.0,0.0,0.0,0.0,0.0,0.0,0.0,0.0,0.0,3.1223,3.2481,3.3111,3.3111,3.3111,3.3111,3.3111,3.3111,3.3111,3.3111,3.3111,3.3111,3.3111,3.3111,3.3111,3.3111,3.3111,3.3111,3.3111,2.3906,2.459,0.0,0.0,2.8984,3.0644,3.1953,3.3613,3.3984,3.1973,3.1699,3.1699,3.1699,3.2812,3.3555,3.3555,3.3476,3.3418,3.3418,3.3105,3.2891,3.2793,3.248,3.1855,3.0918,3.0215,2.7832,0.0,0.0,0.0,0.0,0.0,0.0,0.0,0.0,0.0,0.0,0.0,2.7031,2.8178,2.8789,2.9062,2.9062,2.9062,2.8848,2.8555,2.8457,2.8418,2.8418,2.832,2.8301,2.8301,2.8301,2.8301,2.8301,2.8301,2.8301,2.8301,2.8301,2.9303,3.0618,3.1977,3.3353,3.4727,3.6121,3.6405,3.638,3.6254,3.5303,3.3571,3.0382,2.8787,0.0,0.0,0.0,0.0,0.0,0.0,0.0,0.0,0.0,0.0,0.0,0.0,0.0,0.0,0.0,0.0,1.474,1.4954,0.0,0.0,0.0,2.4172,2.6669,0.0,3.0941,3.1645,3.2612,3.3111,3.3111,3.3111,3.3111,3.3111,3.3111,3.3111,3.3111,3.3111,3.3111,3.3111,3.3111,3.3111,3.3111,3.3111,3.3111,3.3111,0.0,0.0,0.0,0.0,0.0,3.2033,3.2209,3.3613,3.4609,3.4375,3.4336,3.4336,3.4336,3.4141,3.4004,3.4004,3.3652,3.3418,3.3418,3.3379,3.3184,3.2812,3.2754,3.2148,3.0918,3.082,2.9023,0.0,0.0,2.0937,0.0,0.0,0.0,0.0,0.0,0.0,0.0,2.6094,2.7559,2.945,2.9473,2.9512,2.9512,2.9512,2.9492,2.9394,2.9004,2.8867,2.8809,2.8418,2.8301,2.8301,2.8301,2.8301,2.8301,2.8301,2.8301,2.8301,2.8301,2.9303,3.0618,3.1977,3.3353,3.4727,3.6121,3.6405,3.6254,3.5683,3.4751,3.3119,3.0306,3.126,3.1175,0.0,0.0,0.0,0.0,0.0,0.0,0.0,0.0,0.0,0.0,0.0,0.0,0.0,0.0,0.0,1.5459,1.5685,1.7641,2.1667,0.0,2.4206,2.7891,2.9728,3.1399,3.2939,3.3025,3.3111,3.3111,3.3111,3.3111,3.3111,3.3111,3.3111,3.3111,3.3111,3.3111,3.3111,3.3111,3.3111,3.3111,3.3111,3.3111,3.3111,0.0,0.0,0.0,0.0,0.0,0.0,0.0,3.5059,3.5488,3.5488,3.5019,3.4707,3.4707,3.4551,3.4453,3.4453,3.4062,3.3809,3.3809,3.3574,3.334,3.3184,3.3164,3.2812,3.2051,3.1523,2.9941,0.0,0.0,0.0,0.0,0.0,0.0,0.0,0.0,2.459,2.623,2.7676,2.8945,2.9941,2.9941,2.9941,2.9941,2.9941,2.9785,2.9607,2.9375,2.9316,2.9238,2.8809,2.8496,2.8301,2.8301,2.8301,2.8301,2.8301,2.8301,2.8301,2.8301,2.9303,3.0618,3.1977,3.3353,3.4727,3.6121,3.6405,3.6207,3.5608,3.4675,3.347,3.2039,3.1411,3.0859,0.0,0.0,0.0,0.0,0.0,0.0,0.0,0.0,0.0,0.0,0.0,0.0,0.0,0.0,0.0,0.0,0.0,0.0,2.0563,0.0,2.3715,2.6465,2.9213,3.1028,3.1952,3.2742,3.3111,3.3111,3.3111,3.3111,3.3111,3.3111,3.3111,3.3111,3.3111,3.3111,3.3111,3.3111,3.3111,3.3111,3.3111,3.3111,3.3111,3.1543,0.0,3.1777,0.0,3.3945,3.4258,3.5781,3.6016,3.6016,3.6016,3.5469,3.5098,3.5098,3.498,3.4902,3.4902,3.4512,3.4258,3.4258,3.3848,3.3613,3.3613,3.3496,0.0,3.2812,3.2207,3.1016,2.9238,2.6758,0.0,0.0,0.0,0.0,0.0,2.543,2.6758,2.7598,2.9121,3.0,3.041,3.041,3.041,3.041,3.041,3.0215,2.9941,2.9805,2.9746,2.9687,2.9258,2.8906,2.8633,2.8379,2.8301,2.8301,2.8301,2.8301,2.8301,2.8301,2.9303,3.0618,3.1977,3.3353,3.4727,3.6121,3.6405,3.6157,3.5408,3.4424,3.3545,3.3144,3.1813,3.0909,3.1411,0.0,0.0,0.0,0.0,0.0,0.0,0.0,2.0289,1.9836,0.0,0.0,0.0,0.0,0.0,0.0,0.0,0.0,0.0,0.0,0.0,0.0,2.9112,3.0985,3.1777,3.2655,3.3111,3.3111,3.3111,3.3111,3.3111,3.3111,3.3111,3.3111,3.3111,3.3111,3.3111,3.3111,3.3111,3.3111,3.3111,3.3111,3.3111,3.3066,3.3379,3.3926,3.5684,3.5976,3.5996,3.6016,3.6016,3.6016,3.6016,3.6016,3.5996,3.5996,3.5625,3.5391,3.5391,3.4961,3.4687,3.4687,3.4297,3.4062,0.0,0.0,3.3223,3.2812,3.2793,3.2363,3.1484,0.0,0.0,2.7611,0.0,2.5703,2.6973,2.7441,2.8574,3.0156,3.0176,3.0449,3.0879,3.0879,3.0879,3.0879,3.0879,3.0879,3.082,3.0351,3.0195,3.0117,2.9707,2.9607,2.9414,2.8555,2.8301,2.8301,2.8301,2.8301,2.8301,2.8301,2.9303,3.0618,3.1977,3.3353,3.4727,3.6121,3.6405,3.6103,3.4951,3.3847,3.3136,3.3111,3.3086,3.2382,3.0181,0.0,0.0,0.0,0.0,0.0,0.0,2.1518,1.9811,1.9811,0.0,0.0,0.0,0.0,0.0,0.0,0.0,0.0,2.3873,2.3919,0.0,2.8024,2.9755,3.1442,3.3068,3.3068,3.3111,3.3111,3.3111,3.3111,3.3111,3.3111,3.3111,3.3111,3.3111,3.3111,3.3111,3.3111,3.3111,3.3111,3.3111,3.3111,3.3111,3.5078,3.5195,3.5371,3.5918,3.6016,3.6016,3.6016,3.6016,3.6016,3.6016,3.6016,3.6016,3.6016,3.5898,3.582,0.0,3.543,3.5176,0.0,3.4746,3.4492,3.4492,3.4082,3.3809,3.3672,3.3086,3.2656,3.2383,0.0,0.0,0.0,2.8086,2.8223,2.9199,2.9336,2.9687,3.0234,3.084,3.1016,3.0918,3.1211,3.1152,3.0898,3.0898,3.0898,3.0879,3.0723,3.0664,3.0605,3.0156,3.0,2.9902,2.9336,2.8965,2.8672,2.8379,2.8301,2.8301,2.8301,2.9303,3.0618,3.1977,3.3353,3.4727,3.6121,3.6081,3.5604,3.4831,3.4148,3.352,3.3187,3.3111,3.2634,3.111,3.116,0.0,0.0,0.0,0.0,0.0,0.0,2.1518,0.0,2.1217,0.0,0.0,0.0,0.0,0.0,0.0,0.0,0.0,2.5732,0.0,2.9252,3.1257,3.2567,3.3111,3.3111,3.3111,3.3111,3.3111,3.3111,3.3111,3.3111,3.3111,3.3111,3.3111,3.3111,3.3111,3.3111,3.3111,3.3111,3.3111,3.3111,3.3111,3.6016,3.6016,3.6016,3.6016,3.6016,3.6016,3.6016,3.6016,3.6016,3.6016,3.6016,3.6016,3.6016,3.6016,0.0,3.6016,3.5781,3.5625,3.5625,3.5215,3.4961,3.4961,3.4531,3.4316,3.4316,3.3633,0.0,3.3281,3.1855,3.0957,3.0605,3.0273,3.043,3.0937,3.0937,3.0937,3.0976,3.1523,3.1621,3.1387,3.166,3.1601,3.1348,3.1191,3.1133,3.1113,3.0937,3.0898,3.084,3.0547,3.0449,3.0391,2.9941,2.9609,2.9277,2.8691,2.8535,2.8496,2.834,2.967,3.1265,3.2079,3.3749,3.5379,3.6216,3.5931,3.5408,3.5056,3.4424,3.3796,3.3445,3.3262,3.2759,3.1587,3.1235,3.0331,2.8122,0.0,0.0,0.0,0.0,0.0,0.0,2.2874,0.0,0.0,0.0,0.0,0.0,0.0,0.0,2.5252,2.7878,0.0,3.0708,3.229,3.3111,3.3111,3.3111,3.3111,3.3111,3.3111,3.3111,3.3111,3.3111,3.3111,3.3111,3.3111,3.3111,3.3111,3.3111,3.3111,3.3093,3.3319,3.3395,3.3395,3.6016,3.6016,3.6016,0.0,3.6016,0.0,3.6016,3.6016,3.6016,3.6016,3.6016,3.6016,3.6016,3.6016,3.6016,3.6016,0.0,0.0,0.0,3.5664,3.543,3.543,3.5,3.4746,3.4746,3.4336,3.4101,3.4082,3.3242,3.2637,3.2246,3.2226,3.2207,3.2268,3.2187,3.2229,3.2229,3.2268,3.2268,3.2229,3.2207,3.2187,3.2129,3.1719,3.1562,3.1504,3.1113,3.0957,3.0937,3.0937,3.0918,3.082,3.0391,3.0234,3.0078,2.9219,2.8945,2.8828,2.8437,3.0193,3.218,3.228,3.4387,3.6405,3.6405,3.5981,3.5533,3.5508,3.4726,3.3997,3.3922,3.347,3.2742,3.1587,3.0959,2.9829,2.7544,0.0,0.0,0.0,0.0,0.0,0.0,2.4098,2.546,0.0,0.0,0.0,0.0,0.0,2.5151,2.8838,3.0131,3.121,3.2265,3.2817,3.3111,3.3111,3.3111,3.3111,3.3111,3.3111,3.3111,3.3111,3.3111,3.3111,3.3111,3.3111,3.3093,3.3187,3.3187,3.3169,3.3244,3.3771,3.3947,3.3947,0.0,0.0,3.6016,3.6016,3.6016,3.6016,3.6016,3.6016,3.6016,3.6016,3.6016,3.6016,3.6016,3.6016,3.6016,3.6016,3.6016,3.6016,3.6016,3.5937,3.5879,3.5879,3.5469,3.5234,3.5234,3.4785,3.4394,3.4082,3.3535,3.3223,3.3125,3.2793,3.2656,3.2637,3.2305,3.2229,3.2187,3.2519,3.2461,3.2268,3.2519,3.2461,3.2209,3.2051,3.2012,3.2012,3.1894,3.166,3.1367,3.1367,3.1152,3.0879,3.0762,3.0723,3.0547,2.9668,2.918,2.8906,2.8789,2.9758,3.103,3.2028,3.4387,3.6405,3.6405,3.6304,3.6056,3.5583,3.5282,3.4856,3.4048,3.3796,3.3194,3.1637,3.0959,2.9679,2.7077,2.6826,0.0,0.0,2.5536,2.6088,2.5569,2.6992,2.7333,0.0,0.0,0.0,0.0,2.7118,2.7745,2.9528,3.106,3.2164,3.2867,3.3061,3.3111,3.3111,3.3111,3.3111,3.3111,3.3111,3.3111,3.3111,3.3111,3.3111,3.3111,3.3111,3.3319,3.3696,3.3696,3.3972,3.4349,3.4474,3.4525,3.4525,3.6016,3.6016,3.6016,3.6016,3.6016,3.6016,3.6016,3.6016,3.6016,3.6016,3.6016,3.6016,3.6016,3.6016,3.6016,3.6016,3.6016,3.6016,3.6016,3.6016,3.6016,3.6016,3.5801,3.5684,3.5684,3.5234,3.4805,3.4355,3.3926,3.3711,3.3711,3.3281,3.3086,3.3066,3.2851,3.2734,3.2754,3.2988,3.2949,3.2754,3.2988,3.2949,3.2715,3.2519,3.2461,3.2422,3.2307,3.2012,3.1777,3.1582,3.1367,3.1133,3.0957,3.0898,3.0801,3.0312,2.9863,2.9414,2.9023,2.9735,3.105,3.2801,3.4362,3.5667,3.6263,3.6405,3.6329,3.5981,3.5683,3.5232,3.4424,3.4073,3.3269,3.1361,3.0357,2.9051,2.6826,2.6524,0.0,2.5988,2.7193,2.8021,2.8033,2.9227,2.9453,2.7996,2.8674,0.0,2.9151,2.9679,3.0156,3.0507,3.1612,3.2491,3.3111,3.3111,3.3111,3.3111,3.3111,3.3111,3.3111,3.3111,3.3111,3.3111,3.3111,3.3111,3.3136,3.3345,3.3621,3.3922,3.4173,3.4449,3.4705,3.4956,3.5056,3.5056,3.6016,3.6016,3.6016,3.6016,3.6016,3.6016,3.6016,3.6016,3.6016,3.6016,3.6016,3.6016,3.6016,3.6016,3.6016,3.6016,3.6016,3.6016,3.6016,3.6016,3.6016,3.6016,3.6016,3.6016,3.6016,3.5605,3.5195,3.4805,3.4375,3.416,3.416,3.3789,3.3574,3.3516,3.3516,3.3476,3.3418,3.3418,3.3418,3.3418,3.3418,3.3418,3.3379,3.3027,3.2891,3.2851,3.248,3.2324,3.2207,3.1836,3.168,3.1543,3.1113,3.0996,3.0976,3.0918,3.0605,3.0174,2.9593,3.0483,3.208,3.3962,3.4532,3.4969,3.6168,3.6405,3.6405,3.6405,3.5981,3.5458,3.4906,3.4399,3.3269,3.0984,2.969,2.8423,2.6625,0.0,2.6414,2.7293,2.8599,2.9578,3.0005,3.0934,3.1336,3.0884,3.126,3.1512,3.1512,3.2039,3.2089,3.1537,3.2064,3.2566,3.3111,3.3111,3.3111,3.3111,3.3111,3.3111,3.3111,3.3111,3.3119,3.3194,3.3194,3.3244,3.337,3.3822,3.4073,3.4198,3.463,3.4901,3.5027,3.5458,3.5633,3.5633,3.6016,3.6016,3.6016,3.6016,3.6016,3.6016,3.6016,3.6016,3.6016,3.6016,3.6016,3.6016,3.6016,3.6016,3.6016,3.6016,3.6016,3.6016,3.6016,3.6016,3.6016,3.6016,3.6016,3.6016,3.6016,3.5605,3.5351,3.5293,3.4824,3.4609,3.4609,3.4531,3.4316,3.3965,3.3965,3.3769,3.3418,3.3418,3.3418,3.3418,3.3418,3.3418,3.3418,3.334,3.332,3.332,3.3242,3.3008,3.2695,3.2617,3.2363,3.1992,3.1562,3.1426,3.1348,3.0996,3.084,3.0953,3.1655,3.3171,3.4531,3.4406,3.5259,3.6168,3.6358,3.6405,3.6405,3.6405,3.6355,3.6056,3.5483,3.4931,3.3721,3.106,3.008,2.875,2.6113,0.0,2.8298,2.8021,3.0181,3.1562,3.1185,3.1712,3.2064,3.1964,3.2039,3.2089,3.2089,3.2641,3.2692,3.2114,3.2641,3.3036,3.3111,3.3111,3.3111,3.3111,3.3111,3.3111,3.3111,3.3111,3.3345,3.3771,3.3771,3.4048,3.4474,3.455,3.4831,3.5257,3.5332,3.5705,3.6179,3.6254,3.6279,3.6279,3.6016,3.6016,3.6016,3.6016,3.6016,3.6016,3.6016,3.6016,3.6016,3.6016,3.6016,3.6016,3.6016,3.6016,3.6016,3.6016,3.6016,3.6016,3.6016,3.6016,3.6016,3.6016,3.6016,3.6016,3.6016,3.584,3.5723,3.5723,3.5293,3.5078,3.5078,3.4824,3.459,3.4414,3.4414,3.4297,3.4101,3.3867,3.3769,3.375,3.3516,3.3418,3.3418,3.3418,3.3418,3.3418,3.3418,3.3301,3.3105,3.2871,3.2656,3.2422,3.2012,3.1699,3.1484,3.1289,3.0898,3.0794,3.2058,3.2641,3.3208,3.4516,3.5065,3.5523,3.6263,3.6405,3.6405,3.6405,3.6405,3.6207,3.5608,3.5056,3.4123,3.224,3.0482,0.0,0.0,2.8398,2.8825,2.9754,3.126,3.224,3.229,3.2541,3.2667,3.2667,3.2667,3.2667,3.2667,3.2943,3.2943,3.2692,3.2943,3.3111,3.3111,3.3111,3.3111,3.3111,3.337,3.352,3.352,3.3822,3.4098,3.4349,3.4349,3.4474,3.4705,3.5006,3.5282,3.5533,3.5881,3.6132,3.6405,3.6405,3.6405,3.6405,3.6016,3.6016,3.6016,3.6016,3.6016,3.6016,3.6016,3.6016,3.6016,3.6016,3.6016,3.6016,3.6016,3.6016,3.6016,3.6016,3.6016,3.6016,3.6016,3.6016,3.6016,3.6016,3.6016,3.6016,3.6016,3.6016,3.6016,3.6016,3.5703,3.5547,3.5527,3.5176,3.4961,3.4863,3.4863,3.4805,3.4668,3.4355,3.4219,3.4199,3.3848,3.3652,3.3574,3.3574,3.3516,3.3418,3.3418,3.3418,3.3379,3.3047,3.2949,3.2871,3.2441,3.209,3.1777,3.1582,3.0976,3.0655,3.1961,3.235,3.2787,3.4668,3.5084,3.5284,3.6193,3.6405,3.6405,3.6405,3.6405,3.6279,3.5805,3.5232,3.45,3.3269,0.0,0.0,0.0,2.9829,2.988,3.1587,3.239,3.2968,3.342,3.3345,3.3269,3.3269,3.3144,3.3111,3.3111,3.3111,3.3111,3.3111,3.3111,3.3111,3.3111,3.3194,3.3269,3.3269,3.3822,3.4098,3.4098,3.4525,3.4756,3.4881,3.4881,3.4977,3.5127,3.5554,3.5683,3.578,3.6207,3.6405,3.6405,3.6405,3.6405,3.6405,3.6016,3.6016,3.6016,3.6016,3.6016,3.6016,3.6016,3.6016,3.6016,3.6016,3.6016,3.6016,3.6016,3.6016,3.6016,3.6016,3.6016,3.6016,3.6016,3.6016,3.6016,3.6016,3.6016,3.6016,3.6016,3.6016,3.6016,3.6016,3.5996,3.5976,3.5976,3.5937,3.5723,3.5351,3.5351,3.5098,3.4707,3.4668,3.4648,3.4648,3.4609,3.4375,3.4023,3.4023,3.3769,3.3418,3.3418,3.3418,3.3418,3.3379,3.3379,3.3301,3.2871,3.2734,3.2539,3.1758,3.1191,3.107,3.1952,3.419,3.6077,3.5233,3.6015,3.6889,3.6483,3.6405,3.6405,3.6405,3.6405,3.6405,3.6355,3.5855,3.4906,3.3345,0.0,0.0,3.0809,3.1813,3.2767,3.2986,3.3897,3.4505,3.46,3.4148,3.3847,3.3847,3.337,3.3111,3.3111,3.3111,3.3111,3.3111,3.3111,3.3111,3.3111,3.3596,3.3847,3.3847,3.4399,3.463,3.463,3.4655,3.4956,3.5433,3.5433,3.578,3.6279,3.6329,3.6355,3.6355,3.638,3.6405,3.6405,3.6405,3.6405,3.6405,3.6016,3.6016,3.6016,3.6016,3.6016,3.6016,3.6016,3.6016,3.6016,3.6016,3.6016,3.6016,3.6016,3.6016,3.6016,3.6016,3.6016,3.6016,3.6016,3.6016,3.6016,3.6016,3.6016,3.6016,3.6016,3.6016,3.6016,3.6016,3.6016,3.6016,3.6016,3.6016,3.5937,3.5781,3.5781,3.5684,3.5508,3.5234,3.5137,3.5098,3.4824,3.4609,3.4453,3.4453,3.4199,3.3828,3.3828,3.3652,3.3418,3.3418,3.3418,3.3398,3.3242,3.3008,3.2637,3.1777,3.1406,3.129,3.1359,3.3295,3.5327,3.5431,3.6357,3.7036,3.6531,3.6405,3.6405,3.6405,3.6405,3.6405,3.6405,3.5906,3.5408,3.5198,0.0,3.3219,3.3577,3.3319,3.3345,3.4022,3.4474,3.468,3.468,3.4525,3.4399,3.4399,3.4223,3.4098,3.4098,3.4098,3.4098,3.4098,3.4098,3.3922,3.3596,3.3796,3.4073,3.4424,3.4931,3.5182,3.5207,3.5579,3.5855,3.6056,3.6056,3.6182,3.6405,3.6405,3.6405,3.6405,3.6405,3.6405,3.6405,3.6405,3.6405,3.6405,3.6016,3.6016,3.6016,3.6016,3.6016,3.6016,3.6016,3.6016,3.6016,3.6016,3.6016,3.6016,3.6016,3.6016,3.6016,3.6016,3.6016,3.6016,3.6016,3.6016,3.6016,3.6016,3.6016,3.6016,3.6016,3.6016,3.6016,3.6016,3.6016,3.6016,3.6016,3.6016,3.6016,3.6016,3.6016,3.6016,3.5996,3.5723,3.5586,3.5566,3.5234,3.5039,3.4922,3.4922,3.4648,3.4258,3.4121,3.3887,3.3613,3.3476,3.3418,3.3418,3.3418,3.3125,3.2676,3.209,3.1719,3.1564,3.1719,3.3177,3.4823,3.5224,3.6396,3.7287,3.6782,3.6531,3.6405,3.6405,3.6405,3.6405,3.6405,3.6056,3.5931,3.6355,3.5148,3.45,3.5655,3.4826,3.4399,3.5152,3.5228,3.5228,3.5228,3.5031,3.4931,3.4931,3.4781,3.468,3.468,3.468,3.468,3.468,3.468,3.4625,3.4424,3.4424,3.46,3.4931,3.5529,3.5805,3.5805,3.6182,3.6405,3.6405,3.6405,3.6405,3.6405,3.6405,3.6405,3.6405,3.6405,3.6405,3.6405,3.6405,3.6405,3.6405,3.6016,3.6016,3.6016,3.6016,3.6016,3.6016,3.6016,3.6016,3.6016,3.6016,3.6016,3.6016,3.6016,3.6016,3.6016,3.6016,3.6016,3.6016,3.6016,3.6016,3.6016,3.6016,3.6016,3.6016,3.6016,3.6016,3.6016,3.6016,3.6016,3.6016,3.6016,3.6016,3.6016,3.6016,3.6016,3.6016,3.6016,3.6016,3.6016,3.6016,3.6016,3.5762,3.5391,3.5391,3.5117,3.4648,3.4238,3.4082,3.4004,3.3574,3.3437,3.3418,3.3418,3.3144,3.2793,3.2793,3.2187,3.1801,3.3306,3.4493,3.5176,3.4553,3.6236,3.7864,3.7312,3.6807,3.6405,3.6405,3.6405,3.6405,3.6405,3.6405,3.6405,3.6405,3.6405,3.6405,3.6405,3.6405,3.6405,3.6405,3.6405,3.6405,3.6405,3.5881,3.5508,3.5508,3.5006,3.4726,3.4726,3.4726,3.4726,3.4726,3.4726,3.4956,3.5508,3.5508,3.5508,3.5508,3.6107,3.6405,3.6405,3.6405,3.6405,3.6405,3.6405,3.6405,3.6405,3.6405,3.6405,3.6405,3.6405,3.6405,3.6405,3.6405,3.6405,3.6405,3.6016,3.6016,3.6016,3.6016,3.6016,3.6016,3.6016,3.6016,3.6016,3.6016,3.6016,3.6016,3.6016,3.6016,3.6016,3.6016,3.6016,3.6016,3.6016,3.6016,3.6016,3.6016,3.6016,3.6016,3.6016,3.6016,3.6016,3.6016,3.6016,3.6016,3.6016,3.6016,3.6016,3.6016,3.6016,3.6016,3.6016,3.6016,3.6016,3.6016,3.6016,3.5937,3.584,3.584,3.5566,3.5176,3.5039,3.4785,3.4453,3.4023,3.3887,3.3828,3.3516,3.334,3.3184,3.2871,3.2617,3.2631,3.3472,3.4674,3.5768,3.5985,3.7321,3.8467,3.7889,3.7337,3.6935,3.6935,3.6681,3.6405,3.6405,3.6405,3.6405,3.6405,3.6405,3.6405,3.6405,3.6405,3.6405,3.6405,3.6405,3.6405,3.6405,3.6254,3.6107,3.6107,3.5956,3.5881,3.5881,3.5881,3.5881,3.5881,3.5881,3.5956,3.6107,3.5683,3.5683,3.6107,3.6329,3.6405,3.6405,3.6405,3.6405,3.6405,3.6405,3.6405,3.6405,3.6405,3.6405,3.6405,3.6405,3.6405,3.6405,3.6405,3.6405,3.6405,3.6016,3.6016,3.6016,3.6016,3.6016,3.6016,3.6016,3.6016,3.6016,3.6016,3.6016,3.6016,3.6016,3.6016,3.6016,3.6016,3.6016,3.6016,3.6016,3.6016,3.6016,3.6016,3.6016,3.6016,3.6016,3.6016,3.6016,3.6016,3.6016,3.6016,3.6016,3.6016,3.6016,3.6016,3.6016,3.6016,3.6016,3.6016,3.6016,3.6016,3.6016,3.6016,3.6016,3.6016,3.5859,3.5625,3.5449,3.5215,3.4902,3.4473,3.4219,3.4004,3.3555,3.3418,3.3485,3.3895,3.3386,3.3271,3.5475,3.6013,3.6261,3.7796,3.8531,3.8768,3.8442,3.7914,3.7437,3.7236,3.691,3.6656,3.6455,3.6405,3.6405,3.6405,3.6405,3.6405,3.6405,3.6405,3.6405,3.6405,3.6405,3.6405,3.6405,3.6405,3.6405,3.6405,3.6405,3.6405,3.6405,3.6405,3.6405,3.6405,3.6405,3.6405,3.6405,3.6031,3.6031,3.6405,3.6405,3.6405,3.6405,3.6405,3.6405,3.6405,3.6405,3.6405,3.6405,3.6405,3.6405,3.6405,3.6405,3.6405,3.6405,3.6405,3.6405,3.6405,3.6016,3.6016,3.6016,3.6016,3.6016,3.6016,3.6016,3.6016,3.6016,3.6016,3.6016,3.6016,3.6016,3.6016,3.6016,3.6016,3.6016,3.6016,3.6016,3.6016,3.6016,3.6016,3.6016,3.6016,3.6016,3.6016,3.6016,3.6016,3.6016,3.6016,3.6016,3.6016,3.6016,3.6016,3.6016,3.6016,3.6016,3.6016,3.6016,3.6016,3.6016,3.6016,3.6016,3.6016,3.6016,3.5976,3.5586,3.5449,3.5371,3.4922,3.4473,3.4043,3.3613,3.3476,3.3773,3.5335,3.4513,3.4085,3.8585,3.8086,3.6901,3.9812,3.9772,3.9045,3.8994,3.8492,3.7939,3.7437,3.7262,3.7036,3.6581,3.643,3.6405,3.6405,3.6405,3.6405,3.6405,3.6405,3.6405,3.6405,3.6405,3.6405,3.6405,3.6405,3.6405,3.6405,3.6405,3.6405,3.6405,3.6405,3.6405,3.6405,3.6405,3.6405,3.6405,3.6405,3.6405,3.6405,3.6405,3.6405,3.6405,3.6405,3.6405,3.6405,3.6405,3.6405,3.6405,3.6405,3.6405,3.6405,3.6405,3.6405,3.6405,3.6405,3.6405,3.6405,3.6016,3.6016,3.6016,3.6016,3.6016,3.6016,3.6016,3.6016,3.6016,3.6016,3.6016,3.6016,3.6016,3.6016,3.6016,3.6016,3.6016,3.6016,3.6016,3.6016,3.6016,3.6016,3.6016,3.6016,3.6016,3.6016,3.6016,3.6016,3.6016,3.6016,3.6016,3.6016,3.6016,3.6016,3.6016,3.6016,3.6016,3.6016,3.6016,3.6016,3.6016,3.6016,3.6016,3.6016,3.6016,3.6016,3.5918,3.5879,3.582,3.5391,3.4941,3.4492,3.4062,3.3926,3.4167,3.5438,3.5498,3.5818,3.8931,3.9358,3.9228,4.0223,4.035,4.0049,3.9622,3.9069,3.8642,3.8592,3.7789,3.7136,3.7036,3.6707,3.6405,3.6405,3.6405,3.6405,3.6405,3.6405,3.6405,3.6405,3.6405,3.6405,3.6405,3.6405,3.6405,3.6405,3.6405,3.6405,3.6405,3.6405,3.6405,3.6405,3.6405,3.6405,3.6405,3.6405,3.6405,3.6405,3.6405,3.6405,3.6405,3.6405,3.6405,3.6405,3.6405,3.6405,3.6405,3.6405,3.6405,3.6405,3.6405,3.6405,3.6405,3.6405,3.6405,3.6405,3.6016,3.6016,3.6016,3.6016,3.6016,3.6016,3.6016,3.6016,3.6016,3.6016,3.6016,3.6016,3.6016,3.6016,3.6016,3.6016,3.6016,3.6016,3.6016,3.6016,3.6016,3.6016,3.6016,3.6016,3.6016,3.6016,3.6016,3.6016,3.6016,3.6016,3.6016,3.6016,3.6016,3.6016,3.6016,3.6016,3.6016,3.6016,3.6016,3.6016,3.6016,3.6016,3.6016,3.6016,3.6016,3.6016,3.6016,3.6016,3.5957,3.5527,3.5234,3.4922,3.4277,3.4082,3.4477,3.6383,3.6417,3.6574,4.0316,4.0588,4.0026,4.1051,4.0902,4.0375,3.9823,3.9471,3.9195,3.8919,3.8441,3.7814,3.7287,3.6983,3.6707,3.6455,3.6405,3.6405,3.6405,3.6405,3.6405,3.6405,3.6405,3.6405,3.6405,3.6405,3.6405,3.6405,3.6405,3.6405,3.6405,3.6405,3.6405,3.6405,3.6405,3.6405,3.6405,3.6405,3.6405,3.6405,3.6405,3.6405,3.6405,3.6405,3.6405,3.6405,3.6405,3.6405,3.6405,3.6405,3.6405,3.6405,3.6405,3.6405,3.6405,3.6405,3.6405,3.6405,3.6016,3.6016,3.6016,3.6016,3.6016,3.6016,3.6016,3.6016,3.6016,3.6016,3.6016,3.6016,3.6016,3.6016,3.6016,3.6016,3.6016,3.6016,3.6016,3.6016,3.6016,3.6016,3.6016,3.6016,3.6016,3.6016,3.6016,3.6016,3.6016,3.6016,3.6016,3.6016,3.6016,3.6016,3.6016,3.6016,3.6016,3.6016,3.6016,3.6016,3.6016,3.6016,3.6016,3.6016,3.6016,3.6016,3.6016,3.6016,3.5976,3.5605,3.5508,3.5351,3.4551,3.4432,3.5087,3.7588,3.7489,3.7544,4.1842,4.1692,4.0628,4.1883,4.148,4.0626,3.9973,3.9772,3.9572,3.912,3.8944,3.8642,3.7638,3.7312,3.7036,3.6631,3.6455,3.6405,3.6405,3.6405,3.6405,3.6405,3.6405,3.6405,3.6405,3.6405,3.6405,3.6405,3.6405,3.6405,3.6405,3.6405,3.6405,3.6405,3.6405,3.6405,3.6405,3.6405,3.6405,3.6405,3.6405,3.6405,3.6405,3.6405,3.6405,3.6405,3.6405,3.6405,3.6405,3.6405,3.6405,3.6405,3.6405,3.6405,3.6405,3.6405,3.6405,3.6405,3.6016,3.6016,3.6016,3.6016,3.6016,3.6016,3.6016,3.6016,3.6016,3.6016,3.6016,3.6016,3.6016,3.6016,3.6016,3.6016,3.6016,3.6016,3.6016,3.6016,3.6016,3.6016,3.6016,3.6016,3.6016,3.6016,3.6016,3.6016,3.6016,3.6016,3.6016,3.6016,3.6016,3.6016,3.6016,3.6016,3.6016,3.6016,3.6016,3.6016,3.6016,3.6016,3.6016,3.6016,3.6016,3.6016,3.6016,3.6016,3.6016,3.5957,3.5937,3.5859,3.5371,3.5887,3.696,3.8398,3.9336,4.0419,4.2432,4.2799,4.2513,4.2258,4.2087,4.1656,4.0651,4.0049,3.9672,3.9597,3.9195,3.8869,3.8718,3.7839,3.7161,3.7086,3.6732,3.6405,3.6405,3.6405,3.6405,3.6405,3.6405,3.6405,3.6405,3.6405,3.6405,3.6405,3.6405,3.6405,3.6405,3.6405,3.6405,3.6405,3.6405,3.6405,3.6405,3.6405,3.6405,3.6405,3.6405,3.6405,3.6405,3.6405,3.6405,3.6405,3.6405,3.6405,3.6405,3.6405,3.6405,3.6405,3.6405,3.6405,3.6405,3.6405,3.6405,3.6405,3.6016,3.6016,3.6016,3.6016,3.6016,3.6016,3.6016,3.6016,3.6016,3.6016,3.6016,3.6016,3.6016,3.6016,3.6016,3.6016,3.6016,3.6016,3.6016,3.6016,3.6016,3.6016,3.6016,3.6016,3.6016,3.6016,3.6016,3.6016,3.6016,3.6016,3.6016,3.6016,3.6016,3.6016,3.6016,3.6016,3.6016,3.6016,3.6016,3.6016,3.6016,3.6016,3.6016,3.6016,3.6016,3.6016,3.6016,3.6016,3.6016,3.6016,3.6016,3.5937,3.5527,3.6385,3.772,3.8636,3.9887,4.1321,4.2644,4.2986,4.2911,4.274,4.2439,4.2011,4.1153,4.0551,4.0074,3.9747,3.9496,3.9245,3.8969,3.8467,3.7914,3.7287,3.6985,3.6757,3.6455,3.6405,3.6405,3.6405,3.6405,3.6405,3.6405,3.6405,3.6405,3.6405,3.6405,3.6405,3.6405,3.6405,3.6405,3.6405,3.6405,3.6405,3.6405,3.6405,3.6405,3.6405,3.6405,3.6405,3.6405,3.6405,3.6405,3.6405,3.6405,3.6405,3.6405,3.6405,3.6405,3.6405,3.6405,3.6405,3.6405,3.6405,3.6405,3.6405]}]]